GFSNGP_925_thetae_000.txt.gz
Theta_e
313 312 313 312 312 314 312 311 312 311 310 309 310 308 307 305 304 303 302 300 298 295 294 295 295 295 294 294 293 292 292 292 292 292 291 291 291 291 292 292 292 292 291 288
317 312 311 313 311 310 312 312 311 313 312 311 308 306 306 305 304 303 301 300 299 295 294 294 295 294 294 293 293 292 292 292 292 292 291 291 291 291 291 293 290 289 288 289
304 307 306 306 309 309 309 309 310 313 311 309 309 308 307 305 303 303 301 300 298 296 294 294 294 294 293 293 292 292 292 292 292 292 291 291 291 291 292 292 292 291 290 287
304 301 304 308 307 309 311 312 311 311 310 309 310 307 305 303 303 302 300 299 297 297 295 293 293 293 293 292 292 291 292 292 292 291 291 290 291 291 291 292 291 291 288 286
304 303 304 307 313 313 313 311 311 311 309 308 305 305 306 302 300 301 299 299 299 299 295 292 292 292 292 292 291 292 292 292 292 291 291 290 290 291 290 290 290 287 286 285
297 301 301 305 308 310 310 312 310 309 308 307 305 305 310 302 300 299 300 298 297 295 293 292 292 293 292 292 292 292 292 292 291 291 291 290 290 289 288 287 286 286 284 283
295 298 303 303 310 310 313 311 310 308 307 305 306 307 304 301 300 300 298 294 294 293 293 293 293 293 292 291 291 292 292 292 291 291 291 289 289 288 287 286 286 284 283 282
300 299 307 305 310 311 310 307 309 307 306 306 304 301 302 301 296 293 292 292 293 293 293 293 292 291 291 291 291 291 291 291 291 291 290 289 288 288 287 285 284 283 282 282
305 306 305 305 308 308 307 307 308 307 306 306 303 303 303 295 293 292 292 292 292 292 292 291 290 291 291 291 290 289 290 291 290 290 289 288 288 287 285 284 284 284 283 281
308 309 307 307 306 307 308 307 308 306 305 304 305 303 297 292 291 291 291 292 292 291 290 290 290 290 291 290 289 289 290 289 289 288 288 288 288 286 285 285 284 284 283 281
307 309 308 308 308 308 309 308 307 306 305 305 301 296 293 292 291 291 292 291 290 289 289 289 289 290 290 289 288 288 289 288 288 288 288 288 287 285 286 285 284 283 283 282
308 308 308 307 307 309 309 308 307 305 303 297 296 294 293 292 292 292 291 290 290 289 289 289 289 289 288 288 288 288 287 287 287 286 288 289 286 285 285 285 284 284 283 283
308 308 306 306 308 308 308 307 305 301 295 294 293 293 292 293 293 291 291 290 289 289 289 289 288 287 287 287 288 288 288 288 287 287 287 288 287 285 285 285 284 284 283 283
308 310 310 309 310 307 306 302 296 294 293 293 293 294 295 292 291 291 290 290 290 289 289 289 287 287 287 288 288 288 288 288 288 288 288 288 288 287 285 285 284 284 283 283
309 307 308 307 299 294 294 294 294 294 294 293 295 295 292 290 290 290 290 290 290 290 289 288 287 287 288 288 288 289 289 289 288 287 287 287 286 287 287 285 284 284 284 283
305 305 302 297 295 295 295 295 295 293 292 295 296 292 291 290 291 291 290 290 290 290 289 288 288 288 288 288 288 289 289 289 288 287 287 286 286 286 286 285 285 285 284 283
305 300 296 296 296 297 296 294 293 294 297 296 293 291 290 290 290 290 291 291 291 290 289 288 288 288 288 288 288 288 288 289 288 287 287 286 286 286 285 284 284 285 284 283
297 297 298 298 297 296 295 294 297 298 295 293 291 290 290 289 289 291 291 290 291 290 290 290 289 289 288 287 287 287 287 288 288 287 287 286 286 285 285 284 284 284 285 283
296 296 296 296 297 297 296 295 293 292 291 291 291 291 290 290 290 290 289 289 290 288 291 290 289 289 288 288 287 287 287 287 287 286 286 286 286 285 285 284 284 284 285 284
296 296 295 291 291 291 291 291 291 290 290 290 290 289 289 290 289 288 288 287 290 290 290 290 290 289 289 289 288 287 287 286 287 286 286 286 286 285 284 284 283 283 284 285
291 291 291 291 291 291 291 291 291 291 291 290 290 289 289 291 290 288 286 286 291 291 289 289 288 288 288 288 287 287 287 287 287 287 287 286 286 286 286 285 284 284 284 284
292 292 292 292 292 292 293 292 292 292 291 291 291 291 290 290 291 290 290 288 290 290 289 288 288 288 287 287 287 287 287 287 287 287 286 286 286 286 286 286 285 285 285 285
293 293 293 292 292 292 292 292 292 292 292 292 292 292 291 292 291 287 289 291 290 290 289 288 288 288 287 286 286 287 287 286 286 286 286 286 285 285 284 284 284 284 283 283
293 292 292 291 291 291 290 291 292 292 292 292 292 292 291 291 291 290 290 291 291 290 289 289 288 287 286 286 285 286 287 286 286 285 285 284 284 284 283 283 283 283 283 283
292 291 291 291 289 287 288 288 289 289 289 289 289 290 290 289 287 289 288 289 290 290 289 289 288 288 286 285 284 284 283 282 282 283 282 282 282 283 283 282 282 282 282 282
288 287 287 287 285 284 284 284 285 286 286 286 286 286 286 286 287 287 287 287 288 289 289 288 286 285 283 281 280 279 278 278 277 277 277 276 276 276 277 278 279 281 281 282
285 284 284 283 282 282 280 280 281 282 282 283 285 285 284 284 285 286 286 287 288 287 285 283 281 280 279 277 276 276 275 275 274 274 274 274 274 273 274 274 275 276 278 280

GFSNGP_925_thetae_006.txt.gz
Theta_e
317 317 316 317 319 318 317 318 318 315 316 314 316 317 318 317 317 316 314 312 310 308 306 304 302 302 301 299 297 296 296 296 296 295 295 295 294 293 293 293 294 294 293 291
320 317 316 317 317 318 318 318 317 316 317 317 317 316 317 316 315 314 313 311 310 308 306 304 302 302 300 298 297 296 296 296 295 295 295 295 294 293 293 293 293 294 293 292
320 315 316 321 318 317 317 317 318 318 318 317 317 317 317 316 314 314 313 311 310 309 306 303 301 301 299 297 296 295 295 295 294 294 294 294 293 293 293 293 293 293 293 292
323 313 330 315 313 314 316 316 316 316 316 316 316 316 315 315 315 314 313 312 311 309 306 301 301 300 298 296 295 295 294 294 294 294 293 293 293 293 293 293 292 291 291 291
329 318 316 312 311 313 315 314 316 315 315 315 314 315 317 314 314 315 313 312 311 309 305 302 299 299 296 295 295 294 294 294 293 292 293 292 293 293 293 292 291 291 291 290
317 334 334 315 311 315 315 316 315 316 317 317 316 322 315 316 314 313 312 311 310 307 303 300 298 296 295 295 295 295 294 292 292 292 292 292 292 293 293 292 291 290 289 288
320 328 318 312 313 314 316 316 316 316 317 317 318 317 316 313 314 312 311 310 307 302 300 298 297 295 295 295 295 293 292 292 292 292 292 292 292 293 292 292 290 289 287 286
316 327 326 310 314 319 317 318 316 316 317 317 317 316 313 311 310 310 310 305 302 299 297 295 295 295 296 295 293 292 292 292 292 292 292 292 292 292 292 291 290 289 287 286
318 318 314 312 317 316 315 316 316 316 315 315 315 315 312 310 307 306 304 300 296 295 295 295 294 293 293 293 292 292 292 292 291 291 291 291 291 292 291 290 289 289 288 287
316 315 314 313 313 313 313 314 314 314 314 314 315 315 313 308 303 301 299 296 295 294 293 292 292 291 292 292 292 291 291 291 291 290 289 290 291 291 290 290 289 288 288 288
317 315 315 314 314 314 314 314 315 315 315 315 314 314 311 305 301 298 295 295 295 294 294 293 292 291 291 291 290 290 291 290 290 290 289 289 289 290 290 290 289 289 288 287
319 314 316 315 314 313 315 315 315 315 315 311 310 310 305 300 296 300 297 293 292 292 291 291 291 291 291 290 289 290 290 290 291 290 290 289 289 289 290 289 287 286 285 284
315 313 313 314 314 314 315 311 310 309 307 304 301 300 297 298 295 294 294 294 294 292 292 291 291 291 290 289 289 289 290 290 290 290 290 290 290 289 290 289 286 285 285 285
313 314 316 313 312 306 304 301 300 300 300 300 299 298 296 294 293 293 294 293 291 291 291 290 291 290 289 289 289 289 290 289 290 291 291 290 290 290 290 290 290 289 288 286
307 309 310 304 301 300 301 302 302 299 297 296 295 295 295 295 296 295 294 292 291 291 291 291 291 291 290 290 290 290 289 290 290 290 290 290 289 289 289 288 289 288 288 287
304 304 302 300 299 298 299 298 298 297 296 296 296 296 296 296 295 293 292 291 291 292 292 292 291 290 290 290 290 290 290 290 289 288 288 289 290 289 289 289 288 288 287 287
308 304 301 300 300 299 298 297 297 297 298 298 298 298 298 296 292 291 292 291 290 290 291 290 291 290 290 290 290 290 291 290 288 288 288 288 289 289 289 289 289 288 288 287
301 301 300 299 298 299 298 298 298 298 298 295 291 291 290 289 291 291 290 289 289 289 290 290 290 290 290 291 290 290 290 290 289 289 289 288 288 288 288 288 288 288 288 287
300 299 299 299 299 299 298 296 292 291 290 290 290 290 289 289 289 289 289 289 289 289 292 291 290 290 290 290 289 290 289 289 289 289 289 288 287 287 287 287 287 288 288 287
299 297 294 293 292 291 292 290 291 292 291 290 289 290 290 291 290 289 289 289 291 291 291 291 291 290 290 289 289 289 289 288 288 288 288 288 288 287 286 286 286 287 287 287
294 293 292 291 290 290 290 290 290 290 290 289 288 288 288 289 290 289 290 293 293 292 291 290 290 290 291 290 289 289 289 288 288 288 288 288 287 287 287 287 286 286 286 286
296 293 291 291 291 291 289 289 289 288 288 288 287 287 287 288 287 288 288 289 290 289 288 288 288 289 290 289 288 288 288 288 287 287 287 287 287 287 287 286 286 285 285 285
293 292 291 289 289 289 287 286 286 286 286 286 286 285 285 286 286 286 286 286 285 285 284 285 286 286 287 287 287 287 287 287 287 286 285 286 287 286 285 285 285 284 284 283
291 290 288 287 286 286 286 284 284 284 283 283 284 283 284 285 284 284 284 283 283 283 284 285 285 285 286 287 287 287 288 286 283 281 280 279 279 279 279 279 279 278 278 278
287 286 286 286 285 284 282 281 281 282 281 281 281 281 280 280 280 281 281 280 281 281 282 283 283 281 282 283 282 282 281 279 277 277 276 275 275 275 275 275 275 275 274 274
286 285 284 281 280 280 279 279 279 279 278 279 278 278 278 278 278 278 278 278 278 278 277 276 274 274 275 274 274 273 274 274 273 272 272 272 272 272 272 272 272 272 272 273
280 280 281 280 278 277 276 276 276 276 276 276 275 276 276 276 276 276 275 275 275 274 274 272 271 270 270 270 270 270 270 270 268 268 268 268 268 269 268 268 269 269 270 271

GFSNGP_925_thetae_009.txt.gz
Theta_e
323 321 319 319 319 319 319 318 321 318 314 315 316 316 317 318 319 321 322 322 321 318 316 314 311 307 306 305 302 300 300 299 299 299 298 297 297 296 295 294 294 294 294 294
325 321 320 320 319 317 318 318 317 316 316 316 318 317 317 318 319 319 320 320 319 317 315 312 310 307 306 304 301 300 299 299 299 298 297 296 296 295 295 294 294 294 294 294
321 320 321 324 321 319 318 318 318 319 318 319 318 317 317 317 318 318 318 318 317 316 313 311 309 307 306 303 301 299 299 298 298 297 296 296 295 294 294 294 294 294 293 293
322 319 327 317 316 316 318 318 317 317 317 316 317 318 318 318 318 318 317 317 316 314 312 311 309 306 305 301 300 299 298 297 297 296 295 295 294 294 294 294 294 293 293 292
331 320 317 315 314 314 316 316 317 316 315 316 317 317 318 318 317 317 317 316 315 314 313 311 308 305 303 301 300 298 297 296 296 294 294 294 294 294 294 294 294 293 293 292
320 329 330 319 315 317 317 315 315 315 315 315 316 318 316 318 316 315 315 315 315 314 313 311 307 303 302 300 299 298 297 296 294 294 294 293 293 293 293 294 293 293 292 291
323 328 322 316 315 316 316 318 316 316 315 316 317 316 318 317 316 315 315 315 314 313 312 310 306 302 300 301 298 297 295 294 294 293 293 293 293 293 293 293 293 293 291 290
325 325 327 313 316 319 320 317 316 316 316 317 317 317 316 316 315 314 314 314 313 311 308 304 301 299 299 297 296 294 294 294 293 293 293 293 293 293 293 293 293 292 291 290
320 321 317 315 315 316 316 316 316 316 315 316 316 316 316 316 315 312 312 310 307 302 298 298 298 297 297 294 294 293 293 293 293 293 292 292 292 292 293 293 292 292 291 290
318 316 315 315 315 315 315 315 316 316 317 316 317 316 316 316 313 308 307 303 300 298 296 296 297 296 294 294 293 293 292 292 292 292 291 291 291 292 292 292 292 291 290 289
318 316 315 315 315 316 315 316 317 317 317 317 316 316 315 313 307 303 299 296 297 298 297 296 295 293 292 292 292 292 291 291 292 291 292 292 291 290 292 292 291 291 290 290
319 317 318 317 317 316 317 317 316 316 315 311 311 312 310 304 301 300 297 295 295 295 295 294 293 292 292 292 291 291 291 291 292 292 292 292 291 290 290 290 290 289 288 288
318 317 317 317 316 312 311 309 308 307 306 304 303 302 301 298 297 295 295 295 295 294 293 293 293 292 292 291 290 290 291 291 291 291 292 292 291 290 290 290 290 289 288 287
314 316 318 312 311 307 307 306 304 303 301 300 298 297 295 295 295 295 295 295 295 294 293 292 292 292 292 291 291 291 290 291 291 291 292 292 291 291 290 291 291 290 289 287
310 312 309 307 305 305 304 301 300 299 298 298 297 297 297 297 297 296 296 295 294 293 293 293 293 292 292 291 291 291 292 292 291 291 291 290 290 290 290 290 289 289 289 289
308 307 306 304 303 301 300 299 298 298 299 299 298 297 297 297 296 296 294 293 293 293 293 293 292 292 292 292 292 292 292 292 291 290 290 289 288 289 290 291 290 290 289 288
308 306 305 304 302 300 299 299 299 300 299 299 298 294 294 294 293 294 293 293 292 291 290 290 290 291 292 292 292 292 293 293 292 290 290 289 289 289 289 290 290 289 290 289
305 304 302 301 301 300 300 299 298 296 295 293 290 290 291 291 291 291 291 290 290 290 291 292 292 291 291 292 292 293 293 293 292 291 291 291 290 290 289 289 289 289 289 289
301 301 300 300 299 297 295 294 292 292 291 290 290 290 291 291 291 290 290 290 290 292 294 293 292 291 291 291 291 291 292 292 291 291 290 289 290 289 289 288 288 288 288 288
299 297 295 294 293 294 293 291 293 294 293 290 291 290 290 290 290 290 290 290 292 293 292 291 290 290 291 291 291 291 291 291 291 291 289 289 289 289 288 288 288 287 287 287
296 294 293 292 291 290 290 290 290 289 290 288 288 288 287 287 287 287 288 288 289 289 287 286 285 286 286 287 287 288 289 290 290 290 289 289 288 288 288 288 288 288 287 287
297 293 293 293 292 289 288 287 287 287 286 286 286 286 286 287 287 287 287 287 287 285 284 284 284 285 284 284 285 286 287 288 288 289 289 288 287 287 288 288 287 286 286 286
295 293 291 289 289 289 287 285 286 285 285 284 285 284 284 284 285 284 285 284 283 282 281 282 282 281 281 283 285 286 286 287 287 288 288 285 285 284 284 284 283 283 283 283
292 290 288 288 287 287 287 285 284 284 283 283 283 281 281 281 281 281 281 280 280 278 279 279 277 276 278 279 279 279 279 279 280 282 281 281 281 280 280 280 279 279 279 278
289 288 288 288 287 286 284 283 283 283 282 282 281 280 280 279 279 279 279 278 277 277 277 276 274 273 275 275 275 275 275 275 274 274 275 276 276 276 276 276 276 276 275 276
289 289 285 283 283 282 281 281 281 281 280 280 279 279 279 278 277 277 276 276 275 275 275 274 273 272 272 272 272 271 271 271 270 270 271 272 272 272 272 272 272 272 273 273
283 284 284 284 281 280 279 279 279 278 278 277 277 278 277 276 275 275 275 274 274 273 273 273 272 271 270 270 270 270 269 269 268 268 268 268 269 269 269 269 269 270 270 271

GFSNGP_925_thetae_012.txt.gz
Theta_e
320 321 322 322 321 320 319 321 322 322 318 318 317 318 318 319 320 319 319 323 322 322 321 318 316 315 312 309 307 305 302 301 301 300 300 299 298 297 297 295 295 295 294 295
327 323 322 322 321 320 318 318 318 318 318 317 319 318 317 317 317 319 318 318 321 322 321 318 317 315 311 308 306 303 301 301 300 300 299 298 297 297 296 296 295 294 294 294
328 321 322 323 324 321 321 319 318 319 319 318 318 318 318 318 318 318 318 318 319 320 320 318 316 314 311 308 306 302 301 300 299 299 297 298 296 296 296 295 295 295 294 294
331 320 326 318 318 317 318 318 318 317 318 317 318 317 316 316 317 318 318 318 318 318 317 316 315 313 310 308 305 302 300 299 298 298 297 296 296 295 295 295 295 295 294 293
332 326 319 317 315 315 315 317 317 317 316 317 316 316 316 318 318 318 317 316 316 315 316 315 313 312 308 307 303 301 299 298 297 297 295 294 294 294 294 294 294 294 294 293
325 332 330 322 317 317 317 319 316 316 316 316 316 325 319 318 317 317 315 315 315 315 315 314 313 311 306 304 302 299 299 298 295 296 295 294 293 293 293 294 294 294 294 292
327 330 328 318 316 315 319 323 318 317 317 318 319 319 318 317 317 316 314 315 315 315 313 312 311 307 303 300 300 298 296 296 297 295 294 293 293 293 293 293 293 293 293 292
331 327 326 315 315 320 324 319 318 317 318 318 318 318 317 316 316 316 313 313 313 304 300 299 301 302 300 299 297 295 296 295 294 293 293 293 293 292 293 293 293 294 292 291
325 327 321 316 316 317 316 317 317 317 316 317 318 317 317 317 316 313 311 306 300 299 297 297 297 298 295 295 295 294 294 294 293 293 293 292 292 291 292 293 293 293 292 291
323 316 316 317 315 316 315 316 316 317 318 318 318 318 316 316 311 302 301 301 299 298 298 298 297 296 295 295 294 293 292 292 292 292 292 291 291 291 291 291 293 292 291 291
319 318 317 315 317 317 317 317 318 318 317 313 314 314 314 307 302 299 299 299 298 296 296 295 294 294 293 293 292 292 292 292 292 292 291 292 292 292 291 290 290 290 291 291
327 319 320 319 318 317 317 314 312 312 309 307 307 306 303 302 300 298 297 296 296 295 295 295 294 294 293 293 292 292 291 291 291 292 292 291 291 292 291 291 290 290 290 290
319 318 318 316 312 310 310 309 308 307 306 304 302 300 299 298 296 296 296 296 296 296 295 295 294 293 293 292 292 291 290 291 291 291 292 292 292 292 291 291 290 290 290 290
314 316 315 312 310 309 306 304 302 301 300 299 298 297 297 296 296 297 297 297 296 295 294 294 293 293 293 293 293 292 291 291 291 291 292 292 292 292 291 291 291 290 290 290
311 310 309 308 307 305 302 301 300 300 299 299 299 299 298 298 298 297 296 295 295 294 293 293 294 293 293 293 293 292 292 292 292 292 292 292 290 290 289 289 290 290 289 289
309 308 307 306 304 302 301 300 300 300 299 299 298 297 297 297 297 296 295 294 293 293 293 291 291 291 292 292 293 293 293 293 293 293 292 292 291 290 289 289 289 289 290 290
308 306 305 304 302 300 300 300 299 299 297 295 293 291 291 291 293 292 292 291 291 291 291 291 291 292 292 292 293 293 293 293 293 294 293 292 291 290 289 289 289 289 289 289
305 304 302 300 300 300 298 297 295 294 292 291 290 290 290 290 289 290 290 290 290 292 293 293 291 291 291 291 291 291 291 292 292 293 292 292 291 290 290 290 290 289 289 289
301 301 300 299 298 296 294 293 292 291 290 290 290 289 289 288 288 288 288 288 290 292 289 288 287 286 286 287 287 287 288 289 290 291 291 291 291 290 290 289 289 289 289 288
298 296 295 294 294 293 291 291 294 292 289 288 288 287 287 287 287 287 287 288 288 287 285 285 284 284 284 285 285 284 284 285 286 286 286 288 290 290 289 289 289 289 288 288
296 294 292 290 290 290 289 289 288 288 287 286 286 286 285 287 287 287 287 287 285 283 282 281 282 281 280 280 280 282 283 284 285 286 286 287 288 289 289 288 288 287 288 287
294 292 291 290 289 288 287 287 286 286 285 285 284 283 284 284 284 284 284 283 281 280 279 280 278 277 277 278 280 280 280 279 280 282 286 287 287 288 287 285 286 286 286 286
293 291 290 290 289 288 286 285 285 283 283 284 282 281 282 282 282 282 282 280 279 277 277 278 276 274 274 276 276 275 276 275 275 276 277 278 279 280 280 280 280 280 280 280
291 290 289 288 288 288 287 285 285 284 282 283 282 281 280 281 280 280 278 277 277 276 276 276 274 273 273 273 273 273 273 272 271 272 272 273 274 275 275 275 275 275 275 276
289 289 289 288 288 286 285 283 284 283 282 282 281 280 280 279 278 277 277 276 275 275 274 274 273 272 271 271 271 271 271 271 269 269 269 270 270 271 271 270 271 271 271 272
290 288 285 284 283 283 282 282 282 281 280 280 279 279 279 278 277 275 275 275 274 273 273 272 272 271 271 270 270 270 269 268 268 267 267 267 268 268 268 268 268 269 269 269
285 286 286 284 281 280 279 280 279 279 279 277 276 277 278 276 276 275 274 273 273 272 271 271 270 270 269 269 268 268 267 267 267 266 265 265 265 265 266 266 267 267 268 269

GFSNGP_925_thetae_015.txt.gz
Theta_e
321 323 322 322 322 320 316 319 317 317 319 317 315 315 315 315 316 317 314 317 317 315 314 316 315 314 314 313 308 306 304 303 302 301 301 300 298 298 297 297 296 295 294 294
323 322 321 321 320 319 319 319 317 316 316 315 314 312 313 313 313 315 315 314 314 318 316 315 314 314 313 311 308 306 304 302 301 301 300 298 297 297 296 296 296 296 295 294
322 316 316 314 316 319 319 318 318 315 314 315 314 314 312 312 313 313 315 314 314 315 316 315 315 315 313 310 307 305 303 301 299 299 298 297 298 296 295 296 296 295 295 294
316 313 311 316 317 315 317 316 314 314 314 313 312 312 314 313 312 312 313 313 313 314 316 317 317 315 314 309 306 303 301 298 297 298 298 297 295 296 296 295 294 294 294 295
314 316 316 315 315 317 315 315 314 314 313 313 313 311 315 314 313 312 311 310 312 313 315 316 315 315 311 306 304 300 298 298 298 297 296 295 295 294 294 293 293 294 294 294
314 316 312 315 316 315 315 314 315 314 314 315 313 309 315 314 315 313 312 311 307 305 308 311 312 311 306 301 299 298 296 296 296 296 296 294 294 293 293 293 293 293 293 293
310 310 314 319 314 314 312 314 316 315 315 314 314 313 313 313 313 312 305 301 300 299 299 301 302 300 297 297 296 296 296 296 296 296 294 294 293 293 293 292 292 292 293 292
316 317 318 315 314 312 316 315 314 313 314 314 314 314 314 313 310 304 300 298 297 297 296 296 297 297 296 296 295 295 296 296 295 294 294 293 293 292 292 291 291 292 292 291
317 316 315 313 313 315 313 313 314 314 314 315 315 315 312 301 300 299 298 297 297 297 296 296 296 296 295 295 296 297 297 295 294 294 293 292 292 292 291 291 291 291 292 291
314 315 315 313 313 312 313 314 315 312 312 312 313 309 301 299 299 298 298 298 297 296 295 295 296 296 297 296 297 296 293 293 292 292 292 292 291 291 291 291 291 290 290 291
316 315 317 317 316 316 313 313 308 306 305 306 303 302 300 299 298 297 296 296 296 295 295 294 294 294 294 293 293 292 292 292 292 291 291 291 291 292 292 291 291 290 290 290
310 318 316 315 312 310 309 308 307 305 303 301 301 300 298 297 297 297 296 296 295 295 295 295 294 293 293 293 292 292 292 291 291 291 292 292 291 291 292 292 291 291 290 289
318 314 311 309 306 305 305 304 303 302 301 299 298 297 296 296 296 296 296 296 296 295 295 294 293 293 292 292 292 292 292 291 291 290 291 290 291 292 292 292 291 291 290 290
312 310 310 309 306 303 301 300 299 298 298 297 297 297 296 296 296 296 296 296 295 294 294 293 293 293 292 292 293 293 293 292 291 291 291 291 291 291 292 291 289 288 288 289
308 308 306 304 302 301 300 299 298 297 298 298 298 297 297 297 296 295 293 293 293 293 292 292 291 291 291 291 292 292 292 292 292 292 292 292 292 292 291 290 289 289 288 288
307 305 304 303 302 300 299 298 298 298 297 295 293 292 291 292 292 291 291 291 290 289 290 290 291 291 291 291 291 291 291 291 291 291 291 291 291 291 291 290 290 288 288 289
304 303 302 302 300 300 299 298 297 294 292 290 289 289 289 290 289 288 288 288 288 289 289 287 285 286 286 287 287 286 286 287 288 289 290 290 291 291 291 290 289 288 288 289
304 302 300 299 299 297 294 293 290 289 288 288 288 289 288 288 287 287 286 287 288 289 286 284 283 283 283 283 284 283 284 283 283 283 284 285 285 287 289 289 289 289 289 289
300 300 299 297 295 293 291 290 289 288 288 288 288 287 287 287 287 287 287 287 284 284 282 281 281 281 280 279 279 279 280 281 281 282 283 283 284 285 285 286 288 289 289 288
296 295 293 292 291 291 291 291 288 287 287 287 285 285 286 286 286 286 285 282 281 280 279 279 279 277 276 276 277 278 279 279 278 278 278 279 281 285 285 286 286 288 288 288
292 291 290 290 289 289 289 288 287 286 285 284 283 284 284 283 283 283 282 281 280 277 277 278 276 274 274 275 275 274 275 273 273 274 275 276 277 277 279 282 284 286 287 287
291 290 289 288 288 287 286 286 285 285 284 282 281 281 281 282 281 281 280 278 277 276 275 276 275 273 272 273 272 272 272 271 270 271 271 272 273 274 274 274 275 275 276 277
291 290 289 288 287 286 285 284 283 283 283 281 280 280 280 280 280 278 277 277 276 275 274 275 274 273 271 271 271 270 270 270 269 268 269 269 270 271 270 270 271 271 272 272
290 289 289 288 285 285 285 284 283 282 282 281 280 280 279 279 278 276 276 275 275 274 273 273 272 272 271 270 269 269 269 268 268 267 267 267 268 268 268 268 268 269 269 269
289 288 287 287 285 283 282 283 282 281 281 279 279 279 279 278 277 275 275 274 273 273 272 271 271 270 270 269 268 268 267 267 266 266 265 265 265 265 266 266 266 267 267 268
287 284 283 282 281 280 281 280 280 279 279 278 277 276 278 276 275 274 273 272 272 272 271 270 269 269 268 268 267 266 266 265 265 264 264 263 263 263 263 263 264 265 265 266
284 283 281 280 279 279 279 278 277 277 278 276 275 276 276 275 274 273 272 271 271 270 269 269 268 268 267 267 266 266 265 264 264 263 263 262 261 261 261 261 262 263 263 264

GFSNGP_925_thetae_018.txt.gz
Theta_e
318 321 321 320 320 320 317 316 316 316 316 314 314 312 312 312 313 315 319 318 317 314 311 314 315 314 313 308 308 307 304 304 303 302 301 301 299 297 297 296 296 296 295 295
320 318 319 320 318 318 318 318 316 315 315 313 310 310 311 311 312 311 311 312 315 315 312 314 314 314 312 310 309 306 304 304 303 302 301 299 297 296 296 295 295 295 295 295
319 314 314 315 315 316 317 317 317 316 314 312 312 313 312 310 312 311 312 311 313 316 314 314 314 313 313 312 308 305 303 302 302 301 298 297 297 296 296 295 295 295 295 295
314 311 315 317 314 315 314 313 312 312 311 313 314 313 312 310 310 310 310 309 308 309 315 315 315 314 314 312 306 303 301 300 298 297 297 296 297 296 297 295 294 293 293 293
312 314 315 315 314 312 313 315 313 312 312 312 313 312 313 313 311 309 308 306 303 304 305 311 314 312 310 305 303 301 298 298 297 297 296 296 298 298 294 294 293 293 293 293
313 314 312 313 314 314 312 314 314 312 313 313 310 309 313 312 309 304 300 299 300 301 302 304 304 307 301 298 297 296 296 296 296 295 296 297 296 294 294 293 293 292 292 292
305 308 310 312 314 311 309 310 313 312 312 313 313 311 311 305 300 299 298 298 297 297 297 296 297 298 297 296 296 295 296 296 296 297 298 297 295 293 293 292 292 291 291 292
314 311 314 314 313 311 309 312 311 311 312 312 312 307 302 300 299 297 297 297 297 296 296 296 296 296 295 295 296 296 297 298 298 298 296 294 293 292 292 292 291 291 291 292
313 313 313 312 313 314 311 311 311 313 313 313 309 302 300 298 298 298 297 297 297 296 296 296 296 297 296 296 297 298 299 298 296 294 293 293 292 292 291 291 291 291 290 290
314 315 316 312 313 312 313 313 310 310 311 308 302 299 299 299 298 297 296 296 295 295 294 294 295 295 295 295 295 294 293 293 293 292 291 291 291 291 291 291 291 291 290 289
313 316 316 315 313 311 307 305 304 303 302 301 300 299 298 297 296 295 295 295 295 294 294 294 294 293 293 293 292 292 292 291 291 291 290 290 291 291 291 291 291 291 291 290
311 313 313 312 309 307 306 305 303 301 300 299 299 298 297 296 296 295 295 295 295 295 294 294 293 293 292 292 292 292 292 291 291 291 290 290 291 291 290 290 291 291 291 290
316 312 308 305 304 303 302 301 300 299 298 297 297 296 296 295 296 296 295 295 295 294 293 293 292 292 291 291 291 292 292 292 292 292 291 291 291 290 289 291 291 291 291 291
308 308 307 306 302 300 299 299 298 297 297 296 296 296 295 295 295 294 293 293 293 292 291 290 291 291 291 291 291 291 291 291 290 290 289 289 289 289 289 289 289 290 291 290
306 306 304 301 300 298 298 298 297 296 296 294 294 294 294 292 292 290 290 290 290 290 289 288 288 287 287 288 287 286 286 285 285 286 287 288 289 289 289 289 290 290 290 289
303 302 301 300 299 298 297 296 296 295 292 291 290 290 290 290 289 288 287 288 288 287 286 285 284 283 284 283 283 283 283 283 283 282 282 283 283 284 285 287 289 290 289 289
302 301 300 300 299 299 298 296 294 292 289 288 288 288 288 287 286 286 287 287 287 285 283 281 281 281 281 280 279 279 279 279 280 280 281 281 281 282 282 283 284 284 285 287
302 300 299 298 298 295 292 290 289 289 289 289 288 287 286 286 286 286 286 286 284 282 280 280 279 278 277 276 277 277 277 278 278 278 277 278 278 278 278 280 282 283 284 285
299 298 298 296 294 291 289 288 288 288 288 288 286 286 286 286 286 285 283 282 280 279 278 278 277 275 274 275 275 274 274 273 273 273 273 274 275 275 276 276 276 277 280 284
295 294 292 291 290 290 289 288 288 287 285 285 286 284 283 283 283 283 281 278 277 276 277 276 274 273 273 273 273 272 272 271 270 270 270 271 271 272 273 272 273 273 274 275
291 290 290 290 289 289 288 287 286 284 283 284 283 282 282 281 281 281 280 279 276 275 275 274 273 272 271 271 271 270 270 269 268 268 268 268 269 269 269 269 270 271 271 271
290 289 288 288 287 286 286 285 284 282 281 281 281 281 281 280 279 278 277 276 275 274 274 273 272 272 271 270 269 269 268 268 267 266 266 266 267 267 267 267 268 268 269 269
289 288 287 286 286 285 284 284 284 282 281 280 280 280 279 278 277 276 276 275 274 273 273 272 271 271 270 269 268 268 267 267 266 265 265 264 265 265 265 266 266 266 267 267
289 288 287 286 284 283 283 282 282 281 280 280 279 279 279 277 276 275 274 274 273 272 271 271 270 269 269 268 267 267 266 265 265 264 264 263 263 263 263 263 263 264 265 265
289 287 285 285 283 283 283 281 281 280 279 278 277 278 277 276 276 274 273 272 272 271 270 270 269 268 268 267 266 266 265 264 264 263 263 262 262 261 261 261 262 262 263 263
285 283 282 281 280 280 280 279 279 279 278 276 276 276 276 275 274 273 272 271 271 270 269 269 268 267 266 266 266 265 264 264 263 262 262 261 261 261 260 260 260 261 261 261
281 281 280 279 278 278 278 277 277 277 276 275 275 275 274 274 273 271 270 269 269 269 268 268 267 266 265 265 265 264 264 263 262 262 261 261 261 260 260 259 260 260 260 261

GFSNGP_925_thetae_021.txt.gz
Theta_e
314 315 319 319 318 315 316 315 315 315 315 315 313 311 309 309 313 317 318 317 315 315 313 316 316 316 313 311 310 308 307 307 303 301 301 300 299 299 298 297 296 296 295 296
320 317 317 319 317 316 316 316 314 314 314 310 311 310 309 310 309 310 311 312 314 314 313 313 314 315 315 312 309 307 307 304 302 302 301 300 299 297 296 296 295 295 299 296
317 314 314 314 314 315 315 315 315 315 313 311 313 312 310 310 310 310 309 309 309 309 313 313 313 313 314 312 310 309 305 303 302 302 301 299 297 295 295 296 298 299 296 295
312 311 314 315 314 313 313 312 311 311 312 313 312 310 309 308 309 309 308 307 304 303 305 310 313 312 311 309 306 304 302 301 300 299 297 296 296 297 298 298 298 295 294 293
315 314 314 316 312 312 313 314 312 312 312 313 312 311 311 310 307 305 302 300 299 299 301 305 309 310 309 304 302 300 298 297 296 296 297 297 297 298 298 298 296 294 293 292
309 316 316 314 312 312 311 313 312 311 312 312 310 307 311 307 301 299 298 297 297 297 298 299 299 301 300 297 296 295 295 295 296 297 297 297 297 298 297 295 294 293 292 292
306 309 310 309 312 309 313 311 311 311 310 309 311 308 304 299 298 297 297 297 297 297 296 296 297 298 296 295 295 296 296 297 297 297 298 298 298 296 294 293 292 292 292 290
307 307 314 310 312 310 308 311 311 310 309 310 306 303 300 298 298 297 297 296 296 295 295 295 296 296 295 296 296 297 298 299 298 298 298 296 295 294 293 292 292 291 291 290
313 312 310 311 310 310 309 310 309 310 310 308 302 300 298 298 297 296 296 295 295 295 295 296 296 296 295 296 297 297 298 298 297 296 295 293 293 292 292 292 290 290 290 291
313 314 314 312 312 311 311 311 311 311 309 303 299 298 298 298 296 295 294 294 295 295 294 294 295 295 294 294 293 293 292 292 291 291 291 290 290 290 291 291 290 290 290 290
313 316 314 313 310 306 305 303 302 301 300 299 299 298 297 296 295 294 294 294 295 294 293 293 293 292 292 292 292 292 291 291 291 291 291 291 290 290 290 290 290 291 290 290
312 314 312 313 307 305 304 302 301 300 299 298 297 297 296 295 295 294 294 294 293 293 292 291 291 291 291 291 291 291 291 291 290 290 290 290 290 290 291 291 291 291 290 290
313 309 308 304 302 302 301 300 299 298 298 297 296 296 295 294 294 294 294 293 291 290 290 290 290 290 289 288 288 288 287 286 285 285 285 286 286 286 286 288 288 289 289 290
305 305 305 304 302 300 299 298 297 296 296 296 294 294 293 292 292 291 290 290 290 289 288 287 286 285 285 285 285 284 283 283 282 282 282 282 283 283 284 285 286 287 287 288
303 304 303 299 298 297 297 296 296 295 293 293 294 293 291 290 289 288 288 288 287 286 285 284 283 282 282 281 281 280 279 279 280 280 280 280 280 281 281 281 281 282 282 283
301 300 299 298 298 297 296 295 294 293 292 292 291 291 290 289 288 287 287 287 286 283 282 282 280 279 278 278 278 278 278 278 278 278 278 278 278 278 278 278 278 279 280 281
301 300 298 298 297 296 296 295 293 291 290 289 289 288 287 286 286 286 286 284 282 281 280 279 277 277 276 276 276 276 275 275 276 275 275 275 274 274 275 275 276 276 275 275
302 300 298 297 296 294 292 291 289 289 289 288 287 286 286 285 284 284 284 282 280 279 278 277 276 275 275 274 275 273 273 272 272 272 272 271 271 272 272 273 272 272 272 273
299 298 297 295 293 291 290 289 289 288 287 286 285 285 285 285 283 281 280 279 278 278 277 275 274 273 273 273 272 271 271 270 270 269 269 269 269 269 269 269 269 270 270 271
296 294 292 291 289 289 288 288 287 286 285 285 284 283 282 283 282 280 279 276 276 276 276 274 273 272 271 271 271 270 269 268 268 267 267 267 267 267 267 267 267 267 267 268
292 291 290 289 288 288 287 286 284 283 284 284 283 281 281 281 280 279 279 277 275 274 275 273 272 271 270 270 269 269 268 267 266 266 265 265 265 265 265 265 265 265 266 266
290 289 288 288 286 285 285 284 283 282 282 281 281 280 279 278 278 276 276 275 274 274 273 272 271 271 270 269 268 268 267 266 266 265 264 264 263 263 263 263 263 263 264 264
289 288 287 286 285 284 283 282 281 281 280 280 280 280 279 277 276 276 276 274 274 273 272 271 270 269 269 268 267 267 266 265 265 264 263 263 262 262 262 262 261 262 262 262
287 287 285 284 283 283 282 281 280 280 280 279 279 279 278 276 275 274 274 273 272 272 271 270 269 268 268 267 267 266 265 264 264 263 263 262 262 262 261 261 261 261 261 261
286 285 284 284 284 282 282 281 280 279 278 278 278 278 277 276 276 273 272 272 271 270 270 269 268 267 267 266 266 265 265 264 263 262 262 261 261 261 261 261 260 260 260 260
285 283 282 281 281 280 280 280 279 277 276 276 276 276 275 274 273 272 271 270 270 269 269 268 267 267 266 265 265 265 264 263 263 262 261 261 260 261 260 260 260 260 260 260
281 280 279 279 278 277 277 277 277 277 276 275 275 275 274 273 272 271 270 269 268 268 268 267 266 266 265 264 264 264 263 263 262 261 261 260 260 260 260 260 260 260 260 260

GFSNGP_925_thetae_024.txt.gz
Theta_e
313 314 316 317 318 315 315 314 316 316 313 313 312 310 309 307 311 316 317 318 317 316 315 316 317 316 316 314 313 311 308 307 305 305 305 301 300 298 298 297 297 296 295 295
318 317 317 318 316 314 314 314 313 313 313 309 310 309 309 309 309 311 311 310 310 311 311 312 314 316 315 314 312 311 309 307 306 304 302 300 299 298 297 296 296 294 295 298
317 313 315 315 314 315 314 314 314 315 313 309 311 311 310 309 309 308 307 305 304 303 304 307 310 311 312 312 309 306 306 305 305 303 301 299 299 298 296 295 296 298 297 298
310 310 314 315 313 313 313 312 311 312 310 310 310 309 308 307 307 306 303 302 300 299 301 305 309 310 310 308 307 305 303 302 301 300 299 298 296 296 297 298 298 296 297 296
314 314 313 315 312 312 313 312 310 309 311 310 309 309 309 304 301 300 299 298 297 297 298 299 302 303 304 301 301 300 298 298 297 297 296 296 297 298 297 297 297 298 296 293
308 313 315 313 313 309 310 312 309 311 311 311 308 306 309 301 299 297 296 296 296 297 297 297 297 299 298 296 296 295 296 296 296 297 297 297 297 297 297 298 297 294 293 293
304 309 312 311 311 309 313 313 309 311 310 309 309 305 302 298 297 296 296 296 295 295 295 296 296 297 295 295 295 296 297 297 297 298 298 297 298 298 297 296 295 293 292 292
306 308 319 308 311 311 310 309 309 309 308 308 303 299 299 298 297 296 295 295 295 294 294 295 295 296 295 296 297 298 298 298 298 298 298 297 296 295 294 292 292 292 291 291
314 315 311 308 310 307 307 309 309 308 308 306 301 299 298 297 296 295 294 294 294 294 294 295 296 296 295 295 296 296 295 294 293 293 293 292 291 291 290 290 290 290 290 290
312 312 310 310 311 309 309 308 307 308 306 303 300 299 297 296 294 293 293 294 294 293 292 292 292 292 291 291 291 291 291 291 291 291 291 290 290 290 290 290 289 289 289 288
311 315 314 312 311 308 305 303 302 300 299 299 298 297 296 294 293 293 293 293 293 292 290 290 291 291 291 291 291 291 290 290 289 289 288 288 288 287 287 288 288 288 288 288
314 312 311 310 306 304 304 302 300 299 298 297 297 296 295 294 293 293 292 292 291 290 290 289 289 288 288 288 288 287 286 285 284 283 282 282 282 282 282 282 283 284 286 286
312 309 305 303 301 301 300 299 298 298 297 296 295 295 294 293 293 292 291 290 289 289 288 287 286 285 284 284 284 282 281 281 280 280 280 280 280 280 280 280 280 280 281 281
304 305 305 304 302 299 298 297 297 296 295 295 294 293 292 291 290 290 289 288 287 286 285 284 283 282 281 280 280 279 279 279 279 279 278 278 277 278 278 278 278 278 278 278
302 303 303 299 298 296 296 296 295 294 293 293 293 292 291 290 289 288 287 286 285 284 283 282 280 279 278 278 278 277 277 277 277 277 276 275 275 276 275 276 276 276 276 275
300 300 299 298 297 296 295 294 294 293 293 292 292 291 290 288 288 287 287 285 283 281 279 278 277 277 277 276 276 275 275 274 274 274 273 273 273 273 273 273 273 273 273 272
300 299 298 297 296 295 294 293 293 292 292 291 290 288 287 287 287 284 282 281 280 279 277 276 275 275 275 275 275 274 273 272 272 272 271 271 270 270 270 271 270 270 270 270
302 300 299 297 296 294 293 291 291 291 290 289 287 286 286 286 285 282 280 280 279 277 276 275 274 274 274 273 272 272 271 270 270 269 269 268 268 268 268 267 267 267 267 267
298 297 296 294 293 292 291 290 289 287 286 285 285 284 284 283 282 281 279 278 278 278 275 274 273 273 272 271 271 270 269 269 268 267 267 266 266 266 266 265 265 265 265 265
294 293 292 291 290 290 289 287 286 285 285 285 284 283 281 280 280 278 278 276 276 276 275 273 273 272 271 270 270 269 268 267 267 266 265 265 264 264 264 264 263 263 263 263
292 290 289 289 288 287 286 286 285 284 283 284 282 281 280 279 279 278 277 276 275 275 274 273 272 271 270 269 269 268 267 266 266 265 264 264 263 263 263 262 262 262 262 262
290 288 287 287 286 284 284 285 284 283 282 281 281 280 279 277 277 276 276 276 274 274 273 272 271 270 269 268 268 267 266 265 265 264 263 263 262 262 262 262 261 261 261 261
289 288 287 286 285 282 282 282 282 281 280 280 279 279 278 277 277 276 275 274 273 273 272 271 270 269 268 268 267 266 265 265 264 263 263 262 262 261 261 261 261 261 260 260
287 286 285 283 282 281 281 280 280 280 280 279 279 278 277 276 275 274 274 273 272 272 271 270 269 268 267 267 266 266 265 264 263 263 262 261 261 261 261 261 261 260 260 260
285 284 283 283 283 282 281 279 279 279 279 278 277 277 276 276 276 273 273 272 271 270 270 269 268 267 266 266 265 265 264 264 263 263 262 261 261 260 260 260 260 260 260 260
283 282 281 281 280 280 280 279 278 277 277 276 276 276 275 274 274 273 271 270 270 269 268 268 267 266 265 265 264 264 264 263 263 262 261 261 260 260 260 260 260 260 260 260
280 280 279 278 277 278 278 278 277 275 275 276 275 275 274 273 272 271 270 269 268 267 267 267 266 265 265 264 264 264 263 263 262 261 261 260 260 259 259 259 259 259 259 260

GFSNGP_925_thetae_027.txt.gz
Theta_e
314 313 316 317 317 316 318 319 322 321 316 317 317 316 314 311 314 317 318 318 318 320 320 319 318 317 317 316 315 314 312 310 309 308 306 304 301 299 298 298 297 296 295 295
315 315 315 318 317 317 317 315 316 315 316 314 313 311 311 312 315 314 312 311 312 312 312 312 312 315 315 315 314 312 309 308 306 305 304 302 300 299 298 296 296 295 295 294
319 314 316 320 318 317 317 315 318 319 319 313 313 313 311 313 311 310 308 307 306 306 307 308 309 310 311 311 310 308 306 305 304 303 302 300 299 298 297 296 294 294 296 297
319 314 324 319 313 315 317 316 314 313 314 312 313 311 310 310 310 307 305 304 303 302 302 302 303 303 304 305 304 303 302 301 302 301 300 298 297 296 295 295 297 297 296 296
322 320 317 315 314 316 317 317 314 314 312 312 311 312 309 304 304 304 302 300 299 299 299 299 300 300 300 299 299 299 298 298 298 298 297 297 297 297 297 296 296 296 296 296
313 321 323 319 314 311 312 318 313 312 313 313 312 319 315 303 301 300 299 299 298 298 298 298 297 298 298 298 297 297 297 297 297 297 297 297 297 297 297 297 297 297 297 297
313 322 319 314 311 311 319 321 313 312 313 314 314 312 308 301 300 298 298 297 297 297 297 297 297 298 297 297 297 298 298 298 298 298 298 298 297 297 297 296 295 294 292 292
315 321 324 312 309 317 318 311 312 313 314 313 305 303 302 300 299 298 297 296 297 296 296 296 297 297 297 297 297 297 297 297 296 295 295 295 295 293 292 291 291 291 290 290
321 324 317 311 315 312 310 313 311 314 311 307 304 303 301 299 298 297 296 296 296 296 295 294 294 295 294 293 293 292 291 290 290 290 290 290 290 290 290 290 290 290 290 290
318 317 314 313 311 311 309 311 309 311 310 306 304 301 299 298 297 296 296 295 294 293 292 291 291 290 290 290 291 291 290 289 288 288 288 287 287 287 287 287 287 287 287 287
315 313 315 314 312 312 309 309 307 306 306 304 302 300 298 297 296 295 294 293 292 291 291 290 289 288 289 289 289 287 286 285 285 284 284 284 283 283 283 283 283 283 284 283
319 315 317 315 313 308 308 307 305 303 301 301 300 298 297 296 295 294 292 291 290 290 288 287 286 285 285 285 285 285 284 283 282 282 281 281 281 281 280 279 279 279 279 279
315 311 308 305 304 304 304 303 301 301 300 299 297 296 295 295 293 291 291 290 289 288 286 285 283 282 281 281 281 281 281 280 280 280 280 279 279 279 279 279 278 277 277 277
306 308 308 305 307 302 301 299 298 297 297 297 296 295 294 292 291 291 290 288 286 285 284 283 281 279 279 279 279 279 279 277 278 278 277 277 277 277 277 277 276 276 276 275
306 304 306 302 299 298 298 298 297 296 295 295 294 293 292 291 290 289 287 285 284 283 282 281 280 278 278 278 278 277 277 276 276 276 275 275 275 275 275 274 274 274 274 273
301 301 301 301 299 298 298 297 296 296 295 294 293 292 291 290 288 286 284 284 284 281 279 278 278 277 277 277 276 275 274 273 273 274 274 273 273 273 273 273 272 272 272 271
302 300 299 299 298 297 297 296 296 295 294 292 290 289 289 287 285 284 282 280 280 278 277 276 276 276 275 275 275 274 273 272 271 272 272 271 270 271 270 270 270 270 269 269
303 300 300 299 297 295 295 294 293 293 292 290 288 288 287 286 284 282 280 278 277 276 276 275 275 274 273 273 272 272 271 270 270 270 269 269 268 268 268 268 267 268 267 267
299 297 296 295 294 293 292 292 289 287 287 287 287 286 285 283 282 280 279 278 277 277 275 274 273 273 272 271 270 270 269 268 268 268 267 266 266 266 266 266 266 266 265 265
294 293 292 291 291 290 288 287 287 286 285 285 285 283 282 280 280 279 278 278 278 277 274 273 272 271 271 270 269 269 268 267 267 266 265 264 264 264 264 264 263 264 263 263
291 290 290 289 288 287 287 287 286 285 284 285 284 282 281 279 278 277 277 277 276 274 273 273 272 271 270 269 268 268 267 266 265 264 264 263 262 262 262 262 262 262 262 262
289 288 287 287 286 285 285 285 284 283 283 282 281 280 278 277 277 277 276 276 275 274 273 272 271 270 269 268 268 267 266 265 265 264 263 262 262 261 261 261 260 261 261 260
288 287 286 285 284 283 282 282 281 281 280 280 279 279 278 277 277 277 276 274 273 273 272 271 270 269 268 268 267 266 266 265 264 264 263 262 261 260 260 260 260 259 259 259
286 284 283 282 282 282 281 280 280 279 279 279 278 278 277 275 275 275 274 273 272 271 271 270 269 268 268 267 266 266 265 264 264 263 262 262 261 261 260 260 260 259 260 259
284 284 283 282 282 281 280 280 279 279 278 278 277 276 276 276 275 273 272 272 271 270 270 269 268 268 267 266 265 265 264 264 263 263 262 261 261 260 260 259 259 259 259 259
281 281 280 280 280 280 280 279 278 277 277 276 275 275 275 274 273 272 271 270 270 269 268 268 267 267 266 265 265 264 264 263 263 262 262 261 260 260 259 259 259 259 259 259
278 278 277 277 276 276 277 277 276 275 275 275 275 274 273 273 272 271 270 269 268 268 267 266 266 265 265 265 264 264 263 262 262 261 261 260 260 259 259 258 259 258 259 259

GFSNGP_925_thetae_030.txt.gz
Theta_e
317 317 317 318 317 319 320 320 321 320 320 320 319 321 321 318 318 320 322 324 326 327 328 327 326 325 324 323 320 319 319 319 318 317 315 314 312 311 308 305 301 298 297 296
320 318 318 318 318 317 318 318 318 320 321 320 320 320 318 317 319 321 321 321 320 320 319 318 319 320 319 318 316 316 315 314 313 312 310 308 306 302 300 298 297 297 296 296
320 320 320 321 320 319 319 319 319 321 322 320 320 319 319 319 319 318 316 315 315 315 315 315 315 315 315 313 313 312 311 310 309 308 306 304 302 299 297 296 296 295 296 297
322 321 332 320 319 320 319 319 320 320 320 319 319 319 317 318 317 314 313 312 312 311 311 310 310 310 310 309 308 308 307 306 306 305 303 301 300 298 296 296 296 297 297 296
331 324 321 319 318 320 321 321 321 321 320 319 317 316 315 314 314 312 311 310 309 308 308 307 307 307 306 306 305 304 304 303 303 302 302 301 300 300 299 298 298 298 297 297
322 325 330 321 320 319 319 322 320 319 319 318 317 321 319 311 309 308 307 307 306 306 305 305 305 305 305 304 303 303 302 302 301 301 301 301 300 300 299 299 299 298 297 297
326 328 323 321 318 317 322 323 321 320 319 319 319 319 315 309 308 306 305 304 304 304 304 304 304 304 303 302 302 301 301 300 300 300 300 299 299 297 297 296 296 295 295 294
326 330 329 318 316 322 323 322 320 320 319 319 317 313 310 308 306 305 304 303 303 303 303 302 303 303 302 301 300 300 299 298 297 296 295 295 295 294 293 293 293 293 293 293
325 324 323 318 321 320 320 320 319 319 318 318 313 311 309 307 306 305 303 303 302 302 301 301 300 300 299 298 297 296 294 293 293 292 292 292 293 293 293 292 292 292 291 290
322 322 321 320 319 317 316 318 316 317 317 314 313 310 308 306 305 304 302 302 300 299 298 296 296 295 295 294 293 293 292 292 291 290 290 289 289 288 288 287 287 286 286 286
323 321 317 319 319 319 316 315 314 316 315 314 311 309 307 305 304 303 301 299 298 297 296 294 293 293 292 292 291 291 290 288 288 287 286 286 285 284 283 283 281 282 282 282
326 322 322 322 321 318 316 315 315 315 313 312 310 308 306 304 302 301 299 297 296 295 293 292 290 290 289 289 289 288 287 286 284 285 284 284 283 283 281 280 278 278 278 278
320 317 319 314 315 317 315 315 313 313 312 310 308 306 304 303 300 298 297 296 294 292 290 289 288 287 285 285 284 284 284 283 283 283 282 282 282 282 282 281 279 278 277 276
314 313 315 312 315 311 312 311 309 310 308 307 305 303 302 300 297 297 296 294 291 289 287 286 285 284 283 282 282 282 281 280 282 281 281 280 280 280 280 279 279 279 277 275
312 310 310 311 309 308 307 306 306 306 304 303 302 301 299 297 297 295 292 290 289 287 286 284 283 282 281 281 280 280 280 279 279 279 278 277 278 278 278 278 277 277 276 276
308 308 307 308 307 305 305 305 305 303 302 301 300 298 297 296 293 291 289 287 286 285 284 281 281 280 280 280 279 279 277 275 276 277 277 277 276 276 276 276 276 275 275 274
308 307 306 305 304 303 303 302 302 301 300 299 297 296 294 291 289 287 285 282 281 280 280 280 279 278 278 278 278 277 277 276 274 276 275 275 274 275 274 274 274 273 273 272
307 307 306 305 304 302 301 300 299 298 297 294 290 288 287 286 284 282 280 279 279 278 278 277 277 276 276 275 276 275 274 274 274 273 273 273 272 272 272 272 272 272 272 271
304 303 302 302 301 300 299 295 293 291 289 289 288 286 285 284 283 281 279 279 279 278 276 275 275 275 274 273 273 273 273 273 272 272 271 270 271 271 270 270 270 270 270 270
296 297 294 293 292 291 290 288 288 287 287 286 286 284 282 282 281 280 281 281 280 278 275 274 273 273 272 271 271 271 271 271 271 270 270 269 269 269 269 268 268 268 268 268
292 291 290 289 289 288 288 288 288 288 287 287 286 284 281 280 280 279 279 278 276 275 274 273 273 273 272 271 271 271 270 270 270 269 269 268 268 268 268 268 267 267 267 267
289 288 288 288 287 287 286 286 285 284 283 282 281 280 280 279 278 278 278 278 276 275 274 274 272 271 270 270 270 270 269 269 268 268 268 267 267 267 267 266 266 266 265 266
287 286 286 285 285 284 283 282 282 282 281 281 281 281 280 279 279 279 278 275 275 273 273 273 270 270 269 270 270 269 269 268 267 267 267 266 266 265 265 265 264 263 264 264
285 285 284 284 283 283 282 281 280 279 279 278 278 278 279 278 277 276 275 274 273 273 272 270 270 269 268 269 268 268 268 268 267 267 266 265 265 264 264 263 263 262 262 262
284 284 283 283 282 282 281 281 280 280 279 279 278 277 277 276 278 275 274 272 271 272 271 269 268 268 268 268 268 267 267 267 267 266 265 265 264 263 263 263 261 261 260 260
281 281 280 280 281 281 281 280 280 280 279 278 277 276 275 274 273 273 272 271 271 270 270 269 268 267 267 267 266 266 266 266 265 265 264 263 263 262 262 261 260 260 259 259
278 278 278 277 277 277 277 278 278 277 277 277 277 275 274 273 272 272 271 271 270 269 268 268 267 267 266 266 266 266 265 265 264 263 262 262 262 261 261 259 259 258 257 257

GFSNGP_925_thetae_033.txt.gz
Theta_e
320 319 319 318 319 320 322 322 325 324 322 320 320 321 319 322 321 321 321 324 325 328 330 330 330 330 329 328 327 326 325 325 324 322 321 319 317 315 312 308 305 303 300 300
319 318 318 318 318 318 320 320 321 321 321 320 320 320 320 320 321 322 323 325 327 329 329 328 328 327 325 323 321 321 320 319 318 317 316 314 312 309 307 306 303 300 298 299
323 319 319 323 319 319 319 318 319 321 320 319 319 321 321 320 321 323 323 323 323 322 321 320 320 319 318 317 317 316 315 314 313 312 310 308 306 304 303 301 300 299 298 297
326 328 328 321 320 320 320 319 319 318 318 319 321 321 320 320 322 322 321 320 319 318 316 316 315 315 314 313 313 312 311 311 310 308 307 305 304 302 299 298 298 298 298 298
329 325 321 319 320 321 320 320 320 320 320 321 321 321 321 320 321 319 317 317 316 315 314 313 312 311 311 310 309 309 308 307 307 306 305 304 303 303 302 301 301 301 300 299
327 326 327 322 320 320 320 324 320 320 321 321 321 323 321 319 318 316 315 313 313 312 311 311 310 310 309 308 307 307 306 306 305 305 304 303 302 301 300 300 300 299 298 298
330 327 323 320 320 321 325 323 321 321 321 320 320 321 321 317 315 313 312 312 311 311 310 309 309 308 308 307 306 305 304 304 303 302 301 300 300 299 298 298 298 297 297 296
328 330 331 321 321 322 323 322 323 323 320 320 320 320 317 315 313 312 312 310 310 309 309 308 308 307 306 305 304 303 301 301 300 299 298 298 298 296 295 295 295 295 295 294
324 325 324 322 322 322 321 323 324 322 320 320 321 318 315 314 312 311 310 309 309 308 307 307 306 305 305 303 302 300 298 297 295 295 295 295 295 294 294 294 293 292 291 290
324 324 323 323 322 322 323 323 323 321 320 321 321 317 315 313 312 311 310 309 308 306 306 304 303 303 301 300 298 297 296 295 294 293 292 292 291 290 290 289 288 288 287 287
322 321 322 322 323 323 322 321 320 319 320 320 319 316 314 312 311 310 309 307 305 304 302 301 300 298 297 297 296 294 293 292 291 290 289 288 287 286 286 283 282 283 284 283
326 321 325 323 322 323 322 321 319 318 319 319 317 315 313 312 310 309 307 305 303 302 300 298 297 296 295 294 293 292 290 290 289 288 287 287 286 285 283 282 280 278 278 278
321 321 321 322 319 319 321 320 319 318 318 317 316 314 312 311 309 306 304 303 301 299 297 295 294 292 291 290 290 289 289 287 285 286 286 285 285 285 285 282 281 280 278 277
319 318 318 318 319 317 318 318 315 317 317 316 314 312 310 308 305 304 302 301 299 296 294 292 290 288 287 286 285 285 284 284 285 285 284 284 283 283 283 282 282 282 279 278
318 316 316 314 314 314 314 314 314 315 315 313 311 309 307 306 304 302 300 297 294 292 290 287 286 285 284 284 284 284 284 283 283 283 281 280 281 281 281 280 280 280 279 279
315 313 312 313 313 311 311 311 312 312 311 309 308 307 304 302 300 297 295 292 290 288 284 283 283 283 282 282 282 281 279 278 280 280 280 279 279 279 279 279 279 278 278 278
314 315 313 312 311 309 309 309 308 308 307 306 305 302 300 296 291 286 284 283 282 281 281 281 281 280 280 281 281 281 280 278 277 279 278 278 277 277 277 277 277 276 276 275
310 310 311 311 310 308 306 306 305 304 303 298 293 291 288 286 285 283 281 280 279 279 279 278 278 277 277 278 278 278 277 277 277 276 276 276 275 275 275 275 275 275 275 274
306 307 306 306 306 304 302 298 294 291 290 289 288 286 284 283 281 281 280 280 279 279 278 277 276 276 275 274 275 276 275 275 275 275 274 273 274 274 274 274 273 273 273 273
294 293 292 292 291 291 291 290 289 288 287 286 285 284 283 282 281 282 282 282 281 278 277 275 275 275 273 272 273 274 274 274 274 273 273 272 273 272 273 272 272 272 272 272
290 290 289 289 289 289 289 289 288 288 287 286 285 284 283 282 281 280 280 278 277 276 275 275 275 274 273 273 273 274 273 273 273 273 273 272 272 272 272 271 271 271 271 270
288 288 287 287 287 286 286 285 284 283 283 282 281 281 281 280 279 279 279 278 276 276 276 275 274 272 272 271 273 273 273 272 272 272 272 271 271 270 270 270 269 269 269 268
287 286 285 285 284 283 282 282 282 282 282 282 282 281 281 281 281 280 279 277 276 275 275 274 271 270 270 272 272 272 272 271 271 271 270 270 270 269 269 268 268 267 267 267
285 285 284 284 283 283 283 281 281 280 279 279 280 280 280 279 278 277 276 275 274 275 274 272 270 269 269 271 271 271 270 270 270 270 270 269 268 268 268 267 266 266 266 265
284 284 284 284 284 284 283 282 282 281 280 280 279 279 278 278 279 277 276 274 273 274 273 271 269 269 270 270 270 270 269 269 269 268 267 267 267 267 267 266 265 265 264 263
282 281 281 281 282 282 282 281 281 281 281 280 279 278 277 276 276 275 274 273 273 272 272 271 270 269 270 270 269 268 268 268 268 267 267 266 266 266 266 265 264 263 263 262
280 280 280 279 279 278 278 279 279 278 277 279 278 277 276 275 274 274 273 273 272 272 271 271 270 269 268 268 267 268 267 267 266 266 265 265 265 264 264 263 263 262 261 260

GFSNGP_925_thetae_036.txt.gz
Theta_e
321 320 321 321 321 320 321 328 329 327 327 326 324 322 322 323 323 322 321 322 323 329 330 330 330 330 331 331 330 329 329 327 325 323 322 321 319 318 315 312 311 309 306 304
323 321 320 320 320 320 320 320 320 322 323 322 323 322 321 321 322 322 322 323 324 326 331 331 330 330 329 327 326 326 325 323 322 321 320 317 316 314 312 308 306 303 302 301
325 322 320 321 320 320 320 320 321 322 323 322 321 321 320 322 320 321 323 325 327 329 330 330 328 326 324 322 321 320 318 317 316 315 312 310 308 307 306 304 302 300 299 299
326 325 325 320 320 319 319 319 320 320 319 319 320 319 322 321 322 322 324 325 325 323 323 322 321 319 318 318 316 315 314 313 312 310 308 306 304 302 301 300 299 299 298 298
327 326 322 319 320 320 321 321 320 320 320 319 319 319 323 321 321 323 323 322 321 319 319 317 316 315 314 313 312 312 311 310 308 307 306 304 302 301 301 300 300 300 299 299
328 327 327 323 321 320 320 322 321 320 321 321 321 326 324 321 323 321 320 318 317 316 315 314 313 312 311 310 309 309 308 308 307 306 305 304 302 302 301 300 300 299 299 299
328 328 326 322 320 319 324 324 323 323 322 323 324 325 323 321 320 318 317 316 315 314 313 312 311 310 310 309 308 307 307 306 305 303 302 301 301 301 300 299 298 297 297 297
329 327 327 322 320 322 324 327 325 324 324 322 322 323 321 319 318 317 315 314 313 313 312 311 310 309 308 307 306 305 304 303 302 301 301 300 299 299 299 297 296 296 295 295
324 327 325 321 321 323 325 326 325 324 325 323 324 321 319 318 316 315 314 313 312 311 310 310 309 308 307 305 304 303 302 301 299 298 298 297 296 295 295 294 293 291 290 290
317 322 322 324 324 323 323 324 323 323 324 323 324 320 318 316 315 314 313 312 311 310 309 309 308 307 305 304 302 300 298 297 296 294 294 293 291 291 290 289 288 288 288 287
320 317 315 318 320 323 324 323 323 322 321 322 323 320 317 315 314 313 312 311 310 309 308 307 305 303 302 300 299 297 296 294 292 291 290 289 287 287 287 283 284 285 284 283
321 320 322 322 320 322 322 320 323 321 320 320 322 319 317 315 313 312 311 310 308 307 305 303 301 300 299 297 296 294 293 291 290 289 289 288 286 284 283 282 281 280 279 278
318 321 322 321 320 321 320 320 321 321 320 320 320 318 315 313 312 311 309 307 305 303 301 299 298 296 295 294 292 291 289 288 288 287 287 286 286 286 283 281 281 281 280 279
318 318 320 320 320 318 317 318 319 318 318 319 317 315 314 312 310 309 306 305 302 299 297 294 291 290 289 288 288 287 286 287 286 285 285 285 284 283 283 283 283 282 280 279
318 318 318 315 314 315 314 316 317 317 317 317 316 314 312 309 307 306 303 301 298 295 291 288 287 286 286 285 285 285 284 284 284 283 282 282 281 281 281 281 281 281 280 279
314 315 314 314 314 314 312 312 313 316 316 314 312 310 308 306 303 300 297 295 292 288 285 284 283 283 282 282 281 280 281 281 282 281 280 280 280 280 280 279 279 279 278 278
313 313 313 314 315 313 311 311 312 312 311 309 306 302 291 288 286 285 284 283 283 282 281 281 280 280 281 281 282 281 280 278 279 279 279 278 278 278 277 277 277 277 277 276
307 308 307 310 312 310 307 302 297 296 294 290 288 287 287 285 284 282 281 281 280 279 279 278 278 279 279 279 279 278 278 278 277 277 277 277 276 275 276 276 276 276 275 274
297 297 296 296 297 295 293 292 291 289 288 287 285 284 283 282 281 281 280 280 279 278 277 277 276 276 275 276 276 276 276 276 276 276 275 274 275 275 275 274 274 273 273 273
291 290 290 290 289 289 288 287 287 286 285 284 283 283 282 282 282 281 280 279 278 277 276 276 275 274 274 274 275 275 275 275 275 275 274 273 273 273 272 273 273 273 272 272
288 288 287 286 286 285 286 285 285 285 284 283 283 282 281 281 280 279 278 277 276 276 276 275 275 274 273 274 274 274 274 274 274 274 273 273 273 273 272 272 272 271 271 270
286 286 285 285 285 284 284 283 283 282 282 281 281 281 280 280 279 278 277 276 276 276 276 274 273 273 272 273 274 274 273 273 273 272 272 272 272 271 271 270 270 269 269 268
286 285 284 283 283 282 282 281 281 281 281 281 281 280 280 280 280 279 278 277 276 276 275 273 271 271 271 273 273 272 272 272 272 272 271 271 270 270 269 269 268 268 267 267
285 284 284 283 283 282 282 281 281 280 280 280 280 280 280 278 277 276 276 275 275 274 273 272 270 270 270 272 272 271 271 270 270 270 270 269 269 269 268 268 267 267 266 266
283 283 283 283 283 283 283 282 281 281 280 279 279 278 277 278 277 276 274 274 273 274 272 271 270 270 271 271 270 270 269 269 269 268 268 268 267 267 267 267 266 266 265 264
281 281 280 279 280 281 281 280 279 280 280 279 278 277 276 276 276 275 274 273 272 273 272 272 270 269 270 269 268 268 268 268 268 267 267 266 266 265 265 265 265 264 263 263
278 279 278 278 278 277 276 276 277 276 276 278 277 276 276 276 275 274 274 273 272 272 271 270 270 269 269 268 268 267 267 267 266 266 265 265 264 264 263 263 263 262 261 261

GFSNGP_925_thetae_039.txt.gz
Theta_e
317 318 320 321 321 321 320 321 324 325 325 323 322 321 320 320 319 320 319 317 322 323 323 325 329 330 329 330 330 330 330 329 327 326 325 323 321 320 319 316 315 315 314 310
320 318 319 320 321 320 319 319 323 323 323 321 321 319 321 319 319 318 317 317 319 325 326 327 328 328 327 327 326 328 326 324 323 322 321 319 318 317 313 311 310 309 306 306
320 319 319 319 319 319 320 319 319 322 322 321 320 320 320 319 319 317 317 318 320 327 327 327 327 326 324 324 323 322 321 320 319 318 317 316 315 312 310 308 305 303 302 302
318 320 324 319 318 318 318 318 317 317 317 317 317 317 317 319 318 316 319 322 325 323 322 324 324 323 322 320 319 318 315 313 312 311 309 308 307 306 305 303 301 300 299 299
322 322 322 321 318 318 318 317 318 317 317 316 315 315 319 317 317 318 320 319 318 320 320 320 320 319 317 316 315 313 312 311 309 308 305 303 302 302 301 299 299 298 298 298
321 323 324 321 318 318 319 318 318 318 318 317 316 316 316 318 318 318 317 317 316 316 316 317 316 316 314 312 312 310 309 308 306 305 303 301 300 299 299 299 299 298 298 298
317 320 319 320 318 319 320 318 319 318 319 319 318 317 316 317 316 316 315 314 315 314 312 313 313 312 310 309 308 308 307 306 304 304 303 302 301 301 300 300 299 299 298 297
320 321 323 317 319 319 317 317 319 318 319 318 318 317 318 316 315 314 313 312 312 311 310 311 311 309 307 307 307 306 305 304 303 302 301 301 301 300 299 298 297 296 294 293
321 320 318 315 318 317 319 321 321 319 318 319 318 317 316 315 313 313 312 311 311 310 309 310 309 308 305 304 304 303 302 301 301 301 300 299 299 298 298 297 295 293 292 288
315 314 316 314 317 318 321 321 321 319 319 318 318 316 314 313 312 311 309 309 309 309 308 307 307 306 304 304 303 302 301 300 299 298 296 293 293 293 291 290 289 289 287 286
317 315 316 316 318 320 320 320 320 319 319 318 317 316 315 313 311 309 309 309 309 308 306 305 305 304 303 303 301 298 296 295 293 292 290 289 289 288 288 286 287 287 285 285
316 316 317 318 319 317 316 321 320 320 319 317 316 315 313 311 309 309 307 307 306 305 302 302 302 301 300 299 297 294 292 291 290 289 287 287 286 283 282 282 281 280 280 279
315 316 314 313 316 317 318 318 317 317 318 318 316 312 311 310 308 308 307 305 303 300 299 297 293 294 295 295 293 291 289 288 287 287 287 286 284 283 281 280 281 281 281 280
314 315 318 316 316 314 314 313 314 314 315 316 314 311 309 308 306 306 304 301 298 293 290 288 288 288 289 290 290 288 287 286 285 285 284 284 283 283 283 282 282 281 280 279
311 312 313 312 312 312 311 310 311 311 312 311 310 309 307 305 303 300 298 292 289 287 285 284 284 284 286 286 286 285 284 284 283 283 282 282 282 281 281 281 281 280 280 278
309 309 309 310 311 310 309 308 310 308 307 307 302 296 295 292 291 290 288 286 284 282 282 282 282 282 283 284 283 283 282 282 281 281 280 280 280 280 279 279 279 278 278 277
305 304 304 304 307 300 298 297 295 294 292 290 289 288 287 285 283 283 282 281 280 280 279 279 280 282 282 283 282 280 279 279 280 279 279 278 278 277 277 277 277 277 276 275
299 298 298 298 298 296 293 291 290 289 287 286 285 284 283 282 282 281 280 280 280 279 279 280 280 280 279 279 279 278 278 278 278 277 277 277 276 275 276 275 275 275 274 274
292 292 292 291 290 290 288 287 286 284 284 283 282 282 281 281 281 280 279 278 278 277 276 277 277 277 277 277 277 276 276 276 276 275 275 275 275 275 274 274 274 273 273 273
287 286 286 286 286 286 286 284 284 283 283 283 281 280 279 279 278 278 277 277 277 276 276 276 275 275 275 275 275 275 275 275 275 275 274 274 273 273 273 273 272 272 271 271
285 285 284 284 283 283 282 282 282 282 281 281 281 280 279 279 278 277 277 277 276 276 275 275 274 273 274 274 274 274 274 273 273 273 273 273 273 272 272 271 271 270 269 269
283 283 282 282 282 282 282 282 282 281 281 281 280 279 278 278 277 277 276 276 276 275 274 273 273 272 273 274 273 273 273 272 272 272 272 271 271 271 270 269 269 268 268 267
283 283 282 282 281 281 281 280 280 280 280 280 279 278 279 279 278 277 276 276 275 274 272 271 271 271 272 272 272 271 271 271 270 270 270 269 268 268 268 268 267 267 267 266
284 283 282 282 281 281 281 280 280 279 279 278 279 278 277 276 276 275 275 274 273 272 271 271 270 271 271 271 270 270 269 269 269 268 268 268 267 267 266 266 266 266 266 265
280 279 280 281 280 280 280 280 279 278 278 277 277 276 276 275 275 274 273 273 273 272 271 270 270 270 269 269 268 268 268 268 268 267 267 266 266 265 265 265 264 264 264 263
278 278 277 277 276 276 277 276 276 277 277 277 276 275 275 274 274 273 273 272 272 271 270 270 269 269 268 268 268 267 267 266 266 265 265 265 264 263 263 263 262 262 262 261
276 276 276 276 275 274 273 274 274 273 274 274 273 273 273 272 272 271 271 271 270 269 269 268 268 267 267 266 266 266 265 265 265 264 263 263 262 262 262 261 261 260 260 260

GFSNGP_925_thetae_042.txt.gz
Theta_e
322 321 317 317 319 319 319 319 320 319 321 321 319 319 319 317 316 317 315 314 319 320 319 321 326 329 330 326 326 326 326 324 323 325 324 327 325 323 323 323 321 319 318 315
319 320 318 317 317 318 319 319 318 318 320 320 320 319 318 317 317 317 316 314 318 321 321 325 326 326 328 329 329 329 328 328 326 324 323 322 322 322 320 318 317 314 312 311
318 318 318 317 317 317 320 318 320 321 320 319 319 319 318 318 318 317 315 314 313 321 323 325 326 325 325 326 327 325 324 322 320 320 318 318 318 317 315 312 311 310 309 307
317 317 325 319 316 316 318 317 316 316 316 317 319 319 316 316 318 316 314 313 318 322 323 325 324 322 322 323 322 320 318 318 318 316 313 312 311 309 308 307 308 305 303 303
317 320 320 319 318 317 317 317 316 316 315 314 314 313 316 315 316 316 313 315 320 324 322 322 321 318 318 316 315 314 312 311 310 311 310 310 308 307 305 303 301 300 300 300
315 316 323 318 317 317 317 317 315 316 316 315 315 314 312 314 314 315 316 318 317 319 320 318 316 317 314 312 311 310 309 308 308 308 307 306 305 303 302 300 299 299 298 298
315 316 319 319 316 317 321 319 317 317 316 315 314 313 313 314 317 316 317 315 316 317 317 314 315 315 310 310 308 308 308 306 305 305 303 302 300 299 298 298 298 297 297 297
315 317 320 317 318 321 318 318 321 320 317 317 315 316 315 316 315 314 313 312 313 312 310 311 312 312 307 307 307 307 306 305 303 302 301 300 300 299 299 298 297 296 295 292
315 315 317 317 318 316 318 320 320 318 318 317 316 316 315 315 314 313 313 311 311 309 307 308 309 309 305 303 305 305 304 302 302 301 301 300 300 299 298 297 296 290 289 285
317 315 315 315 315 317 316 318 318 318 318 317 317 316 315 313 312 311 309 308 308 307 306 305 306 305 305 303 303 303 301 301 300 300 299 299 298 298 296 294 292 289 286 283
315 314 314 314 315 316 314 318 318 316 318 317 318 316 314 313 311 310 307 308 308 306 304 303 304 303 302 303 303 301 300 297 295 294 293 290 290 289 289 288 290 289 287 285
314 312 311 312 314 314 314 317 318 317 318 317 317 316 313 311 309 308 306 306 304 303 302 301 300 300 301 302 302 298 292 289 288 288 286 284 283 281 281 282 283 284 283 283
312 311 313 314 312 314 316 315 319 317 316 315 317 314 311 308 307 305 305 303 301 295 292 293 293 293 295 296 295 291 288 287 286 286 285 283 282 282 281 281 281 281 280 279
306 311 314 312 312 310 311 310 312 312 312 311 312 310 308 306 304 302 298 292 290 288 287 287 287 287 289 290 289 287 286 286 285 285 284 284 283 282 282 282 281 281 280 279
303 305 306 308 306 305 306 308 305 302 301 301 305 305 303 299 293 291 288 287 285 285 284 284 284 283 285 286 285 284 283 282 282 282 282 282 282 282 281 281 281 280 279 278
303 302 303 301 299 298 298 297 296 294 292 292 290 289 288 287 285 284 284 284 283 283 283 282 282 282 284 285 285 285 283 282 282 281 281 281 280 280 279 279 279 278 278 277
301 301 300 300 296 294 292 291 290 289 287 286 286 284 283 282 282 281 281 281 281 281 281 281 281 283 283 283 282 281 280 280 280 279 279 278 278 277 277 277 277 276 276 275
295 294 294 294 293 291 289 287 286 285 285 284 283 282 282 282 281 280 279 278 278 277 278 279 280 280 280 280 279 279 278 278 277 277 276 276 275 275 275 275 275 274 273 273
288 288 288 288 287 286 286 285 284 283 283 282 282 281 280 279 279 278 278 277 277 276 275 277 277 277 277 277 277 276 276 276 276 275 275 274 274 274 273 273 273 273 272 272
285 284 284 283 283 283 283 282 282 281 280 280 279 279 278 277 277 277 276 276 276 275 275 275 275 275 275 275 275 275 275 274 274 273 273 273 273 272 272 272 271 271 270 269
283 283 283 282 282 282 281 281 281 280 280 279 279 278 278 277 277 277 276 275 274 274 274 274 274 274 274 274 273 273 273 272 272 272 272 271 271 271 270 270 269 269 268 268
282 282 281 281 281 281 280 280 280 280 279 279 278 278 277 277 277 276 275 273 273 273 272 272 272 273 272 272 272 271 271 271 270 270 269 269 268 268 268 268 267 267 267 266
282 281 281 280 280 280 279 279 278 279 278 277 276 276 276 276 276 275 274 272 272 271 271 271 271 271 271 270 270 269 269 269 268 268 268 267 267 266 266 265 265 265 265 265
280 281 280 280 280 279 279 278 278 277 277 277 276 275 275 274 273 273 272 272 271 270 270 270 270 269 269 268 268 268 268 267 267 267 266 266 265 265 264 264 264 264 263 263
278 277 277 278 278 277 278 278 277 276 276 275 274 274 274 273 273 272 272 271 271 270 270 269 269 268 267 267 267 267 266 266 265 265 265 264 264 263 263 263 262 262 261 261
277 276 275 274 274 274 274 274 275 275 274 273 272 272 272 272 272 272 271 270 269 269 268 268 267 267 266 266 266 265 265 264 264 264 263 263 262 262 262 261 261 260 260 259
273 273 273 273 272 272 272 272 271 271 270 270 269 270 270 270 270 269 269 268 268 267 267 266 265 265 264 264 264 264 264 263 263 262 262 261 261 261 260 260 260 259 258 258

GFSNGP_925_thetae_045.txt.gz
Theta_e
319 316 317 317 321 320 317 316 318 318 318 317 317 318 316 316 315 314 312 314 316 316 316 316 319 320 321 322 324 324 324 325 324 324 325 325 325 326 324 323 323 323 322 319
317 316 315 316 316 317 318 316 316 316 317 316 317 316 316 316 315 314 314 313 314 316 316 318 320 322 322 321 322 323 324 325 325 325 325 326 326 326 325 323 322 321 318 317
315 314 315 314 317 316 317 316 317 319 317 316 317 317 317 317 315 315 314 313 312 314 318 319 323 325 326 327 325 324 324 324 323 323 323 323 322 321 320 317 316 315 314 313
315 313 314 310 313 312 316 316 316 316 316 317 316 315 315 316 317 316 315 313 311 311 316 321 325 325 325 325 327 326 324 324 323 322 320 318 317 315 314 314 314 313 311 311
312 314 313 310 313 316 315 318 316 315 315 314 314 312 311 312 313 315 315 314 313 313 317 322 324 323 323 322 322 321 319 319 318 317 313 312 312 312 312 312 310 308 308 307
315 312 311 307 313 314 317 321 316 319 315 315 314 314 313 311 312 312 311 310 314 318 320 320 319 321 318 315 316 315 315 314 315 315 314 313 312 309 307 306 304 304 302 301
316 316 312 312 315 317 322 319 317 320 319 317 314 314 313 311 309 312 312 315 317 318 318 317 317 317 313 311 311 312 313 313 312 313 314 312 308 305 302 300 299 297 296 296
315 317 316 313 318 319 317 315 318 320 318 317 316 312 313 311 312 314 314 314 316 314 312 313 314 314 309 308 307 308 309 308 308 308 307 306 304 299 298 297 294 291 291 290
312 312 312 317 318 316 315 317 318 318 317 317 315 313 313 313 313 313 313 311 313 310 307 309 311 311 305 303 305 305 304 302 302 301 301 300 299 297 296 294 290 288 287 285
312 312 312 312 313 314 315 317 316 316 316 316 315 314 314 311 310 310 308 308 308 307 305 304 307 308 305 303 303 303 300 299 298 298 297 297 297 296 295 292 289 287 285 283
311 312 313 313 313 314 315 316 314 316 315 316 316 316 314 312 310 308 306 307 306 305 303 301 303 303 303 302 302 298 295 294 294 295 295 293 291 291 292 291 292 290 287 285
310 313 312 313 311 313 315 314 315 316 315 314 315 317 314 310 309 307 305 304 302 301 300 299 299 299 299 300 300 296 291 289 289 288 286 285 284 282 284 286 287 287 286 285
309 306 307 309 312 309 312 311 314 314 311 311 311 314 310 307 306 301 298 295 294 293 292 292 292 292 294 296 297 295 289 287 285 284 283 282 282 281 281 281 281 280 279 279
302 305 311 309 307 302 301 304 300 298 296 298 306 307 304 298 294 293 291 289 288 287 287 287 287 286 288 290 290 287 285 285 284 284 283 283 282 282 282 281 280 280 280 279
300 302 302 302 299 296 296 296 294 293 291 290 290 291 291 289 287 286 286 285 285 284 284 284 284 283 283 284 284 283 283 283 283 283 283 283 282 282 282 282 281 280 279 278
298 301 300 299 296 293 292 291 290 289 288 286 285 284 284 283 283 283 283 283 283 283 283 282 283 284 285 286 286 284 283 282 282 282 281 281 281 280 280 279 279 279 278 277
298 299 296 297 294 291 289 288 288 286 285 285 284 283 282 282 281 280 280 279 279 279 279 280 280 282 283 283 282 281 280 280 280 279 278 278 277 277 277 277 276 276 275 275
292 290 289 290 289 288 287 286 285 285 284 283 281 281 281 280 280 279 278 277 277 277 277 278 279 280 280 280 279 278 278 277 277 276 276 276 275 275 275 274 274 274 273 273
286 286 286 285 285 284 284 283 282 281 281 280 279 279 278 278 277 277 276 276 276 275 275 276 277 277 276 277 277 276 276 275 274 274 274 274 273 273 273 273 272 271 271 270
284 283 283 282 282 282 282 281 280 280 279 279 278 277 277 276 275 275 274 274 274 274 274 275 275 275 274 274 274 274 274 273 273 272 272 272 272 271 271 270 270 269 269 268
282 281 281 280 280 280 280 279 279 278 278 277 277 277 276 276 275 274 274 273 272 273 274 274 273 273 273 273 272 272 272 271 271 270 270 270 269 269 268 268 268 267 267 267
281 280 280 279 279 279 278 278 278 277 277 277 277 276 275 274 273 272 272 272 271 272 272 272 272 271 271 270 270 270 269 269 268 268 268 268 267 267 266 266 266 266 266 265
281 280 279 279 278 278 277 277 277 276 276 275 275 274 274 274 273 272 271 271 271 271 270 270 269 269 269 269 268 268 268 268 267 267 266 266 265 265 264 264 264 264 264 263
278 278 278 278 278 277 277 276 275 275 275 274 273 273 273 272 271 270 270 270 270 269 269 268 268 268 267 267 267 266 266 266 265 265 265 264 264 263 263 262 262 262 261 261
276 275 275 276 276 276 276 275 274 273 272 272 272 272 272 271 270 270 270 269 269 269 268 267 267 266 266 266 265 265 265 264 264 264 263 263 262 262 261 261 261 260 260 259
274 273 272 272 272 272 272 272 271 271 270 270 270 271 271 270 270 269 269 268 268 267 266 266 265 265 265 264 264 264 264 263 263 262 262 261 261 261 260 260 259 259 259 258
271 272 271 271 271 271 271 271 269 268 269 269 268 269 269 269 268 268 267 267 266 265 265 264 264 263 263 263 263 262 262 262 261 261 261 260 260 260 259 259 258 258 258 257

GFSNGP_925_thetae_048.txt.gz
Theta_e
320 320 317 316 315 315 315 317 317 317 315 314 314 315 315 314 314 313 312 310 312 312 315 316 319 320 321 322 321 320 319 318 318 319 319 319 319 319 320 321 322 322 322 321
316 318 317 315 314 314 316 317 316 316 315 312 314 313 313 314 314 314 312 312 311 313 313 313 316 318 320 321 322 322 322 321 320 320 320 321 321 321 322 322 322 322 322 322
315 314 313 313 312 314 314 312 315 316 315 314 314 314 314 314 314 314 313 312 311 311 314 314 315 317 318 319 320 322 322 322 322 322 322 322 322 323 323 322 322 322 322 320
312 312 314 308 311 312 311 313 314 313 313 315 315 315 314 313 314 314 313 313 311 309 310 316 318 318 319 320 319 320 321 322 323 323 322 322 322 321 320 320 319 319 317 314
309 313 311 309 308 309 314 309 313 311 314 318 316 310 311 311 311 313 313 312 312 313 312 314 317 321 322 323 323 322 321 321 322 320 319 318 318 317 316 315 311 310 309 309
312 311 308 306 311 315 315 312 315 317 319 318 318 314 315 311 310 309 309 309 309 310 312 315 319 321 321 320 322 320 320 318 319 320 319 315 313 310 308 307 305 304 303 303
313 315 310 309 311 315 315 310 314 314 314 316 317 315 313 314 313 309 309 308 313 316 316 318 318 320 316 316 317 315 316 316 316 315 314 311 307 305 303 302 300 297 297 296
313 315 312 309 317 314 312 313 313 312 315 316 315 315 315 312 310 309 312 314 315 314 313 315 316 316 312 308 309 312 312 311 308 308 306 304 303 299 298 297 294 292 293 291
310 310 308 313 315 315 313 312 314 314 313 314 314 315 314 311 311 310 310 309 310 308 307 310 312 311 305 303 307 307 306 303 303 302 301 299 299 295 294 293 291 289 288 286
309 308 309 308 309 310 313 314 315 313 313 313 315 314 314 310 309 308 306 306 306 306 304 303 307 308 305 305 306 305 299 298 298 298 296 296 296 294 291 290 289 288 286 284
309 308 309 309 311 311 311 312 314 313 313 312 314 314 313 311 308 306 304 304 304 302 301 301 301 301 302 302 304 299 296 295 294 294 294 292 291 291 290 290 291 290 288 285
307 307 309 309 309 304 308 308 308 313 313 313 308 309 311 306 304 304 302 300 298 297 296 295 294 295 297 298 300 296 291 290 290 289 288 287 286 285 286 288 289 289 286 286
308 303 303 304 305 300 301 301 301 300 297 297 302 304 302 299 295 294 293 293 292 290 289 288 289 289 292 293 294 291 287 287 285 285 284 283 282 282 281 281 282 283 282 281
302 302 306 304 302 297 296 296 295 293 291 290 291 291 290 289 288 288 287 287 287 286 286 285 285 285 286 288 288 285 284 284 284 283 283 282 282 282 282 281 280 280 280 280
298 298 301 299 295 293 292 292 291 289 287 287 286 286 286 286 286 285 285 285 285 284 284 284 284 284 284 284 284 284 284 283 283 283 283 283 283 282 282 281 280 279 278 278
295 297 297 297 293 291 290 289 288 287 286 285 284 283 283 282 282 281 281 281 282 282 281 281 281 282 284 284 283 283 282 282 282 282 281 281 280 280 280 280 279 279 277 276
293 295 292 293 291 288 287 287 286 285 285 284 283 282 282 281 280 279 279 278 278 278 278 278 278 280 281 282 281 279 279 279 279 278 278 278 277 277 277 276 276 275 274 274
288 288 287 287 287 286 285 284 283 282 282 280 279 278 278 278 278 277 277 276 276 276 277 277 277 278 279 279 278 277 277 276 276 276 275 275 275 275 274 274 274 273 272 271
284 284 284 284 283 283 282 282 280 279 279 278 277 276 276 275 275 275 275 275 275 275 275 275 276 276 276 276 276 275 275 274 274 273 273 273 272 272 272 271 271 270 270 269
282 282 281 281 280 280 279 279 278 278 277 277 276 275 275 274 274 273 273 273 273 274 274 274 274 274 274 274 274 273 273 272 272 271 271 270 270 269 269 269 268 268 267 267
280 280 280 279 278 278 278 278 278 277 276 275 274 274 273 273 273 273 273 272 272 272 272 272 272 272 271 271 271 271 271 270 270 269 269 268 268 267 267 266 266 266 266 266
279 279 279 278 278 277 277 276 276 276 276 275 274 274 273 272 272 271 271 271 270 271 270 270 270 270 269 269 269 269 268 268 267 267 266 266 265 265 265 264 264 264 264 264
279 278 278 277 277 276 275 275 274 274 274 273 273 272 272 272 271 271 270 269 269 268 268 268 268 267 267 267 267 267 266 266 266 265 265 264 264 263 263 263 262 262 262 261
277 278 277 277 276 276 275 274 274 273 273 272 272 271 270 270 269 268 268 268 268 268 267 267 267 266 266 266 265 265 265 264 264 264 263 263 262 262 262 261 261 261 260 260
275 275 275 275 275 275 274 273 272 271 271 270 270 270 269 269 269 268 268 267 267 267 266 265 265 265 265 265 264 264 264 263 263 262 262 262 261 261 260 260 260 259 259 259
273 272 272 271 271 271 271 270 269 270 269 268 268 269 269 269 268 268 267 266 266 265 264 264 264 263 263 263 263 263 262 262 262 261 261 260 260 260 259 259 259 259 258 258
270 271 270 270 270 270 270 269 269 267 269 268 267 267 267 267 267 266 266 265 264 264 264 263 263 262 262 262 262 262 261 261 261 260 260 260 259 259 259 258 258 258 258 257

GFSNGP_925_thetae_051.txt.gz
Theta_e
316 316 318 317 315 314 315 316 317 316 319 318 318 318 318 317 317 317 317 317 314 316 319 321 322 322 322 322 319 317 316 316 316 316 315 316 317 317 317 317 317 318 318 319
317 317 317 316 314 314 314 314 315 317 318 317 317 315 315 316 316 316 317 318 316 314 315 318 319 321 322 322 321 319 318 317 317 316 317 316 316 317 317 318 318 319 319 319
315 314 313 314 314 314 313 313 314 314 313 315 316 316 318 317 316 316 317 317 317 316 314 316 316 318 321 322 322 321 320 320 319 318 318 318 319 318 318 319 320 321 321 321
315 313 314 310 310 311 312 312 312 313 314 314 314 317 318 318 315 316 316 316 317 316 316 315 316 317 318 320 321 321 322 322 321 321 320 321 321 321 321 321 321 321 321 321
315 314 312 310 309 309 310 309 312 316 317 317 317 317 318 314 313 315 315 314 315 315 315 314 314 315 317 318 319 320 321 322 322 322 322 322 322 321 321 321 320 318 315 314
314 313 313 308 313 315 314 313 315 316 315 315 317 320 320 318 316 317 316 316 314 312 312 312 313 315 319 320 319 319 320 320 321 321 320 320 320 318 315 313 310 307 306 306
315 314 313 310 310 312 314 313 313 315 315 316 317 316 315 316 316 315 313 313 311 311 312 315 315 318 320 322 322 319 317 318 318 319 318 318 314 310 307 304 301 299 298 296
314 315 314 309 316 316 313 314 314 314 315 316 315 314 314 315 316 313 312 312 314 316 315 314 316 318 318 314 311 315 316 314 312 312 310 308 306 300 298 297 294 291 291 289
313 313 310 310 314 315 312 314 315 314 315 315 314 314 315 315 315 311 310 310 310 311 311 311 312 311 307 306 309 308 306 302 302 300 299 299 298 294 293 293 291 289 287 285
309 310 310 310 309 310 308 311 311 312 314 314 315 314 314 313 312 309 308 307 307 307 307 305 306 307 305 305 305 303 298 296 296 295 294 294 294 294 292 291 290 288 286 284
310 309 310 310 309 306 306 306 306 306 309 304 305 306 308 310 304 304 303 302 302 301 300 299 299 299 300 300 300 295 293 292 291 290 290 289 289 290 290 290 291 290 287 285
311 307 306 307 307 303 302 302 301 300 301 298 298 298 300 296 295 294 294 295 295 294 294 293 292 292 293 294 294 294 292 291 290 289 288 287 285 284 285 287 289 289 286 285
306 303 304 305 304 298 298 297 297 295 293 293 293 292 292 291 290 289 289 289 289 288 287 287 289 288 289 290 290 289 288 287 286 286 285 284 283 283 282 281 281 282 282 281
301 301 306 303 300 295 294 294 292 290 289 288 289 288 288 288 287 287 286 286 286 286 285 285 285 285 285 286 286 285 284 285 284 284 283 283 283 283 282 282 282 281 280 279
295 296 297 299 294 292 291 291 290 288 287 286 285 285 285 285 284 283 283 283 282 282 282 283 283 283 284 285 284 284 284 283 283 283 283 283 283 283 282 282 281 279 278 277
292 294 296 295 291 289 289 289 289 287 286 285 284 283 282 281 280 280 280 280 280 280 280 280 280 280 282 282 282 281 281 281 281 281 280 280 280 281 280 280 280 278 277 276
291 293 291 291 289 287 286 286 285 285 283 282 281 280 279 279 278 278 277 277 277 277 277 277 277 279 280 279 279 279 278 278 278 278 277 277 277 277 277 277 276 275 274 273
287 286 286 286 286 285 283 283 281 280 280 279 278 277 277 277 276 276 276 276 276 275 275 276 276 277 278 278 278 277 277 276 276 275 276 276 276 275 275 275 274 273 272 270
283 284 284 283 283 282 282 280 279 278 277 276 275 275 275 274 274 274 275 275 275 274 274 274 275 275 275 275 275 275 275 275 274 274 273 273 273 272 272 271 271 270 270 269
281 280 280 280 279 279 278 278 277 276 276 275 275 274 274 274 274 273 273 272 272 272 272 272 273 272 272 273 273 273 273 272 272 271 270 270 270 270 269 268 268 268 267 267
280 279 278 278 277 277 277 276 275 275 274 273 273 272 272 272 272 273 272 271 270 270 270 270 270 270 270 270 270 270 269 269 268 268 268 267 267 266 266 266 265 265 265 264
278 278 277 276 276 275 275 275 275 274 274 274 273 273 272 272 271 269 269 269 268 268 268 268 268 268 268 268 267 267 267 266 266 266 265 265 265 264 264 263 263 262 262 262
278 277 276 276 275 275 274 274 273 273 272 271 271 271 270 270 270 270 269 267 267 267 266 266 266 266 266 266 266 265 265 265 264 264 263 263 263 262 262 262 261 261 261 260
277 277 276 276 275 275 274 274 273 273 271 271 270 270 270 269 268 267 266 267 267 266 266 265 265 265 265 265 265 264 264 263 263 263 262 262 262 261 261 260 260 260 260 259
275 275 275 275 274 274 273 272 271 271 270 269 269 268 268 268 267 266 266 266 265 265 264 264 264 264 264 264 264 263 263 262 262 262 261 261 261 260 260 260 259 259 259 259
273 273 272 271 272 271 271 270 270 270 269 268 266 266 267 267 267 266 265 265 264 264 263 263 263 263 263 263 262 262 262 261 261 261 260 260 260 259 259 259 258 258 258 258
270 271 271 270 269 269 269 268 268 266 267 266 265 265 266 266 265 265 264 264 263 263 262 262 262 262 262 262 261 261 261 261 260 260 260 259 259 258 258 258 258 258 258 258

GFSNGP_925_thetae_054.txt.gz
Theta_e
315 315 314 316 317 316 317 318 319 319 317 317 316 315 318 319 319 320 320 320 321 321 322 324 326 327 327 326 325 325 324 323 323 322 322 321 321 321 320 320 320 320 320 320
313 312 315 316 314 314 315 314 315 316 318 316 315 315 315 315 317 319 319 320 320 321 321 320 322 326 326 326 325 324 324 324 323 323 322 322 321 321 320 320 320 320 320 320
311 314 313 312 314 314 315 315 314 314 313 312 313 313 315 315 317 319 320 319 319 319 321 320 320 321 324 326 326 325 324 323 323 323 322 322 321 321 321 321 321 321 321 321
314 316 313 310 312 312 313 312 312 311 311 314 316 317 318 319 319 320 320 320 321 321 320 319 319 319 320 322 325 326 325 324 323 323 322 322 322 321 321 321 322 322 322 322
316 315 312 311 309 310 311 309 312 314 314 314 315 316 317 319 317 318 319 319 319 318 319 319 317 318 318 320 323 325 326 325 324 324 323 323 323 323 323 323 322 322 322 322
315 312 312 311 313 314 314 312 315 314 315 316 316 318 317 317 317 319 318 318 316 316 317 317 317 316 317 319 320 323 324 325 325 325 324 324 324 324 319 319 318 313 311 310
313 316 313 311 310 312 317 318 314 314 314 315 317 318 317 316 317 317 316 315 314 316 317 318 317 317 318 319 320 321 322 323 324 324 325 321 314 314 313 309 306 302 301 298
312 314 315 311 312 314 319 315 314 314 314 315 317 316 316 316 316 316 315 313 313 314 316 316 317 319 320 321 320 319 318 315 314 313 312 309 311 306 304 301 295 291 290 289
311 313 312 313 315 313 314 315 315 315 315 317 317 317 315 315 314 313 312 310 309 309 309 307 310 316 318 312 310 308 306 303 302 302 301 299 298 295 293 293 290 288 287 285
312 311 311 311 312 312 311 312 311 310 312 314 315 315 313 313 309 307 303 304 301 301 301 299 299 300 305 304 302 300 298 296 296 295 294 294 294 293 292 291 289 288 286 284
311 310 310 310 312 310 309 308 307 307 306 307 306 308 305 306 302 299 295 294 295 294 294 294 295 295 296 297 296 294 293 292 290 289 288 287 287 289 290 290 290 287 285 284
310 311 310 310 309 306 307 306 305 303 303 302 300 300 299 298 296 293 291 291 290 290 289 289 289 289 291 294 293 292 291 290 289 288 286 285 285 284 284 287 287 286 285 284
309 306 307 307 307 302 302 301 300 298 297 297 296 296 295 293 290 289 288 287 287 287 287 287 287 287 286 288 289 288 288 288 287 286 285 285 284 283 282 282 281 281 281 281
300 300 306 302 303 298 296 296 295 294 293 292 292 292 290 289 287 286 284 284 283 283 283 284 284 284 285 286 286 286 285 285 285 284 284 284 283 283 283 283 282 281 280 280
296 296 296 297 295 293 293 293 294 292 291 290 287 287 285 284 283 282 282 282 281 281 281 281 281 282 283 283 283 284 284 284 284 284 284 284 284 283 283 282 280 279 278 277
294 296 296 294 292 290 290 289 291 288 287 286 284 282 281 280 280 279 279 278 279 279 278 279 279 279 281 282 282 282 281 281 282 282 282 282 282 282 281 280 280 279 278 278
293 296 292 292 290 287 286 285 284 283 283 282 281 281 280 280 279 278 277 276 276 277 278 278 278 279 280 280 281 280 280 280 280 280 280 281 281 280 280 279 277 276 275 274
287 287 287 287 288 286 284 283 282 281 280 279 278 278 277 278 278 277 277 276 276 275 275 276 277 277 278 279 280 280 279 279 279 279 278 278 278 278 277 277 276 275 273 272
285 285 284 284 284 283 282 280 279 278 278 277 277 276 276 275 275 275 275 275 275 275 274 274 275 275 276 277 278 278 278 277 277 276 276 275 275 275 275 274 274 273 273 272
282 281 281 280 280 279 278 278 277 277 276 276 276 276 275 275 274 274 273 272 272 272 272 273 273 273 273 273 274 275 275 274 274 273 273 273 273 272 271 271 271 271 271 270
280 279 278 278 278 277 277 276 276 275 275 274 274 273 273 272 272 273 273 272 270 270 270 270 270 271 271 272 272 272 272 272 271 271 271 271 270 270 270 269 269 269 269 268
279 278 277 277 276 276 275 275 275 274 274 274 274 273 273 272 271 270 269 270 269 269 269 268 268 267 269 269 270 269 269 269 269 269 269 269 269 268 268 267 267 267 266 266
278 277 277 276 276 276 275 274 273 273 273 272 272 272 272 272 272 272 271 268 268 267 267 266 266 266 267 268 268 267 267 267 267 267 267 266 267 266 266 265 265 265 264 264
278 278 277 277 276 276 276 275 274 273 272 271 271 271 272 271 270 269 268 266 265 265 265 264 264 265 266 267 266 266 266 266 266 266 265 264 265 264 264 263 263 263 263 262
277 277 277 277 277 276 275 274 273 272 272 271 271 270 270 269 269 268 267 266 265 266 265 264 264 264 265 265 265 265 265 264 264 264 264 264 263 263 263 262 262 261 260 260
276 275 274 274 274 274 274 274 274 273 272 271 270 269 268 268 267 267 266 265 265 264 264 264 263 265 264 264 264 263 264 264 263 262 262 262 262 262 261 260 260 259 259 258
274 274 274 273 272 272 272 272 272 271 270 270 269 268 268 267 266 266 265 265 265 264 264 264 263 263 263 263 263 263 263 263 261 261 261 261 260 260 259 258 258 258 257 257

GFSNGP_925_thetae_057.txt.gz
Theta_e
316 317 317 319 320 319 320 321 322 322 322 320 319 319 317 317 316 317 318 321 321 322 322 323 326 328 329 329 329 329 328 327 327 327 327 326 326 326 326 325 325 324 324 324
319 315 315 317 317 318 317 317 317 318 318 317 318 317 316 316 315 315 317 320 321 322 322 322 322 323 327 328 329 329 329 329 328 327 327 326 326 326 326 325 325 325 324 324
318 315 314 315 316 317 317 317 317 319 318 315 315 313 314 316 317 318 319 320 321 322 322 322 322 322 322 325 328 329 329 329 328 328 327 327 327 326 326 325 325 324 324 324
318 316 320 314 313 313 315 315 315 314 313 314 315 316 316 316 320 320 320 321 321 321 320 319 320 321 321 321 323 327 328 328 328 328 328 327 327 326 326 325 325 324 324 324
315 316 314 312 312 312 312 311 311 312 314 315 316 316 317 318 317 318 319 319 319 318 318 319 319 320 320 320 320 323 327 328 328 327 327 327 327 327 326 326 326 325 325 325
315 315 314 312 313 314 312 312 315 315 316 315 316 318 318 318 317 318 317 317 316 316 317 318 318 319 321 320 319 320 323 327 328 327 326 326 326 326 326 325 324 318 319 319
314 314 312 311 312 311 316 317 315 314 315 315 315 315 317 316 317 317 316 314 314 313 313 312 310 311 316 321 321 320 320 322 326 327 327 326 326 326 318 310 309 306 305 301
313 314 314 312 312 313 318 315 315 314 315 317 317 316 315 317 316 316 314 312 310 309 307 304 301 302 306 316 320 322 323 324 319 318 316 314 312 309 310 306 299 293 291 290
311 313 313 313 316 315 314 314 314 314 314 314 314 315 316 316 316 313 311 307 305 304 301 297 294 296 299 302 308 310 311 307 303 304 303 303 303 299 296 295 292 290 288 286
314 312 313 312 314 314 312 313 312 311 311 311 312 312 312 310 310 307 304 302 300 298 297 292 290 291 292 296 298 298 297 296 294 294 294 294 294 294 293 291 290 288 287 285
312 312 311 311 314 312 311 310 310 309 309 309 308 308 307 307 303 300 297 295 295 292 293 289 288 288 289 292 293 292 291 290 289 288 287 286 286 287 288 288 288 286 285 284
312 313 314 312 311 309 308 308 307 306 306 304 304 302 302 300 295 292 292 289 288 287 287 286 286 286 287 288 290 290 289 288 287 286 285 285 284 283 283 284 285 284 284 282
311 308 309 309 308 305 305 303 301 301 300 299 299 298 296 293 289 288 287 286 285 284 284 284 284 284 285 287 286 287 287 286 285 285 285 284 283 282 282 282 282 282 282 281
303 303 307 304 305 300 300 299 298 297 295 293 292 291 289 287 285 284 284 283 282 281 282 282 282 283 284 285 285 286 285 285 285 285 285 284 284 283 282 282 281 280 280 280
300 299 300 300 298 295 295 294 295 292 290 288 286 285 284 284 282 281 281 281 281 280 280 281 281 282 283 283 283 284 284 285 285 285 284 283 282 281 281 280 280 279 278 278
296 299 298 296 295 294 293 292 292 288 287 285 283 282 281 280 280 279 279 279 279 279 279 279 280 281 282 283 283 283 283 283 283 283 283 283 282 281 280 280 279 279 279 280
294 297 293 294 292 290 289 287 287 285 284 283 282 282 282 281 280 279 278 277 277 277 277 277 278 279 281 281 281 282 282 281 281 282 282 282 281 280 279 278 276 276 275 276
289 288 288 289 290 288 286 285 283 282 282 280 279 279 278 278 278 278 277 277 276 275 275 275 276 277 278 279 280 280 280 279 279 279 279 279 279 279 278 277 276 275 275 274
286 286 285 285 285 284 283 281 280 279 279 278 278 277 276 276 276 275 275 275 275 274 274 275 275 275 275 277 278 278 278 278 278 277 277 277 277 276 276 276 275 275 274 273
283 282 281 281 280 280 279 279 278 278 278 277 277 276 276 276 276 275 274 272 272 272 272 272 274 274 274 274 275 276 276 275 275 274 275 275 275 274 273 273 273 273 272 271
281 280 280 279 279 278 278 277 277 276 276 275 274 274 273 272 272 275 275 273 271 271 271 270 270 272 272 273 274 274 274 274 273 273 273 273 273 272 272 272 272 271 271 270
280 279 278 278 277 277 276 276 275 275 275 275 275 275 275 275 273 271 271 272 270 270 270 269 269 269 270 271 271 271 271 271 271 271 271 271 271 271 270 270 270 270 269 269
279 278 278 277 277 276 275 275 275 275 274 274 273 273 273 272 272 272 271 269 269 268 268 267 267 268 269 270 270 270 270 270 270 269 269 269 269 269 268 268 268 268 267 266
280 279 279 279 279 278 278 276 275 274 273 273 272 272 274 274 272 271 269 268 268 267 265 265 266 268 269 269 269 269 269 269 269 268 268 267 267 267 267 266 266 266 265 265
279 279 279 279 279 278 276 275 275 275 274 273 273 272 271 270 270 269 269 268 266 268 268 265 266 267 268 268 267 268 268 266 265 267 267 266 266 266 266 265 265 264 263 263
279 278 277 277 277 277 277 277 276 276 275 274 272 271 271 270 270 270 269 268 267 267 267 267 266 267 267 267 267 266 266 266 266 265 265 265 265 265 264 263 263 263 262 261
277 277 277 276 274 274 274 275 275 274 273 273 272 271 270 270 269 269 268 268 268 268 267 267 267 265 265 265 266 266 266 265 264 263 264 264 263 263 263 261 261 261 260 260

GFSNGP_925_thetae_060.txt.gz
Theta_e
319 319 318 319 321 320 322 325 328 325 324 324 323 323 319 318 316 316 317 320 321 322 322 323 323 323 328 331 332 330 329 328 327 328 328 328 327 327 327 327 327 326 326 325
319 319 317 317 320 323 322 319 320 322 323 321 320 317 317 316 316 317 319 320 320 321 322 321 321 321 321 323 330 332 331 329 329 327 328 328 328 328 328 328 327 328 327 326
320 317 317 318 316 320 319 317 317 318 318 317 316 315 315 317 317 320 320 320 320 320 320 320 320 320 321 321 321 326 332 331 330 329 328 328 328 328 328 328 328 327 327 327
318 319 320 315 314 314 316 316 316 317 317 315 315 316 316 319 319 318 318 319 318 317 317 318 319 319 319 321 322 322 324 330 331 331 330 329 329 328 327 327 327 327 326 326
320 318 318 317 313 312 313 314 314 313 313 315 316 316 318 318 317 317 317 316 315 314 314 315 313 310 311 314 318 321 322 321 328 330 330 330 329 328 328 327 327 327 326 326
316 317 319 314 313 313 312 314 315 316 316 316 315 320 319 317 317 316 316 314 312 311 311 309 305 304 306 309 312 316 317 323 323 324 329 329 329 329 328 328 327 327 323 320
315 315 314 311 312 312 314 319 316 316 316 316 317 316 316 316 316 316 314 311 308 307 306 303 299 298 301 302 305 302 306 315 314 316 325 329 328 328 328 327 321 311 309 305
313 313 314 311 312 312 319 316 315 315 316 317 315 314 314 315 315 312 310 307 304 303 302 299 295 294 296 296 297 299 302 308 306 308 309 316 320 318 314 307 301 296 294 291
311 311 314 314 317 315 315 315 313 313 312 312 312 312 312 311 309 307 304 301 299 298 297 294 292 292 292 292 295 295 296 296 295 297 300 300 302 301 299 299 294 290 289 287
313 312 311 316 315 313 312 312 310 310 310 310 309 309 308 307 302 299 297 294 293 292 291 290 289 289 289 290 292 291 290 289 288 287 288 291 292 293 292 291 289 288 287 285
314 314 313 313 313 310 310 308 307 307 306 305 305 304 303 299 296 293 291 289 289 288 288 287 287 286 287 288 289 289 288 287 286 286 285 285 285 285 286 287 287 286 284 284
316 312 314 310 308 307 306 305 304 303 302 301 300 299 297 293 290 289 287 286 285 284 284 284 285 285 286 286 287 287 286 286 285 284 284 284 284 284 283 283 283 283 283 283
308 306 308 307 304 303 303 302 301 300 297 296 294 293 291 289 287 285 284 283 283 283 283 283 284 284 284 285 286 286 286 285 284 284 283 283 282 282 282 281 281 281 281 281
302 304 308 303 301 298 298 299 298 294 291 289 289 288 287 285 284 283 283 282 282 281 281 282 283 284 283 284 284 285 285 284 284 283 282 282 281 281 280 280 280 280 280 280
299 301 300 299 297 296 295 296 293 291 289 287 285 284 283 282 281 280 280 281 280 280 280 280 281 282 283 283 282 283 283 283 283 283 282 282 281 280 280 280 279 279 278 278
297 299 298 296 295 293 292 292 291 288 286 285 283 282 281 281 280 279 278 278 278 278 277 278 278 280 282 281 282 282 281 282 282 282 281 280 279 278 278 277 277 278 278 278
294 294 293 293 292 289 288 287 286 285 284 284 283 283 282 280 279 278 277 276 276 276 276 276 277 278 279 280 280 280 279 280 280 280 280 279 278 277 277 276 276 276 276 275
289 288 288 288 289 287 285 283 282 282 281 279 278 278 277 277 276 276 276 275 274 273 275 275 276 276 277 278 278 279 279 278 278 278 278 278 277 277 277 276 276 275 274 273
286 285 285 285 284 283 282 281 280 279 278 278 277 277 276 275 274 274 273 273 273 272 272 274 274 275 275 276 277 276 276 276 276 277 275 274 274 275 275 275 274 273 273 272
282 281 281 280 280 280 279 279 278 277 277 276 275 274 274 274 275 274 272 272 272 272 271 271 273 273 274 274 275 275 275 275 275 274 274 274 274 274 273 273 273 272 272 271
281 280 279 279 278 278 277 277 276 276 275 275 274 273 273 272 272 273 274 272 270 270 270 270 270 272 272 272 272 273 273 273 273 273 273 273 272 272 272 271 271 270 270 270
280 279 278 278 277 277 277 276 276 275 275 275 275 275 275 274 272 270 270 271 269 269 268 269 269 270 271 272 271 271 271 271 271 271 271 271 270 270 270 269 269 269 268 268
280 279 278 278 277 276 276 275 275 275 275 274 274 273 273 272 272 271 270 269 268 267 268 267 268 269 270 270 270 270 270 270 269 269 269 269 268 268 268 267 268 267 266 266
280 280 279 279 279 278 278 277 275 274 273 273 272 272 274 274 272 270 269 268 268 268 266 267 268 269 269 269 269 268 267 267 268 268 268 268 267 267 267 266 266 265 264 265
280 280 280 280 279 278 277 276 276 276 275 274 273 272 272 271 270 269 269 269 268 269 268 267 267 268 268 268 267 267 268 266 266 266 267 267 266 266 265 264 264 263 264 263
280 279 278 278 278 278 278 278 277 276 276 274 273 272 271 271 271 271 269 269 268 269 268 268 267 267 267 267 267 266 267 266 265 265 265 265 265 265 264 263 263 263 262 261
278 278 278 277 275 275 275 275 276 275 274 274 273 272 271 271 270 270 270 269 269 268 268 268 268 266 265 266 266 266 266 265 265 264 264 264 264 263 263 262 261 261 261 260

GFSNGP_925_thetae_063.txt.gz
Theta_e
317 317 320 320 320 320 321 321 328 327 328 325 325 324 321 314 317 319 320 319 319 318 317 318 318 319 320 320 322 328 326 325 324 323 323 322 321 321 322 321 322 322 322 321
317 317 317 320 319 320 322 323 324 325 326 325 322 322 321 317 319 319 319 318 317 316 316 317 316 315 314 315 316 320 328 327 326 326 324 324 323 323 323 322 322 323 322 323
318 314 318 318 317 322 321 321 322 325 323 323 323 320 318 317 317 318 317 315 315 314 314 313 309 308 307 309 312 315 319 322 327 327 326 326 325 325 324 325 325 324 324 324
315 314 321 318 316 318 319 319 319 317 318 316 317 317 316 315 315 315 313 312 311 311 310 307 303 303 303 306 307 311 309 310 313 318 322 326 326 327 327 326 326 326 325 325
315 317 316 315 316 313 317 316 315 315 315 315 317 315 316 316 315 312 310 308 308 307 304 301 298 298 300 302 302 303 302 303 307 313 311 314 322 326 327 327 327 327 327 326
311 315 318 315 314 314 313 319 316 316 316 315 315 317 316 314 311 309 306 304 303 302 300 297 295 295 297 297 298 297 298 300 303 307 305 306 309 314 327 326 326 326 326 325
310 312 315 314 313 313 315 320 316 316 315 313 314 314 312 309 305 303 300 299 298 298 296 293 292 293 294 294 294 294 296 297 298 298 298 300 302 308 320 326 325 322 316 310
309 310 312 311 313 315 316 314 313 312 312 312 311 311 307 304 300 297 295 294 293 293 292 290 289 289 290 291 291 293 293 292 291 290 291 294 297 300 305 304 305 299 298 295
310 309 312 315 316 314 312 312 311 310 309 309 308 306 301 298 296 294 291 291 290 290 289 288 287 287 288 288 289 290 290 288 287 287 287 289 290 291 295 296 294 292 290 287
312 312 313 313 311 310 309 308 307 306 306 306 305 302 298 295 293 291 289 289 287 287 286 286 286 286 287 287 288 288 287 286 285 285 285 285 285 286 287 290 290 289 287 286
312 313 311 308 307 306 305 305 304 302 301 302 300 296 294 292 291 288 287 286 285 285 285 285 285 285 285 286 286 286 285 284 284 284 284 283 283 284 284 284 286 285 285 285
312 308 310 308 306 303 303 302 300 299 295 295 295 293 290 289 286 285 284 283 283 283 284 284 284 284 284 285 285 285 284 284 283 283 283 282 282 282 282 283 283 284 284 284
301 306 303 300 299 300 300 296 294 292 292 290 290 289 287 286 284 283 282 282 282 281 282 283 283 283 283 283 284 283 283 282 282 281 281 281 281 281 281 281 281 282 282 282
300 302 300 298 297 297 296 293 290 288 287 286 286 284 283 282 282 282 281 280 280 279 279 280 281 281 282 282 283 283 282 282 281 281 280 280 280 279 279 279 278 278 279 279
297 298 297 295 292 292 292 291 288 287 285 283 282 282 281 280 279 279 279 278 277 277 277 278 278 280 281 281 281 281 282 281 280 280 279 278 278 278 278 278 278 277 276 276
295 293 294 292 290 288 288 287 286 285 284 283 282 281 279 278 277 276 276 276 276 276 276 276 277 278 280 280 279 279 279 280 280 279 278 277 277 276 276 276 276 276 275 275
291 290 290 289 286 285 285 284 284 282 280 280 280 280 278 277 276 275 274 273 273 274 274 275 276 277 278 279 279 278 278 278 278 278 278 277 276 276 275 275 274 274 274 273
287 287 286 285 285 283 282 281 279 279 278 277 276 275 274 274 274 273 273 272 272 273 273 274 275 275 276 276 276 277 277 276 276 275 276 276 276 275 275 274 273 272 271 271
283 283 283 282 281 281 280 279 278 277 277 276 275 274 273 273 272 272 272 272 271 271 271 273 273 274 275 275 275 275 274 274 274 274 274 273 273 273 273 272 272 271 270 270
280 279 278 278 278 277 276 275 275 275 275 275 274 274 272 273 272 271 270 270 270 270 270 272 272 272 272 273 273 273 273 273 273 272 272 272 272 271 271 271 270 270 270 269
278 277 276 276 276 276 275 275 275 274 274 274 273 272 271 271 272 272 270 269 269 269 269 270 271 271 271 271 271 271 271 271 271 271 271 270 270 270 269 269 269 268 268 268
277 276 276 276 275 275 275 275 274 274 274 274 274 273 272 270 270 269 269 268 268 268 269 269 270 270 270 270 270 270 269 269 269 269 269 268 268 268 268 267 267 267 266 266
277 277 277 276 275 275 275 274 274 274 273 273 273 272 271 270 270 268 268 268 267 267 268 268 269 269 269 268 268 268 268 268 268 268 268 267 267 267 266 266 265 265 265 264
278 277 277 276 276 276 275 274 274 273 273 272 272 272 272 270 270 268 268 268 268 268 267 268 268 268 267 267 268 267 266 267 267 267 267 266 266 265 265 265 264 264 263 263
280 280 279 278 277 276 276 275 275 274 274 273 272 272 270 270 269 269 268 268 268 268 268 267 267 267 267 267 266 266 266 266 265 265 265 265 265 264 264 263 263 262 262 262
279 278 277 276 275 276 276 277 275 275 273 272 272 271 270 270 270 270 269 269 269 268 268 267 267 266 266 266 266 266 265 265 264 264 264 264 264 263 263 262 262 261 261 260
277 277 276 275 275 274 274 274 273 272 272 272 271 271 271 270 270 269 269 268 268 268 267 267 267 267 266 266 265 265 265 265 264 264 263 263 263 263 262 262 261 260 260 260

GFSNGP_925_thetae_066.txt.gz
Theta_e
316 316 315 318 321 320 322 321 324 323 324 327 326 321 321 320 319 318 316 316 317 316 313 311 309 309 309 310 312 315 323 323 322 321 321 321 321 321 321 321 321 320 320 319
315 314 312 315 320 320 321 323 320 321 324 324 323 322 320 319 317 316 315 315 314 312 309 306 305 304 305 306 308 312 311 311 319 323 322 322 321 320 320 321 321 321 320 320
314 314 313 318 317 319 320 322 323 326 323 323 321 320 318 317 315 314 312 312 311 307 303 300 299 300 301 302 304 304 304 304 306 308 314 321 322 322 321 320 321 321 321 321
312 312 314 316 311 313 321 321 320 320 321 322 320 319 318 313 311 310 309 308 305 302 299 297 296 296 297 298 298 298 299 300 302 304 308 307 309 314 322 322 322 321 321 321
311 313 312 310 315 315 319 318 317 317 320 322 317 313 311 308 307 306 304 303 300 297 295 294 293 294 295 295 294 294 296 297 298 299 300 301 303 304 307 310 319 323 323 322
308 313 313 314 313 313 314 322 316 317 318 317 315 314 309 304 301 299 298 298 296 294 292 291 290 291 293 292 292 293 294 294 294 293 294 296 297 298 302 303 306 314 325 324
308 309 310 312 312 313 315 320 314 313 314 314 313 309 303 299 297 295 294 294 293 291 289 288 288 290 290 290 291 292 291 290 289 289 289 291 291 293 296 299 301 308 315 309
308 309 310 311 314 314 315 313 312 311 310 307 304 301 299 296 294 293 291 290 290 289 287 287 287 288 288 289 289 289 288 287 286 286 286 287 288 289 292 294 295 293 292 289
308 307 310 308 310 310 312 311 310 309 307 304 302 299 296 294 292 290 288 287 287 286 286 285 286 286 287 287 287 286 285 285 285 284 284 285 285 286 287 290 290 289 288 286
312 311 309 307 306 305 304 303 302 303 303 301 299 296 294 292 289 287 286 285 285 285 285 284 284 284 285 286 285 284 284 283 283 283 283 283 284 285 285 286 287 287 285 284
313 309 308 306 305 304 301 300 298 296 297 296 294 292 290 288 286 285 284 283 283 284 284 283 283 283 284 284 285 284 283 282 282 282 282 282 282 283 284 284 285 284 284 284
309 307 304 306 303 302 299 296 295 294 292 291 290 289 287 286 284 283 282 281 281 282 282 281 281 282 282 283 282 282 281 281 280 280 280 280 281 280 280 280 282 282 282 283
302 299 297 298 299 297 294 292 290 289 289 288 286 286 285 284 283 282 280 280 279 278 278 279 280 280 281 281 281 281 281 280 280 280 279 279 279 279 279 279 278 279 279 280
301 301 297 296 296 293 290 288 286 285 284 284 283 282 282 281 280 279 278 278 277 277 277 278 279 280 280 281 281 280 280 279 278 278 278 278 278 278 278 277 276 276 275 276
296 294 292 291 290 290 289 287 286 284 283 282 282 281 280 279 278 277 277 277 276 276 276 277 278 279 279 280 280 279 279 279 278 278 277 277 277 276 276 276 275 275 274 274
293 292 290 289 288 287 287 286 285 284 282 281 279 278 277 276 275 274 274 274 274 274 275 276 277 278 279 279 279 278 278 278 278 277 277 276 276 275 275 274 274 273 272 272
291 291 288 287 286 285 284 283 282 281 282 280 279 278 277 275 274 273 273 273 273 273 274 275 276 276 277 277 277 277 277 277 277 276 276 276 275 274 274 273 272 271 270 270
285 284 286 285 283 282 281 280 280 279 277 276 274 274 273 272 272 272 272 272 272 273 273 273 274 275 275 276 276 276 275 275 274 274 274 274 273 273 272 272 271 270 269 269
282 282 282 281 280 279 279 278 277 276 274 274 273 272 272 272 271 271 271 270 270 270 271 272 272 273 274 274 274 274 273 273 273 272 272 272 271 271 270 270 270 269 268 267
278 278 278 277 277 276 275 274 274 274 274 273 272 272 271 270 270 270 269 269 269 269 271 271 271 271 272 272 273 272 272 272 271 271 271 270 270 269 269 269 269 268 267 267
275 275 275 274 274 274 274 274 274 273 273 273 272 270 270 271 271 269 268 268 268 269 270 270 270 270 270 270 271 271 271 270 270 269 269 269 269 268 268 268 267 267 266 266
274 274 273 274 273 273 274 274 274 274 273 272 271 270 270 269 268 268 267 267 268 269 269 269 269 269 269 269 269 269 268 268 268 268 268 267 267 267 266 266 266 265 265 265
276 275 274 274 274 274 274 274 273 273 273 272 272 271 270 269 268 268 267 267 267 268 268 268 268 268 268 267 268 268 267 267 267 267 267 266 266 266 265 265 264 264 264 264
277 276 275 275 274 274 273 273 273 272 272 272 272 271 270 269 268 268 268 268 267 267 267 267 267 267 267 267 266 266 266 266 266 266 265 265 265 265 264 264 263 263 262 262
279 278 277 277 277 276 275 274 273 273 272 271 271 270 270 269 269 268 268 268 268 267 267 267 266 266 266 266 266 265 265 265 264 265 264 264 264 263 263 263 262 262 261 261
277 276 275 275 275 276 276 275 274 273 272 271 271 270 270 269 269 269 269 268 268 267 267 267 266 266 266 265 265 265 265 264 264 264 263 263 263 263 262 262 261 261 260 260
276 275 274 274 274 274 274 273 273 272 272 271 271 270 270 269 269 269 268 268 268 267 267 267 266 266 266 265 265 265 265 264 264 263 263 263 263 262 262 261 261 260 260 260

GFSNGP_925_thetae_069.txt.gz
Theta_e
314 313 314 316 317 320 323 322 325 320 321 323 322 322 320 320 316 316 314 312 308 307 305 304 304 305 305 306 307 309 315 315 317 320 321 321 321 321 321 320 320 319 319 318
312 314 311 310 312 318 321 321 322 321 321 323 320 319 320 320 316 315 313 309 305 302 301 300 299 300 301 301 301 302 303 304 306 311 314 318 320 321 321 320 320 320 319 319
311 310 310 312 315 314 320 319 319 325 321 323 323 320 320 316 314 312 309 306 302 300 298 297 296 297 297 296 297 298 298 299 300 302 304 305 307 311 317 320 320 320 320 320
310 310 309 309 307 314 316 319 320 320 321 321 320 318 314 313 311 309 305 301 298 297 295 294 293 294 294 294 294 295 295 296 295 295 296 298 300 302 303 305 308 312 319 320
307 309 308 308 314 314 315 317 317 318 319 319 315 309 306 304 303 303 300 297 294 293 292 291 291 292 292 292 293 293 292 292 291 291 292 294 295 295 297 299 301 302 305 308
307 310 308 308 311 313 313 318 315 316 319 316 314 316 307 301 298 297 296 293 291 290 289 289 289 290 290 291 291 290 289 288 288 287 289 290 290 291 292 294 296 297 298 298
308 308 307 308 312 312 316 318 313 314 319 315 314 309 300 297 295 293 293 292 290 288 287 288 289 289 289 290 289 287 287 286 285 285 287 287 287 288 290 291 292 291 290 290
307 308 308 307 312 313 314 312 310 308 305 303 301 299 297 295 293 291 289 288 288 287 286 286 287 288 288 287 286 286 285 284 284 284 284 285 285 286 287 288 288 287 286 285
307 307 307 305 306 307 310 311 309 307 304 302 300 297 294 292 289 287 286 286 286 286 285 285 285 286 286 285 284 284 284 283 283 282 283 284 284 285 285 286 286 285 285 284
311 309 307 304 303 301 300 301 303 303 301 299 297 294 291 288 287 285 285 285 285 285 284 284 284 284 284 285 283 283 283 282 282 282 281 281 282 282 283 284 284 284 284 284
311 309 307 306 303 300 298 296 295 294 294 294 292 290 288 286 285 284 283 283 283 283 283 282 282 282 283 282 282 281 281 280 280 280 280 280 280 281 281 281 282 282 281 282
308 305 305 303 300 299 296 294 293 291 290 289 288 287 285 284 282 282 281 280 280 280 280 281 281 280 281 281 281 281 280 280 279 279 279 279 279 279 279 279 280 280 280 280
301 298 297 296 293 292 291 290 289 287 287 286 285 284 283 282 281 280 278 278 277 277 278 278 279 279 280 280 279 279 279 279 278 278 277 278 277 277 276 277 276 277 277 278
297 298 296 295 292 289 287 286 285 284 283 282 282 282 281 280 279 278 277 277 276 276 277 278 278 278 279 280 279 279 278 278 278 277 277 277 276 276 275 274 274 274 273 275
292 291 291 290 289 288 287 286 284 283 282 281 280 279 279 278 277 276 276 276 276 275 276 276 277 277 278 278 278 277 278 277 277 277 276 276 275 274 274 273 272 272 272 273
292 290 289 288 287 286 286 285 284 282 281 279 278 277 276 275 274 273 273 273 273 272 273 274 275 276 277 278 278 278 277 277 276 276 275 275 274 273 272 272 271 270 269 269
291 290 288 287 286 284 283 282 282 282 280 279 277 276 275 274 273 272 272 272 273 273 273 273 274 275 276 276 276 276 276 276 275 275 274 273 273 272 271 270 269 268 268 268
283 283 283 283 283 282 281 280 279 278 276 274 274 273 272 271 270 271 271 272 272 272 272 272 273 274 274 275 275 275 275 274 273 273 272 272 271 271 270 269 269 268 267 267
282 282 281 280 279 279 278 277 275 274 273 273 273 271 271 271 270 270 270 270 270 269 270 271 272 272 273 273 273 273 273 273 272 271 271 271 270 269 269 268 268 267 266 266
278 277 276 276 275 275 274 274 273 273 273 273 272 270 269 269 269 269 269 268 268 269 270 271 271 271 271 272 272 272 272 271 271 270 270 270 269 269 268 268 267 267 266 265
275 274 274 273 273 273 274 274 274 272 272 273 272 270 270 270 269 268 268 267 268 269 270 270 270 269 269 270 270 270 270 270 269 269 269 268 268 267 267 267 266 266 265 265
274 273 273 273 273 273 273 273 273 272 271 271 270 270 269 268 268 267 267 267 268 268 268 268 268 268 269 268 268 268 268 268 267 267 267 267 267 266 266 265 265 265 264 264
274 274 274 274 274 273 273 273 273 273 272 271 271 270 269 268 268 268 266 267 268 268 268 267 267 267 267 267 267 267 267 267 266 266 266 266 265 265 264 264 264 264 263 263
275 275 275 274 274 273 273 272 272 272 272 271 271 270 269 268 268 268 267 267 267 267 267 267 267 266 266 266 266 265 265 265 265 265 265 264 264 264 263 263 263 262 262 262
277 276 275 275 276 275 274 273 272 272 271 271 271 270 269 269 268 268 268 268 267 267 267 266 266 266 266 265 265 265 265 264 264 264 264 264 263 263 263 262 262 261 261 261
278 276 276 276 275 275 275 274 273 272 272 271 270 270 269 269 269 268 268 268 267 267 267 266 266 266 265 265 265 265 264 264 264 263 263 263 263 262 262 262 261 261 260 260
275 274 274 274 274 274 274 274 273 272 272 271 270 269 269 269 269 268 268 268 267 267 267 266 266 266 265 265 265 265 264 264 263 263 263 263 262 262 262 262 261 261 260 260

GFSNGP_925_thetae_072.txt.gz
Theta_e
312 311 312 313 314 314 317 319 323 322 323 322 322 321 320 315 313 309 306 304 304 304 303 303 302 302 301 301 302 306 310 311 312 316 320 320 321 321 321 321 320 319 319 318
310 311 309 309 306 308 312 319 320 320 320 318 322 320 321 316 312 309 305 303 301 300 299 299 298 297 297 298 298 300 300 301 303 306 309 312 314 314 319 320 321 321 320 319
310 308 307 306 310 307 311 319 319 320 318 321 321 321 319 316 311 307 304 301 299 297 295 295 295 295 294 295 295 296 295 295 296 297 298 300 302 305 307 310 312 313 317 318
310 308 307 304 305 310 317 316 318 319 320 320 316 317 315 313 309 305 301 298 296 294 292 292 293 292 292 293 293 292 291 290 291 292 293 294 296 297 298 300 301 303 305 305
306 308 306 305 312 313 315 313 315 318 318 312 308 307 304 303 302 299 297 294 292 291 290 290 290 291 291 290 290 289 288 287 287 288 290 291 291 292 293 295 297 297 296 295
307 308 305 305 309 309 311 313 313 313 315 311 313 314 306 300 298 295 293 291 290 289 289 289 289 290 290 288 287 287 286 285 285 287 288 288 288 289 291 292 292 291 288 288
307 306 306 305 308 309 313 311 308 308 314 312 314 308 300 295 293 292 291 290 288 288 287 287 288 288 287 286 286 285 284 283 283 285 286 286 286 287 289 289 288 287 286 285
308 309 308 305 309 310 310 307 305 304 305 301 299 297 294 292 290 289 288 287 287 286 286 286 286 286 285 284 284 284 283 282 282 282 284 283 284 285 285 286 286 285 285 284
307 307 305 303 303 302 308 308 304 302 300 298 296 294 292 289 288 286 286 286 286 286 285 284 284 284 285 283 283 283 282 282 281 281 281 282 282 283 284 284 284 284 284 283
309 308 305 303 300 298 298 298 300 298 297 295 294 291 289 287 286 285 285 285 284 284 284 283 283 282 282 282 282 282 281 281 281 281 280 281 281 281 282 282 281 281 281 281
309 307 306 304 301 299 296 294 293 292 292 291 290 288 287 286 284 283 283 282 282 282 282 282 281 281 281 281 281 281 280 280 279 279 280 279 279 280 280 280 280 280 280 280
306 302 303 299 296 294 293 292 291 289 288 288 287 285 284 283 281 280 279 279 279 279 279 279 279 279 280 280 281 280 279 279 279 278 278 278 278 278 278 278 278 279 279 279
300 297 294 292 291 290 289 288 287 287 287 286 284 283 282 281 280 279 278 277 277 276 277 277 278 278 279 279 280 279 278 278 278 278 277 276 276 275 274 274 274 276 276 277
294 298 295 291 289 287 285 284 283 283 282 282 282 281 280 279 278 277 277 276 276 276 276 276 277 277 278 279 279 278 278 278 277 277 276 276 275 274 273 272 272 271 272 273
291 291 290 288 287 286 285 284 283 282 281 280 279 279 278 277 276 275 276 275 275 275 275 276 276 276 277 278 278 278 277 277 276 275 275 274 273 273 272 271 270 269 270 271
290 289 288 287 286 285 284 283 282 281 280 278 277 276 275 274 273 272 272 273 272 271 273 274 274 275 276 277 277 277 276 276 275 275 274 273 272 271 270 269 268 268 267 268
292 290 288 286 285 283 282 282 281 280 278 277 276 275 274 273 272 271 271 271 272 272 272 272 273 274 275 275 276 275 275 275 274 273 273 272 271 270 269 268 267 266 266 267
283 282 283 283 283 282 280 279 278 277 275 273 272 272 271 270 269 269 270 271 271 271 271 271 272 273 274 274 274 274 274 273 272 272 271 270 270 269 268 268 267 266 266 266
281 281 280 279 279 278 277 275 274 273 272 272 271 269 269 269 269 269 270 270 269 269 270 271 271 272 272 272 272 272 272 272 271 270 270 269 269 268 268 267 266 266 266 265
277 276 275 274 274 274 273 272 272 272 272 272 270 269 268 268 268 269 269 267 267 268 269 270 270 270 270 271 271 271 271 271 270 269 269 268 268 268 267 267 266 266 265 265
274 273 273 272 272 273 273 273 272 271 271 271 271 269 269 268 268 268 268 267 268 268 268 269 269 269 269 269 269 269 269 269 269 268 268 268 267 267 266 266 265 265 264 264
273 273 273 273 272 272 272 273 272 271 271 270 269 269 268 267 267 267 267 267 267 268 268 268 267 267 268 268 268 267 267 267 267 267 266 266 266 265 265 264 264 264 264 263
274 274 274 274 273 273 273 273 272 272 271 271 271 270 269 268 268 267 267 267 267 267 267 267 267 266 266 266 266 266 266 266 266 266 265 265 264 264 264 263 263 263 262 262
275 275 274 274 274 273 273 272 272 272 272 271 270 270 269 268 268 268 267 267 267 267 266 266 266 266 266 265 265 265 264 264 265 264 264 264 264 263 263 262 262 262 261 261
276 275 274 274 275 274 273 272 272 271 271 271 270 270 269 269 268 268 268 267 267 267 266 266 266 265 265 265 265 264 264 264 263 263 263 263 263 263 262 262 261 261 261 260
277 277 276 276 275 275 274 273 272 272 271 270 270 270 269 269 268 268 268 268 267 267 267 266 266 265 265 265 265 265 264 264 264 263 263 263 262 262 262 262 261 261 260 260
275 275 274 274 274 274 274 274 273 272 272 271 270 269 269 269 269 268 268 268 267 267 267 266 266 266 265 265 265 264 264 264 264 263 263 263 262 262 262 261 261 261 260 260

GFSNGP_925_thetae_075.txt.gz
Theta_e
312 312 312 310 311 309 310 316 319 318 318 319 320 320 319 312 307 305 303 302 301 300 301 301 301 302 302 302 303 305 306 306 307 311 316 319 319 319 320 320 319 318 318 318
310 312 308 308 306 308 310 310 314 318 319 317 318 321 317 312 308 305 302 300 298 297 297 297 297 298 298 298 297 299 297 297 298 300 303 305 308 312 315 316 316 318 317 317
309 309 307 306 307 306 310 313 317 319 318 320 322 321 316 312 307 304 301 299 297 295 295 294 294 295 295 294 294 293 293 293 293 295 296 297 298 301 303 304 306 306 306 307
310 308 305 304 305 308 314 316 314 315 318 317 313 308 311 308 305 302 299 296 294 293 293 292 293 293 292 291 291 291 290 290 291 293 293 294 295 296 297 299 298 297 297 297
308 308 306 305 310 310 314 313 314 315 316 313 309 307 304 301 299 297 294 293 292 291 291 291 291 291 290 289 289 288 288 288 289 290 291 291 292 293 294 295 293 290 289 289
308 308 306 305 309 308 311 309 310 309 312 314 312 317 306 298 294 292 290 290 290 289 289 289 289 289 288 288 287 286 285 286 287 287 288 289 289 290 291 290 289 287 286 286
309 308 307 306 307 308 305 309 307 306 310 313 313 304 296 293 291 289 289 289 288 287 287 287 286 287 287 286 285 284 284 284 285 285 286 287 287 288 288 287 287 286 285 285
307 308 307 305 308 308 308 306 303 302 300 299 296 293 291 290 289 288 287 287 287 286 286 285 286 285 285 284 284 284 283 283 283 283 284 284 285 285 286 286 286 285 285 284
307 308 305 303 303 300 305 305 302 300 298 295 293 291 289 288 287 286 286 286 285 285 284 284 284 284 284 283 283 283 283 282 282 282 282 283 283 283 283 283 283 283 283 283
308 307 305 302 299 297 297 298 297 296 294 291 289 288 287 286 286 285 284 284 284 284 283 283 282 283 282 282 282 282 282 282 281 281 281 281 281 281 282 282 282 282 282 282
307 304 302 299 298 296 294 293 292 292 291 290 288 287 286 285 284 282 282 282 282 282 281 281 281 281 281 282 282 282 281 281 281 281 280 279 279 280 280 280 280 281 281 281
304 300 298 295 293 292 292 291 290 289 288 287 286 284 283 282 281 280 280 280 279 279 279 279 279 278 279 280 281 281 281 280 279 279 279 279 279 277 277 278 278 278 278 279
299 294 292 291 290 289 288 287 287 286 286 285 283 282 282 281 280 280 279 278 277 277 277 277 277 277 278 280 280 279 279 279 279 278 278 278 277 277 276 274 274 274 275 276
294 294 292 291 288 286 285 284 283 283 283 282 281 281 280 279 279 278 278 277 276 276 275 275 276 276 277 278 279 278 278 278 276 276 276 275 275 274 274 274 274 272 271 271
290 290 289 288 286 285 284 283 283 282 281 280 280 279 279 278 277 276 276 276 275 274 274 274 275 275 276 277 278 277 276 276 275 274 274 273 273 273 272 272 271 271 271 270
290 289 288 287 286 284 283 283 282 281 280 278 277 277 275 275 274 273 273 273 273 272 272 273 273 274 276 276 277 276 275 275 275 274 273 273 272 272 271 270 269 269 268 268
291 290 288 286 284 283 283 282 281 280 278 277 276 275 274 273 273 272 271 271 272 271 271 272 273 274 275 275 275 274 274 273 273 273 273 272 271 271 270 269 269 268 267 266
283 282 284 284 283 282 280 279 278 277 275 274 273 272 271 271 270 269 270 270 271 271 271 271 272 273 273 273 274 273 273 273 272 272 271 271 270 269 269 268 268 267 266 265
281 281 280 279 279 278 277 276 274 273 272 271 271 269 269 269 269 269 269 269 269 270 269 270 271 271 272 272 272 272 272 271 271 270 269 269 269 268 268 267 266 266 266 265
277 276 275 275 275 275 273 272 272 271 271 271 269 268 267 268 268 268 268 267 267 268 269 269 269 270 270 270 271 271 270 270 269 268 268 268 267 267 266 266 265 265 264 263
274 274 273 273 272 272 272 272 271 270 270 270 269 268 267 267 268 268 269 269 267 268 268 268 268 268 268 268 269 269 269 268 268 267 267 266 266 265 265 264 264 263 263 262
273 273 273 273 272 272 272 272 271 270 270 269 268 268 267 267 267 267 267 268 267 267 267 267 267 267 267 267 267 267 267 267 266 266 266 265 265 264 264 263 263 263 263 262
273 273 273 273 273 272 272 271 271 271 270 270 269 269 269 269 268 268 268 267 267 267 266 266 266 266 266 266 265 266 266 265 265 265 265 264 264 264 263 263 262 262 261 261
274 274 274 273 273 274 273 272 272 271 271 270 269 269 269 268 267 267 267 267 267 266 266 266 266 265 265 265 265 264 264 264 264 264 264 264 263 263 262 262 262 261 261 261
275 275 274 275 275 275 274 273 272 272 271 271 270 269 269 268 268 268 268 267 267 267 266 266 266 265 265 265 265 264 264 264 263 263 263 263 263 262 262 262 262 261 261 260
277 276 276 275 275 275 274 273 273 272 271 271 270 269 269 269 268 268 268 267 267 267 267 266 266 266 265 265 265 265 264 264 264 263 263 263 263 262 262 262 261 261 261 260
275 275 274 274 273 273 273 273 273 273 272 271 271 270 269 269 268 268 268 267 267 267 267 266 266 266 266 265 265 264 264 263 263 263 263 263 263 262 262 262 261 261 261 261

GFSNGP_925_thetae_078.txt.gz
Theta_e
313 312 313 311 311 311 314 314 315 311 312 314 318 319 316 311 307 304 301 300 299 299 299 299 300 301 301 301 303 304 305 305 305 309 312 315 318 319 321 321 321 322 322 321
313 310 311 311 309 307 309 312 312 313 315 316 319 320 315 310 307 305 301 298 297 297 297 297 297 298 298 297 297 298 298 299 300 301 303 304 307 309 311 313 314 316 317 318
312 311 309 308 308 309 309 311 315 317 316 318 320 319 315 311 307 304 299 297 296 295 295 295 294 294 296 296 295 296 296 296 298 299 299 299 300 301 302 302 303 302 301 300
309 307 306 309 308 310 312 313 315 314 318 318 314 308 307 305 304 301 299 296 295 294 294 293 292 293 292 292 293 293 294 294 294 295 297 299 299 300 299 296 294 293 292 292
308 308 306 305 310 310 312 313 314 315 315 314 307 304 300 297 296 294 293 293 293 293 292 291 291 291 291 291 291 290 290 291 292 293 294 295 296 295 296 294 292 290 289 289
309 306 306 312 310 309 309 311 312 311 312 314 312 317 302 295 293 292 290 290 290 291 291 290 290 290 290 290 288 288 289 289 289 290 291 292 292 292 292 291 290 289 289 288
309 307 307 309 309 309 307 312 309 307 305 308 312 300 293 290 290 290 290 289 289 289 289 289 289 289 289 288 287 287 287 287 287 288 289 289 290 290 290 290 289 289 288 286
308 308 308 308 311 311 309 307 305 302 299 295 293 291 290 290 289 289 290 289 289 289 288 288 288 288 288 287 285 286 286 286 286 286 287 288 288 288 288 288 288 288 287 286
309 311 307 304 304 301 303 304 302 300 297 294 292 290 289 288 288 288 288 289 288 287 286 286 286 287 286 285 285 286 285 285 285 285 285 286 286 287 287 287 287 287 287 286
309 303 302 301 298 297 296 297 295 294 292 291 290 289 287 286 286 286 286 286 287 287 286 285 285 285 285 285 285 285 285 284 284 284 284 284 284 284 285 285 285 285 285 285
305 301 300 298 297 296 295 293 292 292 292 291 290 289 288 286 285 284 284 284 284 285 284 284 284 284 284 285 285 284 284 284 284 283 282 281 280 281 281 280 282 283 282 282
305 299 298 295 294 294 294 293 292 292 290 289 287 286 285 284 283 283 282 282 283 282 282 282 282 282 282 283 284 285 284 284 283 283 283 282 280 278 277 277 278 278 278 280
298 294 293 292 291 291 291 289 288 288 288 287 286 285 285 284 282 281 281 280 279 280 280 279 279 278 279 279 281 283 283 283 282 283 283 282 282 282 280 275 274 274 276 276
295 295 294 293 291 289 288 287 287 286 286 285 285 284 283 283 281 280 279 279 278 278 278 277 277 276 277 278 279 279 279 279 281 281 281 280 280 279 279 280 279 277 272 272
292 293 291 290 289 288 287 287 287 286 285 284 283 283 282 282 280 279 279 278 278 277 276 276 276 275 275 277 278 279 280 279 279 278 277 278 278 277 277 276 276 276 275 274
291 290 290 289 288 287 287 287 286 285 284 282 281 280 279 279 278 277 276 276 277 276 275 274 274 273 274 276 279 279 277 276 278 278 278 278 277 276 276 275 274 274 272 272
292 291 290 289 287 286 285 285 284 283 281 280 279 278 278 277 276 275 273 273 272 273 273 273 273 273 273 274 277 278 278 276 276 277 277 276 276 275 274 274 273 272 270 267
287 287 288 287 286 284 283 282 281 280 279 278 276 275 274 275 274 273 272 272 272 271 271 272 271 272 272 273 275 276 277 276 276 275 275 275 274 273 273 273 272 272 270 268
284 284 283 283 282 281 280 279 277 276 275 274 273 273 272 272 271 271 271 272 273 274 271 271 271 272 272 272 274 275 275 275 274 274 273 272 273 272 272 272 271 270 270 269
280 280 280 279 278 278 277 275 275 274 273 272 271 271 270 269 269 270 271 271 270 270 270 270 271 271 271 270 272 273 273 274 273 273 272 272 272 272 270 269 270 270 269 268
278 277 276 275 275 274 274 273 273 272 271 271 272 270 270 269 269 270 272 273 270 269 269 269 269 270 270 270 271 272 272 272 272 271 271 271 271 270 270 269 269 268 268 267
276 276 275 275 275 274 274 274 272 271 271 269 268 269 269 270 269 269 269 271 270 268 269 269 268 267 268 268 270 270 270 270 270 270 269 269 269 269 268 268 267 267 266 266
276 276 275 275 275 274 273 272 272 271 271 270 270 271 272 272 272 272 272 269 269 268 268 268 266 266 266 268 268 268 268 268 268 268 268 267 267 267 267 267 266 266 266 265
277 277 276 275 274 275 275 274 273 272 271 271 270 270 271 272 270 269 268 267 267 267 267 267 266 265 266 267 267 267 267 267 267 267 266 265 266 265 265 265 265 265 264 263
277 276 276 277 277 277 276 275 274 273 273 273 272 271 270 270 272 270 269 268 267 268 268 266 266 265 267 267 267 266 266 266 266 266 266 266 265 265 265 265 264 264 264 263
279 279 278 277 278 278 277 276 277 276 275 274 273 272 271 270 270 270 269 268 268 268 269 268 267 267 267 267 267 266 266 266 266 265 265 265 265 265 265 264 264 263 264 263
278 277 277 277 276 275 275 275 276 276 274 274 274 272 271 271 270 270 269 269 269 269 268 268 267 267 267 267 267 266 266 266 265 265 265 265 265 264 264 264 263 263 263 262

GFSNGP_925_thetae_081.txt.gz
Theta_e
312 312 313 316 318 316 318 317 316 314 312 314 318 321 319 313 308 304 301 299 298 298 298 298 299 299 300 301 303 305 306 307 307 310 315 317 319 320 320 319 318 320 321 318
311 314 313 314 315 312 311 310 311 312 313 317 321 321 318 312 308 304 301 298 296 296 296 296 296 297 297 297 298 299 300 300 301 303 305 307 308 308 312 313 313 313 310 307
309 315 313 313 312 311 309 311 311 316 318 319 319 320 315 309 306 302 299 297 296 296 294 293 293 294 295 296 298 297 297 298 300 301 300 301 302 302 300 299 301 300 299 298
310 314 314 310 308 309 309 311 314 315 317 316 311 305 303 304 302 299 298 296 294 293 292 292 292 292 293 292 292 294 296 296 298 299 300 300 299 297 295 294 293 292 292 292
315 311 309 307 310 311 312 317 313 313 313 313 306 304 299 297 296 295 294 293 291 292 292 291 291 291 290 291 291 291 291 292 295 296 297 297 296 295 294 293 291 290 289 290
311 311 310 313 311 310 310 314 311 311 311 312 310 316 301 294 292 291 291 290 291 291 290 290 290 290 289 289 289 289 290 291 292 292 294 293 293 293 293 293 292 291 289 288
313 309 311 311 310 309 309 315 310 308 305 302 303 297 292 291 291 290 290 290 289 290 291 290 291 289 289 289 289 288 288 289 290 290 291 292 292 292 292 292 291 289 288 287
309 310 311 308 311 313 308 308 306 303 299 295 293 291 291 290 290 291 291 291 290 290 290 291 291 290 290 289 287 287 288 287 287 288 289 290 291 290 290 291 290 289 288 287
311 313 305 303 303 301 303 303 302 299 296 294 292 291 291 290 290 290 291 291 291 290 290 289 290 290 289 289 288 288 288 288 287 287 286 287 288 289 289 290 289 288 288 287
311 302 301 300 299 297 297 297 295 295 294 293 291 290 289 288 288 287 288 289 289 289 288 287 288 288 288 288 288 287 286 286 286 286 286 285 284 283 284 286 287 286 286 286
304 301 301 298 298 298 296 294 294 294 293 292 291 290 289 288 286 286 286 287 287 287 286 286 286 287 287 287 287 287 286 286 285 283 282 280 279 281 281 280 281 283 282 282
305 300 299 296 295 296 295 295 294 293 292 290 288 287 287 286 285 285 284 284 284 284 283 283 283 283 284 286 287 287 286 286 286 286 284 282 280 278 277 278 278 278 279 279
298 296 294 294 294 294 293 292 291 290 290 290 288 287 286 285 284 283 282 281 281 282 281 281 281 281 281 282 283 284 285 285 285 284 284 284 284 282 279 276 276 276 276 276
296 297 297 295 293 292 291 290 290 289 288 288 287 286 285 284 283 282 281 281 280 280 280 279 279 279 280 281 282 282 282 282 283 283 282 282 282 282 282 282 281 277 274 274
294 295 294 293 292 291 291 290 290 289 287 286 286 285 284 283 283 282 281 281 280 279 278 278 277 277 278 280 280 281 281 281 281 281 280 280 281 280 280 280 279 279 278 277
293 293 293 292 292 291 290 290 289 288 286 284 283 283 282 281 280 279 278 278 279 277 276 275 275 275 276 279 281 281 279 279 280 281 281 280 280 279 279 278 278 276 274 274
294 293 292 291 290 289 288 288 287 286 284 282 282 281 281 280 278 277 275 275 275 275 275 275 275 274 275 277 280 280 280 279 279 279 279 279 278 278 278 277 276 275 272 270
290 290 289 290 288 287 285 284 283 282 280 279 277 277 276 277 276 275 274 274 274 273 273 273 274 275 274 275 277 279 279 278 278 278 278 277 277 277 276 276 275 275 274 271
286 286 285 285 284 283 282 281 279 278 277 276 276 275 274 274 274 274 274 275 276 275 273 273 273 274 273 274 276 277 277 277 277 276 276 276 276 276 276 275 274 274 273 272
283 282 282 281 281 280 279 277 277 276 275 274 273 273 273 272 272 273 273 272 271 272 272 272 273 273 273 272 274 276 276 276 275 275 274 275 275 275 273 271 272 273 272 272
280 279 278 277 277 277 276 276 275 274 273 273 273 272 272 272 271 272 276 277 272 270 271 271 270 271 272 272 274 274 274 274 274 274 274 274 274 273 273 272 272 272 271 271
279 278 278 277 277 277 276 275 274 273 272 271 271 271 272 273 272 272 271 273 272 270 272 271 270 267 269 271 273 273 272 272 273 273 273 272 272 272 272 271 271 270 270 269
279 278 278 278 278 276 275 274 274 273 273 272 273 274 274 274 274 275 276 271 272 270 271 270 267 267 268 271 271 271 271 271 271 271 271 270 270 270 270 270 269 269 269 268
279 279 278 277 276 277 277 275 275 274 273 273 271 271 274 275 274 272 271 269 268 269 269 268 267 266 268 270 270 269 270 270 270 270 270 268 269 269 269 268 267 268 267 267
279 278 278 278 279 280 278 277 276 276 275 275 274 273 272 273 274 273 272 271 269 269 271 268 267 266 268 269 269 269 269 269 269 268 269 269 268 268 268 268 267 267 267 266
280 281 280 280 280 280 279 278 279 278 277 277 276 275 274 273 272 271 271 270 270 270 270 270 270 269 269 269 269 269 268 268 268 268 268 267 267 268 267 267 267 266 266 266
280 280 280 279 278 278 278 278 278 278 277 276 276 276 274 273 273 271 271 272 272 271 271 270 270 269 269 269 269 269 268 268 268 267 267 267 267 267 267 267 266 266 265 265

GFSNGP_925_thetae_084.txt.gz
Theta_e
308 309 309 312 316 315 316 320 320 317 314 321 322 323 316 311 308 304 301 299 298 297 296 295 296 297 299 299 302 307 310 311 310 314 315 317 317 316 319 320 319 319 317 316
306 306 308 312 313 315 315 318 318 317 315 319 319 318 314 310 307 303 301 298 297 295 294 294 293 295 296 298 298 300 302 303 305 307 310 308 306 309 311 309 308 309 307 305
307 306 308 314 312 312 313 315 314 316 319 315 313 310 309 306 303 301 298 297 296 294 293 292 292 292 293 293 296 298 299 301 302 302 300 300 300 299 299 299 299 298 298 298
309 308 310 310 310 311 311 316 316 314 316 312 307 302 299 299 299 297 295 295 294 294 292 291 291 291 291 291 292 293 295 297 299 299 298 296 296 294 293 293 293 291 291 292
310 310 311 311 310 311 312 315 311 312 311 311 305 302 297 295 294 293 293 293 291 290 291 291 290 290 290 290 291 291 291 293 295 296 296 295 294 293 292 291 290 289 288 288
307 309 316 316 311 310 310 318 309 309 307 306 308 312 299 293 292 291 290 290 290 290 290 289 289 289 289 289 289 290 290 291 292 293 293 294 294 293 292 290 289 287 285 285
309 310 314 307 309 310 310 313 307 304 301 298 298 295 292 291 291 290 290 290 290 290 290 290 289 288 288 289 289 288 289 289 290 291 291 291 291 292 291 289 288 287 285 284
309 314 313 304 307 310 306 304 303 299 297 294 292 291 291 291 291 292 292 290 290 290 290 290 290 289 289 288 287 287 288 288 288 289 290 290 291 291 290 289 288 287 286 286
307 307 304 301 301 299 300 300 299 298 295 293 292 291 290 290 289 289 291 291 290 290 289 290 290 290 289 288 288 288 287 287 286 286 286 286 286 287 288 288 288 287 286 284
308 302 300 299 298 296 296 296 296 295 294 292 291 290 289 288 288 288 289 289 289 288 288 288 289 289 289 288 287 286 285 284 283 282 282 283 282 282 283 285 285 285 285 283
303 302 300 297 298 297 296 295 294 293 293 292 291 290 289 288 287 286 286 286 286 286 285 285 284 284 287 288 288 287 286 284 283 281 280 279 279 280 279 280 282 281 280 280
303 299 298 296 296 294 294 296 295 293 291 290 288 288 287 286 284 284 284 284 283 283 283 282 283 283 283 285 287 286 286 286 286 283 282 280 278 277 278 278 278 278 278 278
297 296 295 294 295 294 293 292 291 291 291 289 288 286 285 285 284 283 282 281 281 281 280 280 280 281 282 283 283 284 285 285 284 284 284 284 282 279 277 276 276 276 276 277
296 297 296 295 294 293 292 291 290 290 289 288 287 286 285 284 283 283 282 281 280 279 279 278 278 279 280 282 282 282 282 282 282 282 282 282 282 282 281 281 278 276 275 275
295 295 294 294 293 293 292 291 290 289 287 286 286 285 284 283 282 281 282 281 279 278 277 276 277 278 279 280 280 281 281 281 281 281 281 281 281 281 280 280 279 277 277 276
294 295 294 293 292 292 291 291 289 287 285 284 284 283 282 280 279 278 277 277 277 276 276 275 274 276 278 281 282 280 280 281 281 281 281 280 280 280 279 278 276 274 273 274
297 295 293 292 290 289 288 287 286 285 284 283 282 282 280 279 278 276 275 275 274 275 274 274 275 275 277 279 281 281 281 280 280 279 279 279 279 278 278 277 275 273 271 273
290 289 289 289 289 287 285 283 281 280 279 278 277 277 276 276 276 275 275 274 274 273 273 274 274 274 275 277 278 279 279 278 278 278 277 277 277 277 277 276 276 275 273 273
286 286 285 285 285 283 281 280 279 278 277 277 275 274 274 274 274 275 275 276 276 275 273 273 274 274 274 275 277 278 278 278 278 277 277 277 276 276 276 275 275 274 273 273
283 283 282 281 280 280 279 278 277 276 275 274 274 273 273 273 273 274 273 272 272 272 272 272 274 274 273 274 275 276 277 277 276 275 275 275 276 275 273 273 273 273 273 272
280 279 279 278 277 277 277 276 275 274 273 273 273 273 273 272 272 274 276 276 272 272 272 272 270 270 271 273 274 275 275 275 275 274 274 274 274 274 273 273 272 272 272 271
279 278 278 278 278 277 276 275 273 273 272 272 272 273 273 274 273 273 273 274 272 272 273 271 269 268 271 272 273 273 273 273 273 273 273 273 273 273 272 272 271 271 270 270
279 279 279 279 278 276 275 274 274 273 273 274 274 274 274 275 274 275 276 272 272 271 272 270 268 268 270 271 271 271 271 271 271 271 271 271 271 271 270 270 269 269 269 269
280 280 279 277 276 278 278 276 276 275 273 274 272 272 273 275 276 274 272 270 270 269 270 269 268 268 269 271 270 270 270 270 271 270 270 270 270 269 269 269 268 268 268 268
279 278 278 279 280 281 279 278 277 277 276 277 275 275 274 274 274 274 273 272 271 270 271 270 269 268 269 270 270 269 269 270 269 268 268 269 269 269 269 269 268 268 267 266
281 282 281 280 280 281 280 280 279 280 279 278 278 277 275 274 273 272 273 272 271 271 270 271 271 270 269 269 270 269 269 269 269 269 268 268 268 268 268 268 268 267 267 266
281 281 280 280 280 279 278 277 278 279 279 278 278 277 276 275 274 273 272 272 272 272 272 272 271 271 270 269 269 268 269 269 269 268 268 268 267 267 267 267 267 267 266 266

GFSNGP_925_thetae_087.txt.gz
Theta_e
304 303 304 305 309 310 312 315 319 320 320 322 318 314 311 307 304 301 300 298 296 296 295 294 294 295 295 298 300 306 310 315 313 314 318 320 321 321 321 320 318 315 315 314
303 304 305 305 305 308 311 315 318 317 318 317 314 311 308 306 303 300 298 297 295 295 294 293 293 293 293 294 297 301 303 304 306 311 308 309 310 311 313 311 309 309 307 307
303 305 307 308 308 308 313 315 315 317 317 313 308 305 304 302 300 298 296 295 294 293 293 292 291 291 291 293 294 295 299 300 299 299 300 300 299 298 298 298 299 298 299 301
304 305 308 306 309 310 315 313 313 314 310 307 302 298 297 296 296 295 294 293 292 292 291 290 290 290 292 291 292 293 294 296 297 296 295 295 295 293 292 292 292 292 291 293
306 306 307 309 311 310 313 314 308 308 306 305 300 297 295 293 292 292 293 292 290 290 290 289 289 290 291 291 291 291 291 292 294 294 294 293 292 290 289 289 288 288 289 291
307 308 308 311 307 304 306 314 305 303 301 300 304 308 295 292 292 291 290 290 291 290 289 289 289 289 289 289 289 289 290 290 291 292 292 291 290 289 287 287 286 286 286 287
307 305 309 305 302 304 311 309 301 299 296 295 295 293 292 291 291 290 290 290 290 290 289 289 289 288 288 288 287 288 289 290 290 290 290 290 289 289 287 286 285 284 284 284
308 308 309 300 303 305 305 300 298 296 293 292 291 291 290 289 289 291 291 290 290 290 290 290 289 289 288 287 287 287 287 287 287 288 288 289 289 288 287 286 286 285 284 284
305 304 301 298 298 298 298 298 297 295 293 291 290 289 289 288 288 288 290 289 289 289 289 288 289 288 287 287 287 285 285 284 284 284 285 286 286 286 287 286 285 284 283 282
305 300 298 298 297 296 296 295 293 292 291 289 287 287 286 286 286 285 287 287 286 285 285 285 285 286 287 286 285 284 283 282 282 282 282 282 282 283 283 283 283 282 281 280
303 300 297 296 297 297 295 293 292 292 291 290 288 288 287 286 285 284 284 284 284 283 283 283 283 284 286 287 286 284 283 281 280 280 279 279 279 279 280 281 281 279 279 279
299 297 296 296 295 293 293 294 292 290 289 288 286 285 285 284 283 282 282 282 281 281 281 281 281 282 284 285 286 285 285 284 282 280 279 278 278 278 279 279 279 279 278 278
295 295 293 294 294 292 292 291 290 289 288 287 286 285 284 283 283 282 281 280 279 279 279 279 280 281 282 283 284 284 283 283 283 283 281 280 278 276 276 276 277 277 278 279
295 295 294 293 293 292 291 290 289 288 288 287 285 284 283 283 282 281 280 279 278 277 278 278 279 280 280 282 282 282 282 282 282 282 282 282 281 279 278 276 275 276 277 277
294 293 293 293 292 292 292 289 287 286 285 284 284 282 281 280 279 278 279 278 277 276 275 277 277 278 280 280 281 281 281 281 281 281 281 280 280 280 278 277 275 275 276 276
294 294 293 292 290 289 289 288 286 285 284 283 282 281 279 278 277 276 276 276 275 275 275 275 275 277 279 281 280 280 281 281 281 280 280 280 279 278 276 275 273 273 274 275
295 292 293 289 287 286 285 285 284 282 280 279 280 280 278 277 276 274 274 274 274 274 274 275 274 276 278 279 280 280 279 279 279 279 279 278 278 277 276 274 272 273 273 274
288 287 286 287 285 283 282 280 279 278 277 277 276 276 276 275 275 275 274 274 273 273 274 274 274 275 276 278 279 278 278 278 277 277 277 277 277 276 276 274 274 273 273 273
284 284 284 283 282 280 279 278 277 276 276 275 275 273 274 274 274 274 275 274 273 272 272 273 274 274 275 276 277 277 277 277 277 276 277 276 276 275 275 274 274 273 272 272
281 279 279 279 279 278 276 276 275 274 274 273 273 273 273 273 273 273 273 272 271 272 272 272 273 272 273 274 275 276 276 276 275 275 275 275 274 273 273 273 273 272 272 271
278 278 276 276 276 276 276 275 274 274 274 274 273 273 272 272 273 274 272 272 271 272 272 272 271 271 272 274 274 274 274 274 274 274 274 274 273 273 273 272 272 271 271 270
278 277 277 277 276 275 274 274 273 272 272 272 273 273 273 274 273 272 272 273 271 272 272 271 270 270 271 272 272 272 272 272 272 272 272 272 272 272 271 271 271 270 270 270
278 278 278 277 275 275 274 273 273 273 274 274 274 274 274 274 274 273 272 271 271 271 271 269 269 269 271 271 271 271 271 271 271 271 271 270 270 270 270 269 269 269 269 268
279 279 277 277 275 275 274 274 275 274 274 274 274 273 274 274 274 273 272 272 271 269 270 270 269 268 270 270 270 269 270 270 270 270 269 269 269 269 269 269 268 268 267 267
279 278 277 277 277 279 278 277 277 276 276 275 275 275 274 274 274 273 272 272 271 271 270 270 270 269 269 270 270 269 269 269 269 268 268 268 268 268 268 268 268 267 267 267
279 279 279 280 280 279 279 278 278 278 278 278 277 276 275 274 273 273 273 272 271 271 271 271 271 270 270 269 269 269 269 269 269 269 268 268 268 268 268 268 268 267 267 266
281 281 280 280 279 278 278 277 277 276 276 276 275 275 276 275 274 274 273 272 272 272 272 272 272 271 271 270 269 269 268 268 269 269 268 268 268 267 266 267 267 267 266 266

GFSNGP_925_thetae_090.txt.gz
Theta_e
303 303 303 304 304 304 305 307 313 316 317 318 315 312 308 304 302 300 298 296 295 294 294 293 294 294 294 296 298 303 308 309 312 320 323 323 323 322 321 321 318 317 317 318
299 300 302 303 304 304 305 305 309 311 318 308 308 307 305 303 300 299 297 295 294 293 292 292 292 293 294 294 295 299 300 300 302 307 312 313 315 313 314 312 310 310 308 307
299 302 303 304 306 305 305 310 314 316 316 309 304 301 299 299 297 296 294 294 293 292 291 290 290 291 292 293 294 295 297 297 297 297 298 297 300 302 302 301 301 300 300 302
303 303 305 306 308 309 312 311 311 310 310 305 299 296 295 294 294 294 293 292 292 291 290 290 289 289 291 292 293 293 293 294 294 294 293 292 292 292 293 294 294 293 293 293
303 305 304 305 310 307 306 308 304 305 306 301 297 296 294 293 292 292 292 292 290 289 289 289 289 289 289 290 290 290 290 291 292 292 291 289 288 288 288 289 289 289 290 290
305 306 304 306 302 303 304 309 303 300 299 301 299 306 294 292 291 291 291 290 290 289 289 289 288 288 288 288 288 288 288 289 290 290 290 289 287 287 286 286 285 286 287 287
304 305 306 301 301 301 310 305 298 295 294 296 295 294 292 292 291 290 290 290 290 290 289 289 288 288 287 287 287 286 287 287 289 289 288 288 287 286 286 285 285 285 284 285
307 307 307 298 300 302 302 298 295 293 292 291 291 290 289 289 291 290 290 289 288 287 286 288 288 288 287 286 285 286 287 286 286 287 287 287 287 286 285 285 284 284 283 283
303 301 300 297 298 297 297 297 295 293 291 290 288 287 286 285 284 286 288 286 286 285 285 285 286 287 286 285 284 284 283 283 284 285 285 286 285 285 284 284 283 283 283 283
301 298 297 298 297 295 294 292 291 290 288 286 285 284 283 283 283 283 284 284 284 284 284 284 284 285 285 284 283 283 282 281 282 282 282 282 283 283 282 282 282 281 281 282
299 297 296 295 294 295 292 291 290 290 289 287 286 284 284 283 282 282 282 282 281 282 282 282 283 284 285 286 284 282 281 280 280 280 280 280 280 280 280 280 280 280 280 281
295 295 294 294 293 292 293 291 289 288 287 285 284 283 281 281 281 281 280 280 280 279 279 280 281 282 283 285 285 284 283 281 280 279 278 278 278 279 280 280 279 279 280 280
292 293 293 293 291 291 290 289 287 286 285 285 284 283 282 281 281 281 279 278 278 278 278 279 280 281 282 282 283 283 283 282 282 280 278 277 277 277 277 278 279 280 280 280
296 293 293 293 292 291 290 288 287 287 286 284 283 282 282 281 280 279 278 277 277 277 277 278 279 279 281 281 281 282 282 282 282 282 280 278 277 276 276 276 276 277 278 278
293 293 293 292 292 290 287 286 285 285 284 282 281 280 279 279 278 278 277 277 276 276 276 276 277 278 280 280 281 281 281 281 281 280 280 280 278 276 276 276 276 276 276 276
295 293 291 289 289 289 286 285 284 283 282 281 280 279 278 277 276 275 275 275 274 274 274 275 275 276 279 280 280 280 280 280 280 280 279 279 278 276 275 274 274 274 274 274
294 292 289 288 286 285 284 283 282 281 280 280 279 278 277 275 274 274 273 273 274 274 274 274 274 276 278 279 280 279 279 279 279 278 278 278 277 275 273 273 273 274 273 273
287 286 287 285 283 282 281 279 279 278 277 276 276 276 275 275 274 274 273 273 273 274 274 274 273 275 277 278 278 278 278 277 277 277 277 276 276 275 274 273 273 273 272 272
283 283 282 281 280 279 278 276 275 275 275 275 275 274 274 274 274 274 274 273 272 272 272 273 273 274 275 276 277 277 277 277 276 276 276 276 275 275 274 273 273 272 272 271
279 279 278 277 277 276 274 274 274 274 273 273 273 273 273 273 273 273 273 272 272 271 272 272 271 272 274 274 275 275 275 274 275 275 275 274 274 274 273 273 272 272 271 270
276 276 275 275 274 275 275 275 274 274 274 273 273 272 272 272 272 273 273 272 271 272 272 272 271 271 272 273 273 273 274 274 274 274 274 274 273 273 272 272 272 271 270 270
275 274 275 275 274 274 274 273 273 273 272 273 273 274 274 273 272 273 273 273 271 271 272 270 269 270 271 271 271 271 271 272 272 272 272 272 272 271 271 271 270 270 270 269
277 276 275 275 274 274 273 273 272 273 274 274 274 274 274 274 274 272 272 272 271 270 270 270 269 269 270 270 270 270 270 270 270 270 270 270 270 270 269 269 269 269 268 268
278 277 277 275 274 274 274 273 274 274 274 273 273 274 275 275 274 273 273 272 271 270 270 270 269 269 270 270 269 269 269 269 269 269 269 269 269 269 269 269 268 268 267 267
278 277 276 275 275 276 276 276 275 275 274 274 274 274 274 274 274 273 272 272 271 271 270 270 270 269 269 269 269 269 269 269 269 268 268 268 268 268 268 268 268 267 267 267
278 277 277 278 278 279 279 277 277 277 276 276 276 275 275 274 274 273 272 272 272 271 271 271 271 270 270 269 269 269 269 269 269 268 268 268 268 267 267 267 267 267 267 266
279 279 280 279 278 277 277 277 276 276 275 275 274 274 275 274 274 274 273 273 272 272 272 272 271 271 271 270 270 269 269 268 268 268 268 268 268 267 267 266 266 266 266 266

GFSNGP_925_thetae_096.txt.gz
Theta_e
301 301 300 300 298 296 299 300 300 298 300 301 307 307 303 300 298 297 295 294 293 293 292 291 291 291 291 292 294 296 296 296 296 300 309 313 321 323 323 322 320 318 317 316
300 299 297 297 298 298 300 300 301 301 301 304 306 302 299 297 296 295 294 293 292 292 291 290 290 290 290 291 291 292 294 294 295 297 298 298 299 313 315 313 312 312 311 311
297 299 298 297 300 306 305 306 307 303 302 305 301 298 296 295 294 294 292 292 291 291 290 289 289 289 289 289 290 290 291 291 292 294 293 294 293 295 299 300 303 303 302 302
298 298 295 302 304 304 304 305 302 305 307 306 298 295 294 293 293 292 292 291 290 290 289 288 288 288 287 287 288 288 289 289 290 291 292 295 292 289 290 292 292 292 292 293
295 299 299 302 302 301 303 303 300 301 301 297 295 293 293 292 291 291 291 290 289 289 288 287 286 286 286 286 286 286 287 287 288 289 290 290 291 290 289 288 287 287 288 289
301 298 298 299 299 299 301 304 297 296 298 298 297 303 293 291 290 289 288 287 287 287 287 287 286 285 285 284 284 284 284 285 286 286 287 287 287 287 287 287 287 287 286 287
300 300 299 297 297 298 305 300 295 294 294 298 293 293 291 289 287 286 286 286 285 286 286 285 285 284 283 283 283 283 284 284 285 285 285 285 285 285 285 285 285 285 285 285
302 302 301 295 297 297 297 295 294 292 291 290 289 287 285 284 284 284 284 284 284 284 284 285 284 284 283 282 282 283 284 283 283 284 284 284 284 284 284 284 284 284 284 283
300 297 297 295 295 293 293 293 292 290 288 287 285 283 282 282 281 280 281 282 282 282 283 282 284 284 283 282 282 282 282 282 282 283 283 283 283 282 282 283 283 283 283 283
299 297 295 295 293 292 290 289 288 287 286 284 283 281 280 278 278 278 279 280 280 280 280 281 281 283 284 283 282 282 281 280 280 281 281 282 282 282 282 282 282 282 283 283
297 295 294 293 292 291 289 288 286 285 285 284 282 281 281 280 278 278 278 278 278 279 279 279 280 282 282 283 282 281 281 280 280 279 280 281 281 281 281 282 283 282 283 283
293 294 294 293 292 291 289 288 287 285 284 282 282 281 280 279 279 278 277 277 277 277 277 278 279 280 281 282 283 282 280 279 279 279 279 279 279 279 280 281 282 283 283 282
290 292 291 291 289 288 287 286 285 284 283 282 281 281 280 279 278 278 277 276 276 276 276 277 279 279 280 281 281 282 281 281 279 278 279 278 279 278 278 279 280 280 280 280
292 291 291 291 289 288 287 285 284 283 282 281 280 280 279 278 278 277 276 276 275 276 276 277 278 279 280 281 281 280 280 280 279 277 277 277 277 277 278 277 276 277 277 277
293 291 290 288 287 286 285 284 284 283 281 280 279 279 278 277 276 275 275 274 274 274 274 276 277 278 279 280 280 280 280 279 280 279 277 276 276 276 276 276 275 274 275 275
292 291 290 288 286 285 284 284 283 282 281 279 278 277 276 274 273 273 273 273 272 271 272 274 275 276 278 279 279 279 279 279 279 279 278 277 276 275 275 274 273 273 273 273
289 289 289 288 286 285 284 282 282 281 279 278 277 276 275 274 273 272 272 272 272 272 272 272 273 275 277 277 277 277 277 278 278 278 277 276 274 273 274 274 273 272 271 271
287 287 287 286 285 283 281 280 279 278 277 276 275 274 274 274 272 272 272 272 272 272 272 271 272 274 275 276 276 276 276 276 276 276 276 275 274 274 274 273 272 272 271 270
285 284 284 283 281 279 278 276 275 275 274 274 274 273 273 273 273 273 272 272 272 272 271 271 271 272 273 274 275 275 275 276 275 275 275 274 274 273 273 273 272 272 271 270
280 279 279 278 278 277 274 274 274 274 274 274 273 273 272 272 272 272 272 271 271 271 271 270 270 271 272 272 273 273 274 274 274 274 274 274 274 273 272 272 272 271 270 270
275 275 274 274 273 274 274 274 274 273 272 272 273 273 273 272 273 273 273 272 271 271 270 270 269 270 270 271 271 271 271 272 272 272 272 272 272 273 272 272 271 271 270 270
273 272 272 273 273 273 273 273 273 273 272 272 272 273 273 273 273 273 273 272 272 271 270 270 269 269 269 270 269 270 270 270 270 270 270 270 271 271 271 271 270 270 269 269
273 273 273 274 273 273 272 272 272 272 273 274 274 274 274 273 274 273 273 272 272 271 270 270 270 269 269 269 269 269 268 269 269 269 269 269 269 269 269 269 269 269 269 268
274 274 274 273 273 273 272 272 273 274 274 273 274 274 274 274 274 274 273 272 272 271 270 270 270 270 269 269 269 269 269 268 268 268 268 268 267 268 268 268 268 268 267 267
275 274 274 273 274 275 275 275 275 275 275 275 275 275 274 274 273 274 273 272 272 272 271 271 270 270 270 270 270 269 269 268 268 268 268 268 268 267 267 267 267 267 267 267
276 275 275 276 277 277 277 277 277 277 277 276 276 275 275 275 275 274 274 273 273 272 272 272 272 271 271 271 270 270 270 269 269 268 268 268 268 268 268 267 267 267 266 266
277 277 276 276 278 278 279 278 277 276 276 275 273 273 273 273 273 274 273 273 273 272 272 272 271 271 271 270 270 271 270 270 270 269 269 268 268 268 267 267 267 267 266 266

GFSNGP_925_thetae_099.txt.gz
Theta_e
301 301 301 301 300 299 298 298 299 296 298 300 300 303 303 300 298 296 295 294 293 293 292 291 290 290 290 290 290 291 293 294 295 295 299 302 312 318 321 323 323 322 320 319
300 300 300 299 299 297 298 298 300 302 304 304 303 302 300 297 296 295 294 293 292 291 291 290 289 289 288 289 289 290 290 291 293 293 295 297 296 307 300 312 314 315 314 314
296 299 298 297 299 298 303 304 305 305 305 305 302 300 297 295 295 294 292 292 291 290 290 289 288 288 288 287 287 288 289 289 290 292 292 293 295 293 295 292 302 301 300 302
297 298 295 303 302 303 302 303 302 302 304 305 300 295 294 293 293 293 292 290 290 289 288 288 287 286 287 286 286 286 286 287 287 288 290 291 294 294 292 290 289 291 292 293
299 300 299 303 301 300 301 302 297 297 300 296 294 293 293 292 291 290 289 288 287 287 286 286 286 285 285 285 285 285 285 285 286 286 286 288 290 291 291 290 287 287 288 289
301 301 301 299 298 298 299 303 295 294 295 296 296 300 293 290 289 287 287 286 287 286 285 285 284 284 284 284 284 283 283 284 284 285 285 285 286 286 288 288 286 286 286 286
301 302 302 297 296 297 303 299 294 292 292 297 292 291 288 287 286 285 285 286 285 285 285 285 284 283 283 283 282 282 282 282 283 284 284 284 285 285 285 285 285 284 284 283
301 302 302 295 296 297 295 294 292 291 290 289 287 286 285 284 283 283 284 284 284 284 284 284 284 284 283 283 282 281 281 282 282 282 282 283 284 284 284 285 284 284 283 282
300 299 296 294 293 292 292 291 291 289 287 286 285 283 282 282 281 281 282 282 283 283 283 283 283 283 284 283 282 282 281 281 282 282 282 282 283 283 284 284 284 284 284 284
298 296 295 294 292 291 290 289 287 286 286 284 283 282 281 280 280 279 279 280 281 281 281 281 281 282 282 283 282 283 282 282 282 282 281 282 283 283 284 284 284 285 285 284
297 295 294 293 292 290 289 287 286 285 285 284 282 282 282 281 280 279 278 278 279 279 280 279 280 281 281 282 283 282 281 282 282 281 281 281 281 282 283 283 283 284 284 284
297 295 294 293 291 290 289 287 286 285 284 282 281 281 280 279 279 278 277 277 277 277 277 277 278 279 280 280 282 283 282 281 280 281 281 280 281 281 280 281 281 281 281 281
294 293 292 290 289 288 286 285 284 283 283 282 281 280 280 279 279 278 277 276 275 274 276 277 278 279 280 280 280 280 280 280 279 279 279 280 279 280 280 278 278 278 279 279
291 291 291 290 288 287 286 284 283 282 282 281 281 280 280 279 278 277 276 276 275 274 275 276 277 277 278 279 279 280 279 279 278 277 277 278 278 278 278 278 277 276 274 275
292 291 291 289 287 286 285 284 283 282 281 280 280 279 278 277 275 274 274 274 274 273 274 275 276 276 278 278 278 278 278 278 278 277 276 276 276 276 276 276 275 275 275 274
291 290 289 288 287 286 285 284 283 282 281 280 278 277 276 274 273 272 272 272 272 271 271 273 274 275 276 277 277 277 277 278 278 277 276 276 275 276 275 275 274 273 273 273
291 291 290 288 287 285 285 283 282 281 279 278 277 276 275 274 273 272 271 271 271 271 271 271 272 274 275 276 276 276 277 277 277 276 275 275 275 275 274 274 273 272 271 271
289 290 290 288 286 284 282 281 280 279 277 276 274 274 273 273 272 271 271 271 271 272 271 270 271 272 274 275 275 275 275 276 276 276 275 275 274 274 274 273 273 272 271 270
287 287 286 285 283 281 279 278 276 275 274 274 274 272 272 272 272 271 271 272 272 272 270 270 270 271 272 272 273 273 274 274 274 274 274 274 274 273 273 273 272 271 271 270
282 281 280 279 278 277 275 274 274 273 273 273 273 272 271 272 272 272 272 271 271 270 269 269 269 270 271 271 271 271 271 272 272 272 272 272 272 272 272 272 271 271 270 270
278 276 275 273 272 274 274 274 274 273 272 273 273 273 272 272 273 273 272 273 271 270 270 270 269 269 270 270 270 270 270 270 270 270 270 270 270 271 271 271 270 270 269 269
274 272 271 272 272 270 272 273 273 272 272 272 272 273 273 273 273 272 272 272 271 270 270 270 269 269 269 269 269 269 269 269 269 269 269 269 269 269 269 269 269 269 269 268
273 272 272 272 273 272 273 273 272 272 273 274 274 273 273 273 273 274 274 272 271 271 270 270 270 269 269 269 269 269 268 268 268 268 268 268 267 267 267 268 268 268 268 268
272 272 273 273 272 272 272 272 273 273 273 273 273 273 273 274 274 273 273 272 272 271 271 270 270 270 270 270 269 269 269 268 268 268 268 268 268 267 267 267 267 267 267 267
274 273 272 273 274 275 274 274 274 274 275 274 274 275 275 274 274 273 273 273 272 272 272 271 271 271 271 271 270 270 270 270 269 269 268 268 268 268 267 267 267 267 267 266
275 275 275 276 276 276 276 275 276 276 275 275 274 273 273 273 273 273 273 273 273 273 272 272 271 271 270 270 270 270 270 270 269 269 269 269 268 268 268 268 267 267 267 266
276 275 276 276 277 278 278 277 276 275 275 274 273 273 273 273 273 273 273 272 272 271 270 270 269 268 268 267 267 267 268 267 268 268 268 268 268 268 268 267 267 267 267 266

GFSNGP_925_thetae_102.txt.gz
Theta_e
301 301 301 302 302 301 301 301 301 300 299 300 304 308 307 304 302 300 298 296 296 296 295 294 293 292 291 289 289 289 290 291 292 294 295 295 304 306 315 323 323 323 322 322
300 300 300 300 300 300 300 300 299 300 302 307 306 306 303 302 300 298 297 295 294 294 293 293 291 290 290 290 288 288 288 289 290 291 293 293 296 298 296 304 306 312 316 315
297 298 298 298 300 300 300 301 304 306 306 304 305 305 301 299 297 296 294 293 292 292 291 290 289 289 289 289 289 287 287 287 288 289 290 291 292 295 293 293 293 292 299 306
298 299 302 305 304 304 304 304 304 303 302 301 300 297 296 295 294 293 292 290 290 289 289 288 288 288 288 288 288 288 286 286 286 287 287 288 290 290 293 292 291 291 291 292
305 304 302 304 302 302 303 304 298 299 299 298 296 296 294 292 291 290 289 289 288 288 288 287 287 287 287 287 287 287 286 286 286 285 286 286 286 287 288 289 290 286 287 289
303 305 304 305 300 299 300 304 296 295 296 299 298 304 294 290 289 288 288 287 288 287 286 286 285 286 286 286 285 285 285 284 285 285 285 286 286 286 285 285 285 285 285 284
304 305 305 299 299 298 304 302 294 293 293 296 295 293 289 288 287 287 287 287 287 287 286 286 286 285 285 285 284 284 284 284 284 285 285 286 286 286 286 285 285 284 283 282
303 305 307 297 299 302 297 295 293 292 291 290 289 288 286 285 285 285 286 286 286 286 286 285 286 286 286 285 284 284 284 284 284 284 285 286 286 286 286 287 286 285 284 283
303 302 297 295 294 293 293 294 292 290 289 288 287 285 285 284 284 284 285 285 286 286 285 285 285 285 286 285 285 285 284 284 284 284 284 285 285 286 287 287 287 286 286 285
301 298 296 294 292 292 291 290 289 288 288 286 285 284 284 284 283 283 282 283 284 285 284 284 284 284 284 285 286 285 285 285 284 284 284 283 285 284 284 285 286 286 286 285
299 297 295 294 293 291 289 289 288 287 286 286 285 285 285 284 283 282 281 281 281 282 282 282 282 282 283 284 285 285 284 285 285 284 284 284 281 281 282 281 282 284 283 283
303 298 297 294 292 290 289 288 287 286 286 285 284 284 283 283 282 281 280 279 279 279 280 280 280 280 280 282 282 283 283 283 282 284 284 284 284 282 279 279 280 280 280 281
296 295 294 292 290 289 288 287 286 286 285 285 284 283 283 282 281 280 280 279 278 277 277 278 278 277 277 279 280 281 281 282 282 281 282 282 282 282 283 281 278 276 278 278
294 293 292 291 290 288 287 286 286 285 284 284 284 283 283 282 281 280 279 278 277 277 277 276 276 276 277 278 279 280 281 280 281 280 281 281 281 281 280 280 280 279 276 275
294 294 293 290 289 288 286 286 286 285 284 283 283 282 282 280 279 278 277 277 276 276 275 275 275 275 276 277 279 279 279 280 280 280 279 279 280 280 279 279 279 278 278 277
293 293 292 290 289 288 288 287 286 285 284 282 281 280 279 278 276 275 274 273 274 273 272 272 274 274 275 276 279 280 280 278 279 279 279 279 279 279 279 278 278 277 276 275
293 292 291 291 290 289 288 287 286 284 283 282 280 279 278 277 276 274 273 272 271 272 271 271 272 273 274 275 278 278 279 279 278 279 278 278 278 278 278 278 277 276 275 272
294 293 292 291 289 288 286 284 283 282 281 279 277 275 275 275 274 272 272 272 272 272 271 270 271 272 273 274 275 276 277 277 277 277 277 277 277 277 277 276 276 275 275 273
292 292 291 289 287 285 284 282 280 278 275 275 275 274 273 273 273 272 272 273 274 275 271 270 271 272 273 272 273 275 275 275 276 276 276 276 276 276 276 275 275 274 274 273
288 287 286 285 283 282 280 277 276 275 274 274 273 273 273 271 272 272 272 273 272 272 270 270 271 272 271 271 271 273 273 274 274 274 274 274 274 275 275 273 273 273 273 273
284 282 280 277 276 276 276 275 274 273 273 273 274 274 274 272 272 273 275 277 273 271 270 270 270 271 271 271 272 272 272 272 272 273 272 273 273 273 273 273 273 273 273 272
279 277 275 274 274 274 273 274 273 272 272 272 273 273 273 274 273 273 273 274 273 271 271 272 271 270 270 270 271 271 271 271 271 271 271 271 271 271 271 271 271 271 271 271
277 276 275 274 275 274 273 272 272 273 273 273 273 274 276 277 277 277 277 273 273 272 272 272 271 270 270 271 271 271 271 271 271 271 271 270 270 270 270 270 270 270 270 270
277 277 276 275 273 274 275 273 274 274 274 274 274 274 275 277 277 276 275 273 272 272 273 272 271 271 270 271 272 271 271 271 271 271 271 270 270 270 269 269 269 269 269 269
277 276 275 275 277 278 277 275 276 275 275 276 276 275 274 275 275 276 275 275 273 272 273 272 271 271 271 271 271 271 271 271 271 271 271 270 270 270 269 269 269 269 268 268
277 277 277 278 279 278 278 278 279 279 278 278 277 275 275 274 274 274 274 273 273 273 273 272 270 270 271 270 269 269 269 269 269 269 269 269 270 270 269 269 269 268 268 268
278 278 279 279 279 279 279 280 280 278 277 277 276 275 274 274 274 274 273 273 272 272 271 270 270 268 268 268 268 268 268 267 267 266 267 267 267 268 268 268 268 268 268 267

GFSNGP_925_thetae_105.txt.gz
Theta_e
303 303 303 305 305 305 304 304 304 303 302 302 307 308 309 306 305 303 300 299 298 297 297 295 294 293 293 292 292 289 288 289 289 290 291 293 294 295 302 304 315 319 325 325
303 302 302 301 301 301 302 302 302 302 301 308 307 307 306 303 302 300 298 296 295 295 294 293 292 292 292 291 291 289 288 288 288 288 289 290 291 292 297 295 298 300 306 307
301 300 300 300 302 302 301 301 302 304 307 305 305 302 300 300 298 296 295 294 293 292 291 291 290 290 291 290 290 289 288 287 287 287 288 288 289 289 291 291 295 293 292 294
301 301 300 306 305 305 306 305 306 305 304 302 300 297 296 295 295 293 293 291 291 290 290 289 289 289 290 289 288 288 287 287 287 287 287 287 287 286 287 288 289 290 289 289
306 304 305 305 304 304 304 306 300 301 301 300 298 297 294 292 291 291 290 290 289 288 289 288 288 288 288 288 287 287 286 286 287 287 287 287 287 286 285 284 285 285 287 288
305 307 305 308 302 302 302 306 298 297 298 298 299 303 295 291 290 289 289 289 289 288 287 288 287 287 287 287 286 286 286 286 286 287 287 288 287 287 286 285 284 283 283 284
306 306 306 302 301 301 306 303 296 294 294 297 299 294 290 289 288 288 288 288 288 288 288 287 288 287 287 286 286 286 286 286 286 286 287 287 288 288 288 287 286 285 284 282
305 307 309 300 301 302 298 296 294 293 293 292 291 289 288 287 287 287 288 288 288 288 287 287 287 288 288 287 287 286 286 286 285 285 286 286 286 287 288 288 287 287 286 285
305 305 297 297 295 294 295 295 293 292 291 290 289 287 287 286 286 285 286 287 287 287 286 286 286 286 287 288 288 288 287 287 286 285 284 285 284 284 285 287 286 286 286 285
303 299 297 295 294 293 293 292 291 291 289 288 287 286 286 286 285 284 284 285 286 286 285 285 285 285 285 286 287 287 287 287 287 286 285 283 283 283 282 282 284 284 283 284
300 297 297 295 294 292 291 290 289 289 288 288 287 287 287 286 285 284 283 283 283 284 284 283 282 283 283 284 285 286 285 285 286 286 286 285 282 281 281 280 280 281 282 280
306 300 300 296 293 292 291 290 289 289 288 287 287 286 285 285 284 283 282 282 281 281 281 281 280 280 281 282 283 284 284 284 284 284 285 284 284 283 280 280 278 279 279 279
299 298 296 293 292 291 290 289 289 289 288 288 287 286 285 284 284 283 282 281 280 279 279 279 279 278 279 281 282 283 282 283 283 283 283 283 283 283 283 281 281 279 277 277
296 295 293 293 292 291 290 289 288 287 287 287 287 286 285 285 283 282 281 280 279 278 278 277 277 277 277 279 281 281 282 282 282 282 282 282 282 282 282 282 282 281 279 278
295 296 295 293 291 290 289 288 288 288 287 286 286 286 285 283 282 280 280 280 278 277 276 275 275 275 276 278 281 281 281 280 282 282 281 281 282 282 281 281 280 280 279 278
295 295 293 292 291 290 290 289 289 288 286 285 284 283 282 281 279 278 276 275 276 275 274 273 274 274 275 276 279 281 281 280 280 281 281 281 281 281 281 280 280 279 277 275
294 294 293 292 291 291 290 290 289 287 286 285 283 282 281 279 278 276 275 274 274 273 273 273 274 274 274 275 278 279 280 280 279 280 280 280 280 280 279 279 279 278 277 274
295 294 294 293 292 291 289 288 286 286 285 283 280 278 277 277 276 275 274 274 275 274 273 272 273 274 274 273 275 277 278 278 278 278 278 278 278 278 278 278 277 277 277 276
294 294 293 292 290 289 287 286 284 282 278 277 277 277 276 276 275 275 275 276 277 277 273 273 273 274 274 273 273 276 276 277 277 277 277 276 277 277 277 276 276 276 276 275
294 292 291 289 288 286 284 281 279 278 278 277 275 275 275 274 274 274 275 275 274 273 273 272 274 274 273 273 274 275 275 275 275 275 275 275 275 275 276 276 275 275 275 275
289 288 286 284 282 281 280 279 277 276 275 275 277 276 276 274 274 274 277 280 275 273 272 273 273 273 273 272 274 274 274 274 274 274 274 274 274 274 274 274 274 274 275 274
284 282 281 279 279 278 277 278 276 275 275 276 275 274 275 275 275 275 275 277 276 273 274 274 273 271 271 272 274 274 274 273 273 273 273 273 272 272 272 272 272 272 272 272
281 280 279 278 278 278 277 275 274 275 274 274 274 276 279 279 279 280 280 275 276 274 274 275 273 271 271 272 274 274 273 273 273 273 273 273 272 272 272 271 271 271 271 271
281 280 278 279 276 276 276 275 276 276 276 276 276 276 277 279 280 278 277 276 274 274 274 274 273 272 271 272 273 273 273 273 273 273 273 273 273 272 272 271 271 271 270 270
281 280 278 277 279 279 278 278 278 277 277 278 277 276 276 277 277 277 277 276 275 274 275 274 272 271 272 273 272 271 271 271 271 271 271 271 271 271 272 271 271 271 270 269
280 280 279 280 282 280 279 279 280 280 280 280 279 278 277 276 276 276 276 274 274 274 275 274 272 271 271 271 270 270 270 270 269 269 268 269 269 270 270 269 270 270 270 270
281 280 281 282 281 281 281 282 282 280 280 280 279 277 277 276 276 275 274 275 274 273 273 272 271 270 269 268 269 268 268 267 267 266 266 266 266 266 266 265 266 266 267 267

GFSNGP_925_thetae_108.txt.gz
Theta_e
308 305 305 307 306 306 305 306 308 306 304 308 309 310 307 305 304 302 299 298 297 295 294 293 292 292 292 292 291 290 289 289 289 289 289 288 289 290 291 293 297 299 301 314
307 305 304 303 302 303 304 304 303 302 303 307 305 304 303 302 301 299 297 295 294 293 292 291 291 291 291 290 290 289 288 288 288 288 288 288 287 287 288 289 291 293 294 296
305 304 301 301 303 302 303 303 304 304 307 304 302 300 299 299 297 295 294 292 291 291 291 290 290 290 290 289 288 288 288 288 288 288 288 288 287 286 285 285 287 288 290 292
303 302 300 307 305 305 305 307 305 305 304 302 299 297 295 294 293 292 291 290 290 289 289 289 288 288 288 288 287 287 287 287 288 288 288 288 288 286 285 284 284 284 285 287
303 303 307 305 305 304 304 305 301 302 301 301 298 295 293 291 290 290 290 290 289 288 288 288 287 287 287 287 287 287 287 287 287 287 287 288 288 288 287 285 284 283 283 283
306 306 306 307 303 303 303 305 298 297 297 298 299 301 293 290 290 289 289 289 289 287 288 288 288 288 287 287 287 287 286 286 286 287 286 287 288 287 288 287 286 285 284 283
306 306 306 303 302 302 306 302 296 294 294 298 296 293 290 288 288 288 289 289 288 288 288 287 288 288 288 288 287 287 287 286 285 285 285 285 285 286 287 287 286 285 284 284
306 307 308 300 302 304 299 296 294 292 293 292 290 288 287 287 287 287 288 289 288 288 287 287 287 287 288 289 288 288 287 287 285 284 284 284 283 283 284 285 285 285 284 283
305 304 298 297 296 295 297 295 293 291 290 290 289 287 287 286 286 286 286 287 287 287 286 285 285 285 286 286 287 287 287 287 287 285 283 283 282 281 282 282 283 282 282 282
303 299 296 295 294 294 294 292 291 291 289 288 287 287 286 286 286 285 285 285 285 285 284 283 283 283 284 285 286 286 285 286 286 286 284 282 282 281 280 280 280 281 280 280
301 298 296 295 294 292 291 290 290 289 289 288 288 287 287 286 285 284 284 283 283 283 282 281 281 281 282 283 284 285 285 284 285 285 285 284 281 281 280 279 279 279 279 279
307 300 300 296 293 292 291 290 290 289 289 288 287 286 286 285 284 283 282 282 281 281 280 280 279 279 280 281 282 283 283 284 283 283 283 283 283 282 280 280 280 279 278 278
301 300 296 294 293 292 291 291 290 290 289 288 287 286 285 285 284 283 282 281 280 279 278 277 277 277 278 280 281 281 282 283 282 282 282 283 283 282 282 281 281 279 279 279
297 295 293 293 292 292 291 290 289 289 288 288 287 287 286 285 283 282 281 280 279 277 276 276 275 275 277 280 281 281 280 281 282 282 282 282 282 282 282 282 281 280 277 277
296 297 295 294 292 291 290 289 289 288 288 288 287 287 285 284 282 280 280 279 278 276 275 275 274 274 275 278 280 282 281 280 281 282 281 281 281 281 281 281 280 279 276 275
296 295 294 293 292 291 290 290 289 288 288 287 286 284 283 281 279 278 277 276 276 275 274 274 274 274 274 277 279 280 280 280 280 280 280 280 280 280 280 280 279 279 276 274
296 295 294 292 291 291 290 290 289 288 287 285 284 283 281 280 278 276 275 275 274 274 273 273 274 275 274 275 278 278 279 279 278 279 279 279 278 279 279 279 278 277 276 275
296 295 294 293 292 291 291 290 288 287 285 282 280 279 278 278 276 275 275 276 276 274 273 273 274 275 274 274 276 277 277 277 277 277 277 277 277 277 278 277 277 277 276 276
295 295 294 292 291 290 288 287 283 280 279 279 278 277 276 276 276 276 276 277 277 276 274 274 275 275 274 274 275 276 276 276 276 276 275 275 276 275 276 276 276 276 276 275
294 293 291 290 289 287 283 281 280 279 278 277 276 275 275 275 275 275 276 274 273 273 274 273 274 274 273 274 275 275 275 275 275 275 274 274 274 274 274 274 274 274 274 275
291 288 286 285 283 281 281 280 278 277 276 276 277 276 276 275 275 277 278 279 275 274 274 274 273 272 272 273 274 274 274 274 274 274 274 274 273 273 273 273 272 273 273 272
287 285 283 281 281 280 278 278 277 276 277 277 276 276 275 275 275 276 276 277 276 275 275 276 274 272 272 272 274 274 274 274 274 274 274 273 273 273 272 272 272 272 271 271
283 282 281 280 280 280 278 276 276 276 276 275 275 276 279 280 279 280 280 276 277 275 275 275 274 273 272 272 273 274 273 273 273 272 273 272 272 273 273 272 272 271 271 271
282 281 280 280 278 277 277 276 276 276 275 276 277 277 279 280 281 279 278 276 275 275 274 274 273 272 272 273 273 272 272 271 271 270 270 270 270 270 271 271 272 271 271 271
281 281 280 278 280 279 278 278 278 278 278 278 277 276 277 278 278 277 276 276 276 274 275 274 272 271 272 271 270 270 270 270 269 269 268 268 268 268 268 267 267 267 268 270
282 281 280 281 281 280 280 279 280 279 280 280 279 279 278 277 277 277 276 275 275 274 274 273 272 271 270 269 269 269 268 268 267 266 265 265 265 265 265 264 264 264 265 265
283 282 281 283 281 281 280 281 282 281 282 281 280 278 278 277 276 276 275 275 274 273 272 272 271 270 269 268 268 267 266 266 265 264 264 263 263 262 261 261 261 262 262 263

GFSNGP_925_thetae_111.txt.gz
Theta_e
310 311 307 306 307 308 309 308 307 307 310 310 306 304 302 300 299 297 296 294 293 292 291 290 290 290 290 289 288 288 288 288 288 288 289 288 287 286 286 287 287 289 291 293
309 308 305 304 303 302 303 303 303 307 307 303 302 301 299 298 297 295 293 292 291 291 289 289 289 289 288 288 288 288 288 288 288 288 288 288 287 286 285 285 285 285 287 288
308 307 305 301 306 306 307 306 307 307 306 301 299 297 295 295 294 293 291 290 290 290 288 288 288 288 287 287 287 287 287 287 287 287 288 288 287 287 286 285 284 284 284 285
307 301 303 306 305 306 306 303 303 303 302 299 296 293 292 291 291 291 290 288 289 288 288 288 287 287 287 287 287 287 286 286 287 286 286 287 287 287 287 286 285 284 284 284
305 306 307 306 305 302 301 302 299 300 300 296 293 291 291 290 290 289 289 289 287 288 288 288 288 288 288 287 287 286 286 285 286 285 285 285 285 286 286 285 284 284 284 284
305 306 304 303 304 302 302 300 296 295 295 298 295 297 290 289 289 289 289 288 288 287 287 287 287 288 288 288 287 287 286 284 284 284 283 283 283 284 284 284 284 283 283 282
305 305 305 304 303 303 300 298 294 294 292 295 291 289 288 288 287 289 288 288 287 287 287 286 286 286 287 288 288 287 287 285 284 283 282 281 281 282 282 282 282 282 282 282
304 304 305 298 301 302 295 294 293 293 290 288 288 287 287 286 285 287 288 288 287 286 284 284 284 285 285 286 285 286 286 286 285 283 282 281 280 280 280 280 281 280 280 280
302 301 297 296 296 296 296 293 292 291 290 289 288 287 285 285 285 285 286 286 285 283 282 282 282 283 283 284 285 284 284 285 285 284 283 281 280 280 279 279 279 280 279 279
299 297 295 295 295 294 293 292 290 290 289 287 286 284 284 284 284 284 283 283 282 281 281 280 280 281 282 282 283 284 283 283 283 283 283 282 280 279 279 278 278 278 278 279
299 297 295 294 293 292 291 290 289 287 286 286 285 285 285 284 283 283 282 281 280 280 279 278 279 280 280 281 282 282 283 282 282 282 282 282 281 280 279 280 279 279 279 279
301 296 296 294 292 291 290 290 289 288 288 287 286 285 284 283 282 281 280 279 278 278 277 276 278 279 280 281 281 281 282 282 281 282 282 282 282 282 280 280 279 278 279 279
297 295 293 293 292 291 290 290 289 288 287 286 286 285 284 283 283 282 280 278 277 276 275 275 276 277 279 280 281 280 280 281 282 281 282 282 282 281 281 281 278 276 277 278
293 293 293 293 292 291 291 290 289 288 287 286 286 285 284 283 281 280 279 277 275 275 274 274 275 276 279 280 281 280 279 280 281 281 280 280 280 280 280 279 276 275 275 277
295 294 293 293 291 291 290 289 288 288 287 287 286 285 282 280 278 277 278 277 275 274 274 274 274 274 278 279 279 280 279 279 279 279 279 278 279 279 278 278 277 275 275 275
295 293 293 292 291 289 289 289 288 287 286 284 283 281 279 278 277 275 275 275 274 273 273 274 274 274 275 277 278 278 278 278 278 277 277 277 277 278 277 277 277 276 275 275
294 293 292 291 290 289 289 288 287 286 285 283 281 280 278 277 276 275 274 274 273 273 274 274 274 274 275 276 277 277 276 276 276 276 275 276 275 276 276 276 276 276 276 275
293 291 290 290 289 289 289 288 286 285 282 280 280 279 278 276 275 275 275 274 273 273 274 274 274 274 274 275 275 275 275 275 275 274 274 274 274 274 274 274 274 274 275 275
294 292 290 290 289 288 285 283 281 280 279 279 278 277 276 275 275 276 276 276 275 273 274 274 274 273 274 274 275 274 274 274 274 274 273 273 273 273 273 272 272 273 273 272
292 291 289 288 286 284 281 279 279 279 278 278 276 276 275 275 276 276 274 273 274 274 274 273 273 273 273 274 274 274 274 274 274 274 273 273 273 272 272 272 271 272 271 271
288 286 284 282 281 281 280 279 279 277 277 276 276 275 275 275 276 276 275 275 274 275 274 273 274 273 272 273 274 274 274 273 273 273 273 273 272 273 272 272 271 271 271 271
284 283 281 281 280 278 279 279 278 276 276 276 276 275 275 275 275 275 277 277 275 275 275 274 274 273 272 272 273 273 272 272 272 271 271 270 270 270 270 270 270 272 271 271
282 282 280 279 278 278 277 277 276 277 277 276 275 275 277 278 278 276 276 276 276 275 275 275 273 272 272 273 272 271 271 271 270 269 268 268 268 268 267 267 267 268 267 270
281 280 280 279 278 276 276 276 276 276 276 275 277 278 279 280 278 277 277 276 275 274 275 274 272 271 272 271 270 269 269 268 268 267 266 266 266 265 265 264 264 265 265 265
280 280 278 278 278 277 276 276 276 275 276 277 277 277 278 278 277 276 276 275 275 274 274 272 271 271 270 269 268 268 267 266 266 265 264 264 263 263 262 262 262 262 262 263
281 279 279 279 279 277 278 277 277 277 278 277 277 278 277 277 277 276 275 275 274 273 272 272 271 270 269 268 267 266 266 265 264 263 263 262 262 261 260 260 260 259 260 260
281 280 280 281 279 279 279 279 278 278 279 279 278 278 277 276 275 275 274 273 273 272 271 270 269 268 267 267 266 265 264 264 263 261 261 260 260 259 258 258 257 257 258 257

GFSNGP_925_thetae_114.txt.gz
Theta_e
310 311 310 309 304 308 312 310 309 308 312 309 304 301 299 297 296 294 293 292 291 289 289 289 289 288 287 287 288 287 287 288 287 287 288 287 287 287 286 285 285 285 285 286
311 310 306 304 303 302 302 306 309 309 309 304 300 298 297 296 294 293 291 291 290 289 288 288 288 287 287 287 287 286 286 287 286 286 286 287 287 286 285 285 285 285 285 285
313 310 309 307 303 307 306 305 307 306 305 300 297 296 295 294 293 291 290 289 289 289 288 288 288 287 287 287 286 286 285 285 286 285 285 285 285 285 285 284 283 283 283 285
308 308 311 306 306 307 304 301 303 303 301 299 295 292 292 291 291 291 288 288 288 288 288 288 288 287 287 287 286 285 284 284 284 283 283 284 284 284 284 284 283 283 283 283
306 306 306 305 305 304 303 301 298 301 297 294 292 291 291 290 289 288 289 287 287 287 287 286 286 287 288 287 287 286 284 283 283 282 281 281 282 282 282 282 282 282 282 282
305 305 306 302 303 302 300 299 295 296 298 294 292 294 290 290 289 288 287 287 287 286 285 285 285 286 287 287 287 287 285 283 283 282 281 280 279 280 280 280 280 280 280 281
306 304 305 303 303 302 299 298 294 292 290 294 294 287 288 287 287 288 287 287 285 284 284 283 284 284 284 284 284 285 286 284 283 282 281 280 279 278 279 279 279 279 279 280
304 303 305 297 301 302 293 292 291 288 288 287 288 287 286 284 284 286 287 285 283 283 282 282 282 283 283 284 283 284 283 284 283 282 281 280 279 279 279 279 278 278 279 280
301 298 296 295 294 293 292 291 291 288 287 286 285 285 283 282 279 284 284 283 282 281 281 280 281 281 281 282 283 282 282 282 282 282 281 280 279 279 279 279 279 279 279 279
298 297 296 295 295 294 292 290 290 289 288 286 285 281 281 280 281 281 281 281 280 279 279 279 280 280 281 281 282 282 281 281 282 282 282 281 280 279 278 278 279 279 279 279
298 296 295 294 293 292 291 290 289 287 286 284 283 283 283 282 280 280 280 279 279 278 278 278 279 280 280 281 281 282 282 281 281 281 281 281 280 280 278 277 279 279 280 279
296 296 294 293 292 291 290 289 286 286 285 285 284 283 282 281 280 279 278 277 276 276 276 277 278 279 280 279 280 280 281 281 280 280 280 280 280 280 279 277 277 278 278 279
294 294 292 292 291 290 290 288 287 287 286 285 284 283 282 281 280 279 277 275 274 274 274 276 276 277 279 280 279 279 279 279 278 278 279 278 278 278 276 276 276 275 276 276
292 292 292 291 291 290 289 288 288 286 285 285 284 283 282 282 280 278 276 275 274 274 274 274 276 277 278 278 279 278 279 278 278 278 278 278 277 277 277 276 275 275 274 274
293 293 292 292 291 290 289 288 287 286 285 285 284 283 281 279 278 277 276 275 274 274 274 274 275 276 277 277 277 277 277 276 276 276 276 276 276 276 276 276 276 274 274 273
293 292 291 291 291 290 288 288 287 287 285 285 282 280 278 277 276 276 276 275 274 274 274 274 274 275 277 277 276 276 276 275 275 275 274 274 275 275 275 274 274 274 274 273
292 292 292 291 290 288 288 287 287 285 283 281 279 278 277 276 274 273 273 273 274 274 274 274 274 275 276 275 275 275 275 274 274 273 273 273 273 273 273 273 273 273 273 273
291 290 290 289 288 288 287 286 285 284 282 280 279 278 276 275 274 273 273 273 274 274 274 273 273 274 275 274 274 274 273 273 273 273 273 273 272 272 272 272 272 271 271 272
291 290 288 288 288 288 287 285 283 281 280 279 278 276 276 275 275 275 274 274 273 273 274 274 273 274 274 274 274 274 273 273 273 273 273 273 273 272 272 272 271 271 270 271
289 288 287 286 286 286 283 281 280 278 278 278 277 274 274 275 276 276 276 275 273 273 273 273 273 272 273 274 274 273 273 272 272 272 271 271 271 270 270 270 271 271 271 271
286 285 285 285 283 282 281 280 279 277 276 277 276 275 275 275 275 274 274 274 274 274 273 273 273 272 272 273 273 272 271 271 271 270 269 269 269 269 268 267 267 267 268 270
284 283 282 282 281 279 279 279 278 277 276 276 276 275 275 275 276 276 276 275 274 274 274 273 273 272 273 272 271 271 270 270 269 268 268 267 267 266 265 265 265 265 265 265
282 282 280 280 279 278 278 278 277 276 275 275 275 275 276 276 276 276 276 275 274 275 274 273 272 272 272 271 270 269 269 268 267 266 266 265 265 264 263 263 262 263 263 263
281 280 279 278 278 277 276 275 276 276 276 275 276 277 277 277 277 276 276 275 274 274 274 272 271 271 270 269 268 268 267 266 265 265 264 263 263 262 261 261 260 260 261 261
281 279 278 278 278 278 277 276 276 275 275 277 277 278 279 278 278 276 276 275 274 274 272 271 271 270 269 268 267 266 265 264 264 263 262 262 261 260 260 259 258 259 259 259
280 279 279 279 278 277 277 276 275 275 276 277 277 277 277 276 276 275 275 274 273 272 271 270 269 268 268 267 266 265 264 263 262 261 261 260 259 259 258 257 257 257 257 256
280 280 280 279 277 277 277 276 275 276 276 276 277 277 277 276 275 275 274 273 272 271 270 269 268 267 266 265 264 263 262 262 261 260 259 259 258 257 257 256 256 255 255 255

GFSNGP_925_thetae_117.txt.gz
Theta_e
312 312 312 312 313 313 313 312 312 309 311 311 306 301 298 295 294 293 292 291 290 289 289 288 288 287 287 287 286 286 286 286 285 285 285 285 285 285 284 284 284 284 284 286
310 311 311 311 307 302 309 311 311 310 311 305 300 298 297 295 293 292 291 290 289 288 288 288 288 287 287 286 285 285 285 285 284 284 284 283 284 283 284 283 283 283 283 284
312 311 314 314 307 304 306 305 308 308 306 301 300 298 296 294 292 290 289 288 288 288 288 288 287 287 287 286 285 284 283 283 282 282 282 282 282 282 281 282 282 282 282 282
310 309 313 307 305 307 305 303 303 303 302 300 295 293 291 290 291 288 288 287 287 287 286 286 286 287 286 286 285 284 283 283 282 280 280 280 280 280 280 280 280 280 281 281
306 309 306 305 304 302 304 303 299 301 297 294 292 291 290 290 288 287 285 286 286 286 285 285 286 286 287 286 286 284 283 282 282 280 279 279 279 279 279 279 279 280 280 281
306 306 307 300 303 302 298 298 296 296 294 292 291 290 290 289 287 285 287 287 285 284 284 284 284 284 284 284 284 285 283 282 281 281 279 279 279 279 279 279 279 279 280 280
305 305 302 302 302 301 297 298 294 294 293 292 291 286 289 288 286 287 287 284 283 283 282 282 283 283 283 283 283 283 283 281 281 280 280 279 279 279 279 279 279 279 279 280
303 303 302 299 301 301 294 292 290 287 288 292 288 287 287 287 287 287 284 283 282 281 281 281 282 282 282 283 282 282 282 282 281 280 279 279 278 278 278 279 279 279 279 279
302 299 296 295 294 291 291 291 288 286 287 287 287 286 285 283 281 283 283 282 281 280 280 280 281 281 281 282 281 281 281 281 281 281 280 279 278 277 278 279 279 279 278 278
299 296 296 295 293 291 290 289 286 285 285 285 284 283 280 280 279 279 280 280 279 279 279 279 279 280 280 281 281 281 281 281 281 281 280 280 278 277 277 278 278 279 277 276
297 296 295 294 292 291 290 288 287 286 284 283 282 281 281 280 278 278 279 278 279 278 278 278 279 279 280 281 281 281 280 280 279 279 279 279 278 277 276 276 277 277 277 275
298 296 295 294 291 290 290 289 287 285 284 283 283 282 281 279 279 278 277 276 277 276 276 276 278 279 279 279 280 279 279 278 278 278 277 277 277 276 276 276 276 275 276 275
296 294 292 291 290 291 289 287 286 285 284 283 283 282 281 280 278 277 275 274 274 274 275 276 278 279 278 278 278 278 277 277 277 277 276 276 276 275 275 275 274 274 274 274
291 291 292 290 290 290 287 286 286 285 284 284 282 282 281 280 278 276 275 274 274 274 275 276 277 277 277 277 277 277 276 276 276 276 276 275 275 275 274 274 274 273 273 272
292 292 291 290 290 289 287 287 286 285 284 283 283 282 281 279 277 276 275 275 274 274 274 276 277 276 276 276 276 275 275 274 274 274 274 274 274 273 273 273 273 272 272 272
292 291 290 290 290 288 287 286 286 285 284 283 282 280 279 278 277 275 274 274 274 273 273 275 276 275 275 275 275 275 274 273 273 273 273 272 272 272 272 272 272 272 272 271
291 291 290 290 290 288 287 286 286 285 284 282 280 278 277 276 275 274 274 274 274 273 273 275 275 274 274 274 274 273 273 273 273 272 272 272 272 271 271 271 271 271 271 271
290 290 290 290 289 287 287 287 286 285 283 280 278 277 275 274 272 273 273 274 274 273 273 274 274 274 274 274 273 273 273 273 273 273 272 272 272 271 271 271 271 271 270 270
290 288 288 288 287 287 286 285 284 282 279 278 277 275 275 274 273 273 273 273 274 273 272 272 274 274 274 274 274 273 273 272 272 271 271 270 270 270 269 269 268 269 270 270
288 288 287 287 287 286 284 282 280 279 278 278 276 274 273 274 275 274 273 273 273 273 272 272 273 272 273 273 273 272 271 271 270 269 269 269 268 268 267 266 266 266 266 266
285 285 285 286 285 284 283 280 279 277 276 277 275 274 274 275 275 275 274 273 273 273 273 273 273 272 273 272 272 271 270 270 269 268 267 267 266 265 265 265 264 264 264 263
284 284 283 283 282 280 280 280 279 277 276 275 275 275 275 274 274 274 274 274 274 273 273 273 272 272 272 272 271 270 269 268 267 266 266 265 264 264 263 262 262 262 262 262
283 283 283 281 280 279 278 279 278 278 276 276 275 275 275 274 275 275 275 274 274 274 273 273 272 271 271 270 269 268 267 266 265 265 264 263 263 262 261 261 260 260 260 260
282 281 280 279 278 278 277 276 277 277 276 275 275 275 276 276 275 276 276 274 274 274 273 272 271 270 269 268 267 267 266 265 264 263 262 262 261 260 259 259 258 258 259 258
280 279 279 279 279 279 277 276 276 275 275 274 275 276 277 277 277 276 275 274 274 273 272 271 270 269 268 267 266 266 265 264 262 262 261 260 259 258 258 258 257 257 257 257
280 280 280 280 279 278 277 276 276 275 276 276 277 278 277 277 277 275 275 274 273 272 271 270 269 268 267 266 265 264 263 262 261 260 259 259 258 258 257 257 256 256 255 255
280 280 280 279 278 278 277 277 276 276 276 277 277 277 277 276 275 275 274 273 272 271 270 269 268 267 266 265 264 263 262 261 260 259 258 258 257 257 257 256 255 255 254 254

GFSNGP_925_thetae_120.txt.gz
Theta_e
311 311 312 311 312 313 316 315 315 312 310 310 309 304 297 294 293 292 291 290 289 288 288 288 287 287 286 285 284 284 284 283 283 283 283 282 282 282 281 281 281 281 283 284
310 310 312 312 311 310 312 314 313 311 310 308 302 297 295 294 293 291 291 290 288 288 288 288 288 287 286 285 284 283 283 282 281 281 281 281 281 281 281 280 280 280 281 282
311 309 309 313 310 308 306 305 309 312 308 301 299 298 295 294 293 291 290 289 288 288 287 287 287 287 286 285 284 283 283 282 280 280 279 279 280 280 280 279 279 280 280 281
311 310 313 306 302 306 304 305 304 304 303 300 299 295 293 292 290 289 288 287 287 287 286 286 286 286 286 285 283 283 282 281 280 279 279 279 279 279 279 279 279 279 279 279
309 309 307 304 304 301 302 302 300 302 299 295 293 292 292 291 288 285 284 286 286 285 284 284 285 285 285 285 284 282 281 281 280 279 279 279 279 279 279 278 278 278 279 279
306 304 305 299 302 302 300 301 297 298 296 293 293 296 288 288 286 285 285 284 283 283 284 284 284 284 283 283 283 282 281 280 280 279 278 278 278 278 279 278 278 278 278 278
305 305 302 300 301 299 300 300 297 297 295 292 291 287 286 285 284 285 284 283 283 283 282 283 283 282 282 282 282 282 281 280 279 279 278 277 278 278 278 278 277 277 276 276
305 305 302 300 301 301 296 292 292 291 292 289 289 288 286 284 285 284 283 282 282 281 281 282 282 282 282 281 281 281 281 281 280 279 278 277 277 277 277 278 277 276 275 275
300 298 294 295 295 292 292 290 287 288 288 288 287 287 286 285 282 281 282 281 281 280 280 280 281 281 281 281 281 281 280 280 280 280 278 277 276 276 276 277 276 275 274 274
297 295 295 294 292 291 290 288 286 287 287 287 286 282 280 280 279 278 280 280 280 280 279 278 279 280 280 281 281 280 280 279 279 279 277 277 276 276 276 276 276 275 273 273
297 296 295 294 292 290 287 286 285 285 285 284 282 281 281 279 278 278 279 279 279 278 278 277 278 279 280 280 280 279 279 278 278 277 277 276 275 276 275 275 275 275 274 273
300 297 296 294 291 289 287 286 285 284 283 283 282 281 280 278 278 277 277 278 277 277 277 277 278 278 279 279 279 278 277 277 277 276 276 275 275 274 275 275 274 274 274 274
296 294 292 291 290 289 287 286 285 284 283 282 281 281 280 279 277 276 275 276 276 275 276 277 277 277 278 278 277 277 276 276 275 275 274 274 273 273 273 273 273 273 273 273
291 291 292 290 291 289 286 286 285 283 283 282 281 280 279 278 277 275 274 274 275 276 276 277 277 276 276 276 276 275 275 274 274 274 274 273 272 272 272 271 271 271 271 271
292 291 291 289 288 287 286 284 284 284 283 282 281 280 279 278 276 275 274 274 274 275 276 276 276 276 276 275 275 274 273 273 273 272 272 272 271 271 271 271 270 270 270 270
290 290 289 289 288 287 285 285 285 284 283 282 282 280 278 276 275 275 274 274 274 274 275 275 275 275 275 274 274 273 272 272 272 272 271 271 271 271 271 271 270 270 270 270
290 290 290 289 288 287 286 285 285 284 283 282 281 278 277 275 274 274 274 274 274 275 275 275 274 274 273 273 273 273 273 273 272 272 272 272 271 270 270 270 269 270 270 270
290 290 289 289 288 287 286 285 285 284 283 280 278 276 275 274 273 272 273 273 273 274 274 274 274 273 273 273 273 273 273 272 271 271 270 270 269 269 268 268 267 267 267 268
289 289 288 288 287 286 286 286 285 282 279 278 276 275 275 275 273 273 273 273 273 273 273 274 274 274 273 273 273 272 271 271 270 269 269 268 268 267 266 266 265 265 265 265
287 287 287 287 287 286 285 283 281 279 278 277 276 274 272 272 273 273 273 273 273 272 272 273 273 273 273 272 272 271 271 270 269 268 267 266 266 265 265 264 264 263 264 263
284 284 284 285 284 283 282 281 279 277 276 277 275 273 272 272 273 273 273 272 272 272 272 272 272 273 272 272 271 270 269 268 267 266 266 265 264 263 263 262 262 262 262 261
281 281 282 283 282 281 280 280 279 277 276 276 274 274 273 272 273 273 273 273 272 272 273 273 272 272 271 271 270 269 268 267 266 265 264 263 262 262 261 261 260 260 260 260
282 283 282 282 281 280 279 279 278 278 276 276 274 274 274 274 274 273 273 273 273 273 272 273 272 271 270 269 268 267 266 265 264 263 262 262 261 260 260 259 259 258 258 258
282 282 281 281 280 279 278 277 277 277 277 276 275 275 275 273 274 275 275 274 274 273 272 272 271 270 269 268 267 266 265 264 263 262 261 260 260 259 259 259 258 257 257 257
281 280 280 279 280 279 278 277 276 276 276 275 275 275 275 275 276 276 275 274 274 273 272 271 270 269 268 267 266 265 264 263 262 261 260 259 259 259 258 258 257 256 256 255
280 280 280 281 280 278 277 277 276 275 275 274 274 275 276 276 276 276 274 274 273 273 272 270 269 268 267 266 265 264 263 262 261 260 259 259 258 258 258 257 257 256 255 255
281 281 280 279 279 278 277 277 276 276 275 275 275 276 276 276 276 274 274 273 272 271 271 270 269 267 266 265 264 263 262 261 260 259 259 258 258 258 258 257 256 255 255 254

GFSNGP_925_thetae_123.txt.gz
Theta_e
313 311 312 313 312 313 315 315 315 313 313 313 310 309 307 300 295 294 293 291 290 290 289 288 287 287 286 285 285 284 284 283 282 282 282 282 282 282 282 282 282 282 282 282
313 311 313 313 313 312 312 313 315 314 316 311 310 308 299 297 295 294 292 290 290 289 288 288 287 287 286 285 285 284 283 282 281 281 281 280 280 281 280 280 281 281 281 281
313 310 312 314 312 311 311 311 312 313 313 306 304 302 300 297 295 294 292 290 289 288 288 287 287 286 286 285 284 283 282 281 281 280 280 280 280 280 279 279 279 280 280 280
311 311 314 308 305 307 310 310 308 308 307 305 304 300 297 296 294 292 291 289 289 287 287 286 286 287 286 284 283 283 282 281 280 280 279 279 279 278 278 279 278 278 278 279
311 311 309 307 305 306 308 309 305 306 303 298 296 296 294 292 292 290 289 288 287 286 285 284 284 285 285 284 282 282 281 280 280 279 278 278 278 278 278 278 278 277 277 277
309 310 309 307 303 302 302 308 303 303 300 297 297 301 297 291 289 287 287 285 284 283 283 283 284 283 283 283 282 281 281 280 280 279 278 277 277 278 278 277 277 277 276 276
308 308 307 304 302 300 307 308 301 301 298 297 300 297 292 288 286 286 285 284 283 283 283 282 282 282 282 282 281 281 281 280 279 279 278 277 277 277 278 276 275 275 275 275
307 308 308 302 301 304 302 295 298 296 295 293 290 288 287 286 286 284 284 284 283 282 282 282 282 282 281 281 281 281 280 280 279 278 277 277 277 277 277 276 275 275 275 275
306 307 298 297 298 295 295 295 294 295 292 291 289 287 286 286 284 282 283 283 282 282 282 281 281 282 282 282 281 281 280 279 279 278 277 277 276 277 276 276 275 275 275 274
302 299 298 297 294 293 293 293 291 292 291 289 287 287 286 284 282 282 282 282 281 281 281 280 280 280 281 281 281 280 279 279 279 278 277 276 276 276 276 276 276 275 274 275
300 296 296 296 295 294 290 289 290 290 290 288 286 285 284 283 281 280 280 280 280 280 280 279 279 279 279 280 279 279 279 278 278 277 276 276 275 276 275 275 275 275 274 273
305 300 300 298 295 290 289 289 288 288 287 286 285 284 283 282 281 280 280 280 279 278 278 278 278 278 278 279 278 278 278 277 277 276 276 275 275 274 273 274 274 273 273 273
300 296 294 293 291 290 288 287 287 287 286 285 284 283 282 281 279 279 278 277 277 277 277 277 277 278 277 277 277 277 276 276 275 275 274 274 273 273 273 272 271 272 272 272
293 293 292 292 291 288 287 286 286 284 284 283 283 282 281 280 278 278 277 276 276 277 276 277 277 276 276 275 275 275 274 274 273 273 273 272 272 272 271 271 271 271 271 270
293 292 293 291 289 287 286 285 285 285 284 283 282 281 280 278 277 277 276 276 275 276 276 276 276 275 274 274 274 273 273 272 272 272 272 272 272 272 272 271 271 271 271 270
291 291 290 290 288 287 286 286 286 285 284 283 282 281 279 277 276 276 276 275 275 275 275 275 275 274 274 274 273 272 272 272 272 272 272 272 272 271 271 271 270 270 270 268
291 291 290 289 288 287 287 286 286 285 284 283 281 279 278 276 276 275 274 274 276 275 275 275 274 274 273 273 273 273 273 273 272 272 271 271 270 269 269 269 268 268 268 266
292 292 290 289 289 288 287 286 285 284 283 282 279 277 276 275 275 273 273 274 274 274 274 273 273 273 273 273 273 273 272 272 271 270 269 268 268 267 267 267 266 266 266 266
290 290 289 288 287 287 286 285 284 283 280 278 276 276 275 274 273 272 273 273 273 273 273 273 273 273 273 273 272 271 271 270 269 268 267 266 266 265 265 265 264 264 264 264
289 288 288 287 287 286 286 284 281 279 278 277 275 274 273 272 273 272 272 273 273 274 273 273 273 273 273 272 271 271 270 269 268 267 266 265 264 263 263 262 262 261 262 262
287 286 285 285 284 284 283 281 279 278 276 277 276 274 273 272 272 272 272 273 272 273 273 272 273 272 272 271 270 270 268 267 266 265 264 263 262 262 261 260 260 259 259 259
283 282 282 283 282 282 281 280 279 277 276 276 275 274 272 271 272 272 273 273 272 272 272 272 272 272 271 270 269 268 267 266 265 264 262 261 261 260 260 260 259 258 257 257
281 282 282 281 281 281 280 279 278 278 276 276 275 273 273 272 272 274 274 272 272 272 273 272 272 271 270 269 268 267 266 265 264 263 262 261 260 260 259 259 258 257 256 256
281 282 281 281 280 279 279 278 278 278 277 277 276 275 273 273 273 274 274 273 272 272 273 272 271 270 269 268 267 266 265 264 263 262 261 260 260 259 259 258 257 257 256 256
281 281 280 280 281 281 279 278 277 276 276 276 275 274 274 275 275 274 274 273 273 272 272 271 270 269 268 267 266 265 264 263 262 261 260 260 259 259 259 258 257 256 256 256
282 282 282 282 282 280 279 278 278 277 276 276 275 275 275 275 276 275 274 274 273 272 272 270 269 269 268 267 265 265 263 262 261 260 260 259 259 259 258 258 257 257 256 256
282 281 281 280 280 279 279 278 278 277 276 276 275 274 275 275 276 275 274 273 273 272 271 270 269 268 267 266 265 264 262 261 260 260 259 259 259 259 258 258 257 257 257 256